GFSWCAN_250_spd_057.txt.gz
Wind_Speed
88 85 77 69 66 64 60 48 41 36 35 37 35 31 26 25 25 22 23 21 24 26 33 34 40 45 51 54 60 63 67 74 80 87 86 77 69 56 42 32 32 29 27 27 28 29 29 33 34 34 35 37 38 39
92 86 79 70 70 60 59 45 39 38 39 38 35 30 26 25 25 22 23 20 22 26 33 35 39 43 48 55 59 63 67 71 75 81 86 83 62 56 55 42 32 32 33 31 31 32 33 35 36 36 38 40 41 41
91 82 78 76 72 58 52 44 40 39 39 38 36 32 27 24 24 24 23 24 24 30 32 37 41 42 47 53 59 63 66 71 74 76 78 86 71 60 57 55 43 37 33 34 35 33 34 36 37 38 42 43 42 44
89 79 76 72 62 56 49 44 40 38 39 39 38 32 28 27 26 22 25 25 25 30 34 38 43 44 47 53 59 63 66 71 74 78 82 82 84 67 61 58 54 47 40 34 33 35 36 37 38 41 43 44 45 44
89 82 77 72 64 54 48 42 39 37 38 38 38 30 29 27 25 22 26 27 26 30 32 38 43 46 46 52 57 63 67 72 75 79 81 84 86 81 64 50 47 51 44 38 37 35 35 36 38 43 47 45 45 46
94 88 78 75 65 57 50 42 39 38 39 42 36 31 29 27 26 27 29 29 29 33 36 38 42 46 48 52 58 65 69 75 78 81 83 86 90 88 76 64 60 53 48 43 40 36 39 42 40 41 48 50 48 47
87 77 72 63 57 55 49 42 38 39 38 38 35 32 31 30 29 28 31 30 31 36 36 38 41 46 47 52 58 64 70 75 78 83 86 90 93 90 83 76 70 66 53 44 40 42 37 40 44 45 44 49 53 52
83 79 72 63 58 55 47 42 41 40 39 38 34 35 35 32 30 30 30 32 34 37 39 41 41 47 50 54 59 64 68 74 77 82 86 92 95 96 98 97 86 79 69 59 47 50 44 37 42 46 48 49 51 54
86 79 72 67 61 53 49 43 39 38 38 38 37 36 35 31 31 33 31 32 36 38 40 42 41 49 53 56 60 64 68 74 77 83 87 91 93 92 99 107 91 89 83 70 73 62 55 44 40 43 47 51 50 54
83 77 70 64 59 55 49 42 38 37 36 36 38 38 33 30 32 34 34 35 39 39 40 40 45 48 54 59 63 68 70 76 80 83 87 91 94 97 100 104 97 94 88 86 77 77 76 57 41 39 43 48 52 55
81 77 67 64 58 53 47 43 39 36 36 37 38 33 27 30 33 34 36 37 42 45 42 43 48 52 56 61 67 70 74 78 83 87 90 94 96 99 104 104 112 101 99 91 83 76 66 60 57 45 38 41 48 52
79 72 68 62 55 50 47 43 40 39 39 40 36 30 29 33 35 37 37 39 42 46 46 47 50 54 57 62 70 73 79 82 87 90 94 97 102 107 109 110 120 110 104 99 91 79 65 49 41 49 55 51 45 45
77 73 69 63 58 53 49 45 39 36 38 36 31 29 31 36 36 37 39 42 44 47 47 49 53 55 59 66 71 77 80 84 88 95 97 101 105 111 113 118 121 115 107 103 95 85 69 52 44 43 46 54 57 54
76 70 66 64 59 55 48 43 39 39 37 33 31 32 35 37 41 45 46 46 47 51 51 52 56 60 65 70 75 78 80 87 91 98 100 104 109 112 119 117 124 119 110 105 99 87 72 58 52 50 47 46 49 55
76 73 69 63 60 55 49 44 43 41 35 33 33 32 38 43 46 48 46 49 50 52 52 55 60 66 71 76 79 82 87 91 95 100 102 108 110 118 120 121 127 118 115 106 99 87 72 60 56 54 52 48 44 45
78 73 68 65 60 54 51 48 43 39 36 34 34 37 44 47 49 50 50 52 53 53 55 57 64 70 73 80 83 87 91 93 99 102 106 111 118 119 125 125 128 120 112 107 97 83 68 60 57 55 52 47 45 43
75 70 65 61 58 54 49 44 40 38 37 36 42 49 52 55 54 54 55 55 54 55 57 61 67 71 76 82 85 89 91 95 100 106 111 116 119 124 126 129 124 120 111 106 93 78 66 59 55 51 47 46 44 43
69 64 61 58 54 49 46 41 40 40 39 45 52 53 56 59 58 56 56 57 56 58 59 64 72 75 79 84 87 90 95 103 107 111 115 118 123 123 129 127 122 116 110 101 83 73 65 59 54 50 45 43 42 41
63 60 59 58 52 49 44 41 43 43 46 54 57 61 58 57 59 57 55 58 62 62 66 72 76 79 81 85 93 96 101 104 108 114 118 121 122 126 133 128 124 114 107 87 76 68 63 57 53 50 45 41 39 37
63 61 58 53 50 49 46 44 43 47 55 60 61 60 56 55 55 56 58 61 63 67 73 75 77 80 84 88 93 97 100 107 113 118 124 126 126 131 132 128 117 112 96 81 76 66 59 56 51 47 43 38 35 33
59 56 54 52 50 49 46 45 51 58 61 62 63 58 57 56 58 61 63 65 68 69 73 78 84 89 91 93 97 105 110 114 120 121 126 128 131 138 132 127 112 104 87 75 67 63 56 53 49 45 40 35 31 29
56 54 53 52 50 49 49 52 58 65 65 65 59 59 60 59 60 63 69 73 76 78 84 88 93 96 98 102 106 110 116 119 122 124 127 130 136 134 128 114 108 90 81 66 64 57 53 50 46 42 37 33 29 26
59 58 58 57 53 54 57 61 65 66 64 63 62 65 63 61 63 68 74 75 76 79 85 91 96 100 105 108 110 112 115 119 124 127 131 136 133 126 113 107 88 81 70 61 61 53 49 46 43 39 34 30 28 26
59 60 58 53 56 59 62 66 69 68 66 65 67 65 64 67 71 77 81 83 83 85 88 94 98 102 108 108 113 117 117 120 128 132 134 133 125 112 107 88 77 66 55 52 58 52 47 44 40 37 32 28 27 26
61 60 62 63 65 66 70 71 72 70 68 70 67 66 71 75 78 81 87 89 89 93 98 103 105 108 114 117 119 119 123 127 133 133 132 121 106 107 92 79 70 64 56 47 54 49 44 43 39 35 30 28 26 25
71 69 69 71 75 75 73 73 73 73 75 73 74 77 79 79 82 85 90 92 98 101 104 108 112 114 118 121 124 125 127 128 136 135 128 115 107 96 80 67 64 60 57 49 51 46 41 40 38 34 31 28 25 23
77 74 76 77 75 75 77 79 78 79 80 81 82 86 90 92 95 94 95 99 102 106 108 111 112 116 120 121 127 128 130 137 133 125 116 110 97 82 69 62 56 54 55 49 47 43 39 38 37 33 31 28 25 24
80 79 79 79 78 79 82 84 85 86 86 88 90 92 95 98 98 98 102 105 106 111 114 116 116 118 124 124 129 135 142 135 122 113 107 93 82 73 64 58 51 51 49 46 43 40 38 37 36 32 30 27 23 24
82 84 85 85 85 87 91 92 90 88 90 92 94 96 99 101 102 104 106 111 114 117 119 121 123 123 124 129 134 138 130 116 110 103 86 79 72 66 60 54 49 46 43 41 39 37 36 37 34 29 26 24 22 23
92 92 91 91 93 96 98 98 95 96 99 101 101 101 102 105 108 110 113 116 119 122 121 122 125 129 133 137 138 129 115 108 97 78 70 64 61 57 55 51 47 43 40 39 38 37 35 34 30 26 24 23 22 22
97 98 99 100 101 101 99 99 101 103 106 108 108 108 109 111 115 117 120 122 122 124 127 129 131 133 138 134 121 110 107 89 76 70 63 58 53 49 46 43 41 41 40 38 36 34 31 28 25 23 22 20 20 19
107 106 105 104 103 103 104 106 108 110 113 115 117 119 122 123 123 124 125 126 127 128 132 130 134 138 122 109 102 92 73 64 61 59 55 52 47 43 40 40 40 39 37 34 32 30 28 24 22 21 20 18 17 17
108 109 109 108 108 109 112 114 116 118 119 121 124 127 128 127 127 129 128 129 131 131 132 137 128 115 106 96 80 67 60 56 53 50 47 44 40 38 38 38 37 35 32 30 29 26 23 21 20 19 17 16 15 14

GFSWCAN_250_spd_060.txt.gz
Wind_Speed
80 75 79 82 83 77 74 64 61 52 43 40 37 36 34 31 26 21 18 17 18 17 17 22 25 33 37 38 43 46 48 54 59 65 68 67 64 74 74 59 53 43 47 37 28 24 25 31 36 40 40 42 44 46
81 74 84 86 81 76 66 66 55 50 44 40 39 37 35 29 27 21 17 18 20 17 19 21 25 30 36 38 42 46 48 53 56 59 62 63 64 70 70 71 70 61 53 47 38 33 28 28 31 35 43 44 45 46
75 82 84 85 77 75 73 66 57 49 44 41 41 38 34 31 25 20 19 22 19 16 17 22 25 29 35 39 40 46 50 54 57 60 63 65 67 66 70 69 69 68 56 50 45 42 38 30 28 32 36 41 44 46
82 86 86 83 82 77 69 68 59 47 40 43 42 39 36 30 24 22 21 22 19 17 17 22 27 30 31 37 42 45 51 55 60 64 66 68 71 67 72 78 78 75 79 62 59 47 47 39 35 32 34 38 42 46
87 88 85 83 78 74 67 62 52 46 45 45 46 41 36 30 27 24 23 22 19 18 19 23 27 29 33 38 43 47 50 55 60 64 68 72 73 74 74 75 79 75 82 82 70 58 49 47 39 35 34 36 39 43
89 89 85 79 73 73 64 53 44 45 46 44 45 41 35 31 29 29 25 22 20 22 24 25 28 30 38 38 42 48 51 58 63 67 71 75 76 78 78 83 82 89 83 80 84 69 62 60 58 42 35 34 37 41
92 89 86 82 77 71 64 57 50 47 47 45 44 40 36 34 33 28 26 23 22 22 25 26 27 32 36 38 43 49 53 59 65 70 72 75 81 83 86 90 92 95 88 96 92 89 77 71 69 58 42 35 36 39
95 93 90 87 82 73 67 57 55 51 45 44 43 39 33 32 32 28 25 23 23 21 27 27 25 30 36 41 45 50 54 60 65 70 73 77 82 85 90 93 96 99 100 100 107 104 85 80 78 68 53 42 36 38
97 96 89 79 71 62 53 52 51 49 44 44 39 36 37 35 32 26 26 25 24 24 29 30 26 32 38 41 46 49 53 60 66 70 77 76 80 84 88 94 97 100 103 105 111 112 107 100 94 83 66 52 41 39
95 84 77 76 66 60 56 53 50 47 45 40 36 38 39 36 29 28 28 27 23 28 31 32 31 34 40 45 47 52 56 62 67 70 76 78 83 84 92 95 97 104 103 106 109 116 112 100 101 89 69 54 49 45
90 83 80 73 65 60 57 54 49 45 40 39 38 38 39 35 36 32 32 27 28 28 27 29 32 36 41 47 50 53 58 63 67 70 77 80 85 88 93 94 101 104 106 110 115 116 118 107 99 86 69 55 44 47
89 85 79 71 62 59 56 51 47 44 44 41 40 39 41 36 36 35 32 29 28 28 29 30 33 37 45 47 51 54 59 64 66 72 78 80 87 90 94 103 105 109 111 114 120 121 118 105 98 85 68 56 51 50
89 82 76 69 61 58 56 54 53 48 42 39 39 40 39 40 41 38 35 29 29 32 33 35 39 42 46 49 51 55 59 65 71 74 82 81 85 92 98 102 109 110 116 121 125 124 116 108 100 80 67 59 53 52
86 80 75 69 65 62 60 56 48 41 39 38 38 38 37 41 43 42 34 30 31 34 35 39 43 45 48 52 53 57 61 67 73 78 79 85 94 95 103 110 109 115 118 124 126 124 113 107 92 77 66 61 56 52
85 81 76 71 65 62 57 47 43 43 41 38 37 36 38 42 45 40 35 33 36 37 41 42 44 48 52 53 58 61 66 72 77 79 83 90 95 100 106 107 113 116 120 121 136 120 111 103 85 74 66 60 56 50
86 82 79 69 64 59 53 48 47 45 39 37 36 39 42 47 48 41 37 37 39 41 43 45 50 53 52 56 61 66 70 75 78 84 90 95 99 104 106 109 116 119 121 130 134 111 109 94 80 69 65 58 49 43
86 80 72 70 65 60 56 51 45 40 37 37 37 39 43 45 45 44 42 43 41 44 48 51 56 55 58 60 65 72 76 80 85 88 92 97 103 106 109 114 122 123 129 126 123 108 101 86 75 68 62 52 46 42
82 75 73 68 64 60 53 46 42 40 41 40 41 43 46 46 46 45 46 45 46 49 50 54 58 59 61 65 70 75 78 82 86 93 96 104 104 110 112 118 123 127 132 122 115 108 90 82 73 67 59 51 46 41
76 74 71 67 61 56 49 46 46 45 43 42 44 49 48 47 47 46 46 48 50 52 55 59 59 62 63 68 74 78 82 87 93 98 104 106 110 112 119 121 127 126 129 118 110 99 86 77 67 65 59 52 46 40
80 76 71 66 61 54 51 50 50 49 47 48 51 49 49 50 48 48 50 52 54 57 60 61 63 65 70 75 79 84 89 93 99 105 108 110 113 117 123 125 129 133 123 110 109 87 79 73 65 62 56 49 45 40
78 72 69 64 57 54 53 51 50 48 46 47 54 52 52 51 50 49 53 55 56 60 64 64 65 72 77 81 83 89 92 97 101 106 109 115 117 123 126 131 129 126 108 100 96 85 71 68 62 59 54 47 41 38
70 67 64 62 60 58 55 54 51 49 49 58 59 55 53 53 54 56 57 59 60 62 65 65 70 75 81 84 88 92 95 101 106 109 114 118 123 125 130 129 133 117 100 98 85 74 65 63 57 55 49 45 39 37
71 69 67 63 60 56 54 51 49 46 51 63 62 61 59 59 59 60 61 62 60 63 66 70 77 83 86 90 94 98 102 106 110 114 116 121 123 128 130 139 121 103 95 91 79 68 62 58 54 50 47 43 37 34
72 70 66 63 58 53 52 48 50 54 67 68 68 66 63 61 59 61 64 64 63 67 70 76 83 87 91 94 98 101 105 110 113 121 121 122 128 133 137 130 117 101 88 80 73 64 59 55 51 47 44 40 34 31
71 69 64 60 59 56 53 54 60 68 73 73 74 68 65 63 63 63 66 69 70 71 75 80 86 91 96 100 104 107 108 110 116 122 126 131 133 135 138 123 107 95 85 77 70 65 59 55 49 45 42 37 31 29
69 64 62 59 56 56 57 62 66 71 72 73 69 69 68 65 65 67 72 74 78 80 83 88 93 97 100 104 109 110 112 116 120 127 130 134 136 134 121 102 94 89 81 76 70 64 58 52 47 44 40 36 31 29
65 64 61 59 60 63 68 72 75 75 75 74 74 72 69 68 72 75 76 80 83 86 91 95 98 102 105 110 113 116 119 123 129 129 136 136 134 125 102 93 85 79 76 69 62 59 54 48 44 42 39 35 31 29
61 60 61 63 67 72 76 77 76 76 75 76 76 73 73 75 78 79 83 84 87 92 96 100 104 107 110 114 116 118 125 130 129 135 134 138 127 107 99 88 79 73 68 61 57 51 48 45 42 40 36 32 29 27
73 74 75 75 75 76 77 78 80 81 79 78 78 79 80 82 83 85 86 89 93 97 102 105 108 112 115 118 121 124 129 132 136 137 141 123 106 102 90 82 77 71 65 58 51 50 47 42 38 35 31 28 26 25
76 77 76 76 76 77 79 82 85 86 84 84 85 85 87 88 90 92 93 97 101 104 108 110 113 116 119 122 126 130 130 132 131 126 105 91 91 84 79 75 69 62 56 52 49 46 42 36 34 31 28 26 25 23
80 82 83 85 86 88 90 92 92 90 90 89 90 92 95 96 96 98 101 104 107 109 113 116 118 120 122 128 129 134 138 133 122 112 95 89 81 78 73 65 59 54 51 47 44 40 37 34 31 28 26 23 22 21
90 91 92 94 95 97 96 96 95 93 93 94 97 100 101 103 104 105 108 110 112 115 118 120 124 128 128 132 131 136 130 113 108 91 82 79 76 69 62 56 51 48 45 42 39 36 33 30 29 26 24 22 20 18
99 100 100 99 99 99 99 98 98 99 100 102 104 106 108 110 112 113 115 117 119 121 124 126 127 128 129 135 129 117 116 101 87 83 79 73 64 58 52 48 45 42 39 37 33 31 30 28 26 24 21 20 18 17

GFSWCAN_250_spd_063.txt.gz
Wind_Speed
47 65 77 78 74 75 82 80 77 71 65 58 49 44 42 40 38 31 25 19 12 7 9 8 11 16 18 27 30 33 39 44 48 49 52 48 54 63 60 59 53 58 63 65 57 51 45 36 32 28 32 37 41 44
47 67 74 76 78 85 87 83 72 70 62 60 52 48 44 41 35 30 25 19 14 9 10 7 9 14 19 24 28 34 37 42 48 51 51 50 57 57 62 62 62 60 64 65 70 66 48 43 42 33 30 31 39 42
53 77 81 79 76 77 73 76 71 66 61 57 53 46 44 42 36 33 26 21 15 12 11 10 9 13 18 23 27 33 37 41 45 50 51 48 56 55 57 63 69 63 65 74 73 77 75 56 49 41 31 29 32 39
59 79 82 82 80 82 78 71 71 66 61 56 49 46 43 40 36 31 27 21 16 14 12 12 9 11 18 22 27 34 38 41 45 50 53 53 58 59 57 62 66 71 66 65 78 82 82 82 68 60 51 37 29 33
61 77 80 79 81 78 78 78 70 66 61 54 52 47 43 38 35 32 28 21 19 15 12 10 13 13 17 23 27 32 38 42 46 50 53 57 58 60 65 67 72 74 73 78 79 82 80 89 76 72 72 54 38 31
63 80 84 88 85 78 74 70 71 68 61 56 47 42 40 38 35 32 26 22 19 16 14 12 14 11 16 24 29 32 40 44 46 50 54 58 65 66 70 73 76 79 82 85 84 88 93 91 82 77 72 66 53 38
67 81 80 83 79 76 73 73 70 62 56 47 44 41 41 39 37 31 27 23 21 19 17 14 13 12 18 22 27 33 39 46 47 51 55 60 66 70 74 76 81 84 86 85 89 88 97 95 97 93 78 65 57 50
69 83 86 87 81 77 73 70 66 58 54 48 45 42 39 38 34 30 28 25 24 22 19 16 17 17 19 24 28 34 41 47 48 51 55 60 65 71 73 77 81 86 87 86 91 96 97 96 105 98 86 76 64 52
76 81 89 86 84 75 76 66 64 62 54 50 46 41 39 38 36 33 29 29 26 22 19 18 19 21 24 27 29 33 41 48 49 52 56 59 66 71 72 79 82 87 87 93 99 101 103 110 113 118 101 90 76 61
79 81 89 85 78 76 69 67 67 58 50 47 46 44 41 37 34 33 33 30 26 20 19 18 15 18 24 27 31 36 44 49 52 55 58 63 67 70 74 80 85 91 93 94 97 102 108 110 118 117 95 85 74 62
75 90 89 84 80 74 70 65 57 54 44 48 50 46 40 40 38 35 32 29 26 20 18 19 19 20 26 29 33 40 45 50 54 57 60 65 70 73 76 81 86 93 97 98 102 107 111 113 117 113 96 86 74 60
82 92 87 83 78 73 69 59 55 56 52 51 46 42 42 41 37 34 31 27 22 18 17 21 21 24 31 33 36 41 44 50 55 58 63 67 72 76 80 85 93 95 99 103 104 108 111 112 117 103 92 84 73 63
88 92 88 82 80 76 68 61 61 57 53 47 41 38 37 35 34 34 32 31 26 24 25 26 26 29 34 35 39 44 47 53 59 63 66 69 73 78 84 88 92 97 101 104 108 112 115 121 112 96 87 78 68 61
93 94 86 85 79 70 66 60 59 51 46 43 41 40 37 34 36 36 34 34 29 29 28 28 30 34 38 39 42 46 51 57 63 66 69 71 77 82 87 89 97 102 101 108 109 115 122 127 110 98 87 76 64 57
92 90 89 81 75 72 61 56 52 48 43 36 34 34 37 39 38 39 40 37 32 30 30 33 36 38 42 45 47 51 57 60 66 70 72 75 80 84 89 94 98 105 107 106 114 120 125 126 103 96 83 73 61 52
97 93 88 81 80 68 58 53 48 46 41 40 39 41 43 42 42 43 40 38 35 34 34 38 39 39 45 48 51 56 59 63 69 72 75 78 83 87 91 97 101 107 107 112 118 125 128 120 102 89 78 70 61 51
89 86 83 83 71 61 60 56 52 46 40 40 42 43 44 45 45 40 38 37 36 37 39 43 42 45 49 51 54 59 64 68 73 76 78 81 86 91 95 99 105 111 113 117 121 128 127 116 99 81 70 66 59 50
89 87 79 73 68 62 59 54 46 40 41 45 44 45 45 45 44 40 39 39 40 40 42 43 44 48 50 54 58 65 68 70 77 78 82 85 90 95 100 104 106 116 116 121 128 129 124 111 92 76 67 61 54 50
88 82 78 74 68 63 55 50 46 44 45 45 44 45 47 45 42 41 41 40 42 43 43 43 47 50 53 57 62 66 70 75 81 84 86 91 95 99 103 106 114 117 121 123 130 128 113 101 82 68 62 57 54 51
89 83 80 77 68 62 57 56 51 47 43 43 44 48 46 43 43 43 42 43 44 45 45 47 50 53 56 61 66 69 73 78 85 88 93 95 101 104 107 111 118 122 125 131 127 119 98 90 74 66 60 53 51 51
88 84 77 74 65 56 49 50 49 48 44 43 46 50 48 47 46 46 46 44 44 47 48 51 56 58 62 65 69 73 79 84 87 91 95 99 105 106 112 117 119 123 129 127 126 107 95 78 67 61 56 52 50 48
79 76 71 64 63 59 56 54 53 51 50 49 53 55 52 51 51 50 48 46 47 50 53 57 62 63 64 67 72 77 84 88 92 94 99 102 107 114 119 119 122 130 131 121 109 94 84 72 64 58 53 51 49 47
78 73 66 64 63 61 59 57 55 51 48 50 57 58 58 57 54 53 53 51 49 54 60 62 64 66 68 71 77 81 85 91 96 100 102 107 110 116 119 124 131 125 125 119 99 87 76 67 59 56 53 49 47 45
82 76 74 69 64 61 59 56 53 53 52 56 62 63 63 61 59 58 59 55 54 60 63 64 67 69 72 76 82 85 89 94 100 105 107 110 115 120 124 130 127 126 114 100 90 79 70 60 55 52 49 46 44 42
79 74 71 67 65 63 60 57 57 57 58 64 67 67 66 64 62 61 60 60 61 64 66 68 70 72 77 82 86 89 92 97 102 108 111 114 117 121 126 127 127 119 105 95 84 74 64 56 51 49 49 48 45 42
75 72 69 66 64 62 60 59 59 60 67 71 70 71 70 64 60 62 66 66 67 68 71 73 75 79 83 88 92 94 97 101 107 111 115 117 120 124 128 124 123 112 100 86 75 66 59 54 52 51 50 48 43 39
72 67 65 65 64 63 64 63 66 71 77 76 76 74 69 64 64 67 68 68 70 73 77 79 82 85 88 92 96 99 102 107 112 115 118 121 123 129 120 125 103 90 81 73 66 59 55 55 53 52 49 44 39 35
67 66 66 66 65 66 65 67 72 78 81 80 77 72 69 67 68 69 68 71 75 79 83 84 88 90 94 97 100 104 107 110 116 117 121 124 130 124 122 108 89 82 73 65 60 56 55 54 53 49 44 41 37 34
71 70 68 66 64 64 68 71 76 81 81 76 72 70 69 68 69 70 73 78 83 86 87 90 94 95 98 102 105 109 112 114 117 121 129 132 128 131 117 92 83 72 65 60 56 56 55 52 49 45 40 36 33 30
73 69 67 67 71 74 77 81 85 84 80 77 73 72 73 74 75 76 80 85 87 89 92 94 97 100 104 107 110 114 115 116 123 126 126 123 130 118 91 85 73 65 60 57 57 55 53 49 45 41 36 33 30 27
77 78 78 78 79 82 84 88 87 86 81 77 75 76 75 76 79 83 87 90 92 94 97 99 103 106 109 112 115 117 121 124 123 120 122 120 116 89 84 75 66 61 57 57 55 51 47 43 39 36 34 31 29 27
81 84 85 84 83 83 85 85 84 83 80 79 79 80 81 83 86 90 94 95 98 101 103 106 109 111 112 115 118 122 120 119 121 124 118 114 88 84 75 66 60 57 57 55 52 48 43 40 38 35 32 29 27 25
88 88 87 86 84 83 83 82 83 83 82 82 83 85 88 92 94 96 98 100 104 106 108 111 112 114 117 120 120 116 119 123 122 119 115 88 84 74 66 60 58 57 55 52 47 42 39 37 36 32 29 26 24 23

GFSWCAN_250_spd_066.txt.gz
Wind_Speed
15 23 36 51 73 66 69 63 66 72 73 66 63 53 51 50 44 40 37 31 23 18 12 7 2 4 6 10 18 23 29 31 35 36 40 42 47 44 50 50 50 47 48 56 56 56 63 60 54 54 33 25 29 33
20 29 43 65 70 70 74 71 69 73 69 67 58 55 54 49 45 42 37 30 23 17 12 9 4 4 6 10 16 23 27 33 36 38 40 45 49 44 46 55 56 51 53 57 57 55 63 63 69 54 54 34 27 31
24 36 56 66 73 69 71 71 73 71 70 64 60 58 55 46 46 42 38 31 23 17 13 9 6 3 7 10 16 23 28 33 37 40 41 45 47 49 46 52 53 59 58 58 58 59 70 64 69 70 63 53 41 29
24 46 64 73 75 72 66 75 74 73 68 64 60 55 53 45 46 43 38 30 22 19 14 10 8 4 6 8 14 18 24 31 36 40 43 46 47 51 51 53 55 53 59 61 61 66 70 75 80 76 64 66 57 52
29 55 69 68 73 74 75 75 74 68 65 66 61 54 51 44 48 44 35 26 22 20 15 11 11 7 7 9 14 17 23 29 34 38 43 47 50 53 56 58 57 63 62 70 62 72 74 77 83 78 77 68 69 54
39 54 63 67 75 72 77 77 71 65 65 64 59 53 50 48 47 36 37 29 26 22 16 13 12 7 8 12 15 20 23 26 32 39 43 46 51 56 60 62 63 68 68 69 71 79 79 84 92 90 95 101 93 80
44 53 64 68 68 75 79 74 69 64 65 60 59 54 48 48 46 46 37 30 24 22 17 14 14 11 9 12 18 21 24 28 34 38 43 47 52 57 62 64 67 70 72 78 84 86 88 88 96 94 97 103 95 88
53 63 60 70 76 78 75 69 68 65 60 56 53 49 47 47 44 43 34 31 25 22 19 16 17 16 14 17 20 22 26 29 34 39 42 47 53 59 64 67 71 72 77 81 82 88 89 94 100 96 99 101 105 93
65 67 65 77 78 74 73 69 67 64 60 55 51 47 46 47 44 39 36 32 25 23 20 18 17 17 15 17 22 25 28 30 35 40 44 50 54 61 67 71 71 75 80 82 85 88 93 101 106 101 106 102 106 100
63 65 77 75 79 80 75 71 64 62 60 54 51 47 45 43 42 40 36 33 28 24 21 19 19 17 17 21 23 27 31 33 37 41 47 52 56 62 67 72 76 78 80 84 89 89 98 101 108 108 109 105 105 103
68 63 81 74 76 79 75 70 63 61 52 50 51 50 47 45 43 39 34 31 27 25 24 20 20 19 20 23 27 31 34 38 40 45 50 56 60 64 69 73 78 82 84 87 92 95 100 105 110 113 114 105 105 98
70 62 79 79 79 75 73 66 64 63 58 55 51 46 46 46 43 39 36 31 32 29 24 22 25 20 20 27 31 35 39 41 44 48 53 58 61 65 71 75 80 84 87 89 92 99 102 107 108 112 110 104 107 94
70 70 80 81 81 76 72 70 67 65 60 55 51 43 41 40 40 38 34 34 34 29 24 27 26 22 23 30 35 39 43 45 48 52 56 60 63 69 75 78 81 86 89 93 95 101 105 110 109 112 109 104 102 86
70 76 81 79 78 76 72 71 66 61 55 54 49 45 39 40 41 41 39 36 31 28 26 27 27 25 28 33 39 42 46 48 52 56 59 63 67 72 76 80 83 88 92 96 101 107 108 111 118 113 108 108 94 77
71 79 80 78 82 75 73 74 65 59 56 55 46 42 44 43 40 40 37 32 31 29 30 31 29 31 33 36 41 44 49 51 55 57 61 66 71 74 77 82 87 91 95 101 105 108 111 117 118 118 109 107 89 76
82 84 86 84 83 78 75 71 63 60 58 57 51 50 45 41 39 38 34 33 32 33 33 35 36 38 38 40 45 48 49 52 55 58 63 68 73 76 80 86 91 94 98 104 108 111 117 116 121 121 106 102 84 74
79 83 82 83 83 80 74 69 65 60 57 53 54 51 45 43 38 37 37 35 34 34 36 39 41 40 40 45 48 49 51 54 59 61 66 70 74 78 84 90 95 98 102 107 113 114 119 119 119 111 104 92 78 71
84 86 81 85 82 77 72 68 63 57 54 53 53 43 39 40 39 38 37 37 38 39 39 40 40 41 44 47 50 52 55 58 61 65 70 72 78 81 87 94 98 100 106 111 114 119 124 121 115 109 98 82 73 67
81 81 82 83 79 78 75 71 67 58 51 50 46 41 42 39 38 38 39 40 41 39 41 42 42 43 47 50 54 55 59 61 64 69 72 76 81 85 90 96 100 104 110 112 118 123 124 120 111 104 89 77 68 64
84 87 88 84 80 77 75 66 60 55 52 48 44 40 40 41 41 41 41 41 41 43 41 42 43 47 51 54 56 59 61 65 69 72 76 82 85 90 95 99 103 108 112 116 118 124 117 117 106 96 84 74 67 62
95 93 90 86 78 72 71 59 59 61 56 51 47 43 43 42 42 42 42 44 44 43 42 43 47 51 55 58 60 62 67 71 72 77 84 87 90 96 99 102 107 113 114 117 116 123 116 105 96 85 78 72 66 59
92 91 88 81 76 74 69 66 63 55 53 51 49 47 47 46 46 47 48 45 45 44 46 49 52 55 59 60 63 66 70 74 77 82 86 90 95 100 104 107 113 111 119 114 123 123 113 97 88 78 73 68 63 56
93 88 83 80 75 70 70 70 63 57 52 49 49 52 50 49 49 48 48 45 45 47 50 53 56 59 62 65 68 71 75 80 82 86 89 94 98 104 106 110 110 112 115 119 126 116 97 90 80 73 68 64 58 54
92 85 81 78 73 69 67 63 59 56 53 51 54 56 54 54 54 55 54 50 48 52 56 57 60 63 65 68 71 75 80 83 88 90 93 99 102 107 110 111 114 117 114 119 114 99 92 81 74 67 63 60 54 51
88 85 81 73 69 65 61 56 54 56 56 57 61 62 60 60 60 61 58 54 54 55 59 61 64 66 70 73 74 79 84 88 91 95 99 101 105 109 112 114 115 117 119 118 108 93 87 75 69 64 60 56 52 49
88 82 76 72 67 61 56 56 57 57 57 58 68 68 66 65 65 65 64 63 60 59 61 64 67 72 74 74 79 84 88 91 95 100 104 105 106 107 112 118 121 119 118 111 92 85 74 68 64 60 56 53 49 46
86 78 72 66 62 62 62 61 61 61 63 69 72 70 68 67 66 68 68 65 62 63 64 66 70 74 78 82 85 89 92 97 101 104 105 106 105 112 116 117 114 118 105 95 83 74 68 64 60 58 54 50 46 44
74 73 69 68 66 66 64 62 62 65 70 72 71 69 68 67 68 69 67 66 65 64 67 70 75 80 84 86 90 93 97 102 104 105 105 105 110 116 108 113 114 103 93 85 77 69 63 60 56 54 51 48 45 43
72 70 69 67 66 65 63 62 64 70 77 77 73 71 71 70 69 68 66 66 70 72 74 77 81 85 87 91 94 98 102 104 108 108 112 115 118 115 112 119 117 100 90 79 69 63 59 58 56 50 46 45 43 41
73 71 69 69 67 65 65 69 73 79 82 76 74 72 70 70 69 70 71 72 74 75 77 82 87 89 93 96 99 102 105 106 107 110 114 117 118 116 121 123 105 94 82 72 65 59 56 54 52 51 48 44 42 40
72 70 69 69 70 71 74 79 81 82 80 78 75 74 72 72 72 72 72 73 75 78 85 88 91 94 96 100 104 106 108 107 107 112 115 117 116 119 121 106 95 85 73 67 60 56 53 51 50 48 45 42 39 37
71 72 72 74 78 80 82 82 84 82 79 77 75 74 75 76 76 75 75 78 84 89 90 93 95 99 102 105 107 108 108 109 114 113 115 116 119 118 106 94 84 73 66 60 56 53 51 49 47 44 41 40 38 34
74 76 80 83 84 85 86 84 82 80 79 79 79 80 80 80 80 82 85 89 92 94 96 97 101 103 104 105 106 108 110 112 112 114 118 119 113 105 95 83 73 67 60 55 52 51 49 47 44 41 40 37 34 32

GFSWCAN_250_spd_069.txt.gz
Wind_Speed
24 11 4 15 39 55 59 62 55 55 51 52 59 63 57 52 52 49 45 38 29 22 21 19 13 11 12 9 16 21 27 31 34 38 41 44 45 43 42 46 45 45 47 47 55 51 58 59 54 48 43 45 48 41
18 6 10 27 43 61 66 65 60 66 54 59 63 61 58 52 50 49 44 36 30 24 21 19 11 7 8 7 10 17 21 26 29 35 40 43 47 48 46 43 49 47 53 48 52 55 61 58 61 64 55 48 47 48
16 2 18 40 49 68 69 66 61 55 58 63 57 56 54 52 51 48 40 35 27 23 21 18 9 5 3 4 8 13 17 21 26 29 33 38 41 45 49 52 52 51 56 53 53 54 64 64 68 71 69 61 60 55
11 5 19 39 53 64 69 65 61 57 64 62 56 53 55 52 51 45 40 35 27 22 18 16 9 5 1 2 8 12 17 21 26 29 32 36 40 42 46 49 55 57 58 58 59 65 67 67 74 74 84 74 74 70
6 12 22 38 50 65 67 65 63 65 65 62 56 55 55 48 51 45 38 32 23 23 19 14 10 6 3 4 7 11 16 21 24 27 32 35 39 43 46 49 53 56 60 65 65 66 67 73 78 82 84 86 88 84
7 17 32 42 55 62 63 65 61 63 64 59 58 55 57 50 49 45 38 33 25 22 18 14 11 8 6 6 9 13 16 19 24 27 31 36 39 43 48 50 53 57 60 64 67 70 74 78 80 87 90 94 93 98
11 26 39 49 60 63 63 67 62 67 62 58 57 56 52 53 54 47 41 34 27 23 20 14 11 10 8 9 12 16 17 19 25 29 33 37 40 44 48 52 55 59 64 67 71 73 77 82 84 89 94 101 97 97
19 33 42 56 61 66 64 65 67 64 58 57 57 54 51 53 51 47 39 32 24 21 21 15 11 9 11 13 16 18 21 23 26 30 35 38 43 47 50 53 57 62 66 69 70 76 83 85 90 93 95 99 104 104
23 34 44 58 61 67 64 62 68 65 60 58 53 52 51 46 53 52 37 33 27 24 23 19 15 11 13 15 16 18 24 24 28 31 35 40 44 49 53 56 59 65 67 72 76 80 85 88 91 94 101 106 103 102
26 38 48 62 62 68 68 68 69 65 61 59 55 51 48 49 50 47 42 36 29 28 24 22 17 14 15 18 18 20 25 29 31 34 40 44 48 53 56 60 62 67 71 76 79 84 86 93 96 97 103 105 113 108
30 41 50 62 59 65 69 68 66 62 60 58 56 55 49 46 48 44 45 40 32 28 27 24 19 16 18 21 22 22 26 31 34 37 42 47 52 54 59 63 66 70 73 77 81 84 91 96 100 103 106 109 114 106
34 44 52 55 69 66 65 70 64 63 63 60 56 55 50 47 47 45 44 39 35 34 31 27 20 18 22 25 27 26 29 33 37 41 45 50 54 57 62 65 70 73 76 80 85 89 93 98 100 103 111 117 111 106
39 51 56 59 63 69 68 72 70 65 64 58 56 50 47 44 41 42 40 38 36 38 34 27 22 25 25 28 32 32 33 36 40 44 48 53 57 59 64 67 72 76 78 83 86 91 94 101 103 107 115 113 104 103
45 56 60 61 68 73 74 74 70 67 62 55 53 52 47 46 44 44 44 42 41 38 34 30 27 27 28 29 30 32 36 40 44 47 51 55 59 62 67 68 74 78 82 85 88 94 99 103 107 113 117 110 105 103
50 60 64 66 72 79 77 76 70 65 62 58 55 51 49 47 47 46 43 42 41 40 34 31 31 30 29 32 34 37 40 44 46 48 51 56 61 65 68 72 75 80 84 89 94 99 102 105 107 121 116 110 107 103
54 64 65 68 78 81 81 74 68 63 60 58 54 53 50 51 48 46 45 42 41 35 32 30 29 31 31 35 39 41 43 46 48 50 53 58 63 67 70 75 80 85 89 93 97 101 104 107 114 114 115 111 109 99
58 67 65 73 81 85 81 76 71 65 62 59 58 57 52 47 45 43 43 40 35 36 36 33 32 33 35 38 40 43 47 49 51 53 57 61 66 70 74 78 84 88 93 96 101 106 105 108 117 112 111 111 103 93
65 70 72 81 77 82 81 77 74 67 65 62 60 58 51 47 41 37 36 36 36 37 37 35 35 35 38 41 45 47 50 52 54 56 61 65 70 73 78 82 87 91 95 100 103 105 106 113 119 111 110 106 96 85
68 73 74 81 76 84 80 77 73 70 67 63 61 58 57 51 44 42 39 38 34 33 37 40 38 39 41 44 47 50 53 55 56 59 65 70 74 77 81 86 93 95 99 105 107 106 113 117 118 110 107 99 88 78
71 79 78 87 85 90 82 80 76 71 68 64 60 56 51 46 43 39 38 36 35 38 42 43 41 42 43 47 50 53 56 58 59 64 68 73 78 81 86 91 94 98 103 107 110 110 115 115 113 110 105 93 81 74
79 81 84 91 92 89 80 79 77 73 70 63 59 56 51 44 36 35 35 33 36 37 40 42 44 45 48 52 53 56 59 60 62 67 72 76 81 86 88 95 96 103 108 106 111 113 118 114 108 106 96 86 76 71
84 81 81 91 95 85 83 82 78 74 71 68 63 58 52 45 40 35 32 32 34 37 37 40 46 51 53 55 56 59 61 63 65 71 77 81 85 90 94 96 100 108 109 110 114 117 115 112 104 97 87 78 73 69
81 83 87 93 91 82 87 84 79 75 72 66 61 55 50 44 44 39 40 38 37 38 42 46 50 54 55 56 59 63 64 65 68 75 80 84 90 93 98 99 105 110 110 114 117 119 111 105 100 89 80 73 70 66
86 87 89 92 89 79 82 78 76 75 69 62 58 56 54 51 48 45 44 42 43 45 48 51 53 54 55 55 59 64 66 69 73 78 82 88 93 96 99 105 109 108 109 115 119 115 107 104 93 82 75 69 67 64
90 92 90 90 82 78 79 77 74 67 59 59 58 56 55 55 51 47 47 47 49 52 53 55 55 56 57 59 64 67 70 74 78 81 85 90 93 99 104 110 107 110 113 116 119 115 108 101 86 76 71 67 64 60
82 80 84 90 83 74 72 70 67 63 61 59 57 58 61 58 55 56 57 54 54 56 56 57 59 59 60 61 65 71 75 78 81 85 89 93 98 102 108 109 113 111 113 117 117 108 102 91 79 73 67 65 60 57
81 80 84 93 91 81 73 70 66 61 58 53 55 62 63 63 62 60 60 60 59 58 59 59 59 60 60 65 71 75 78 81 84 89 93 97 100 106 107 109 108 112 114 118 108 101 92 82 75 68 64 62 57 55
81 85 89 87 83 76 71 66 60 56 56 59 63 70 68 63 62 62 62 63 62 62 61 59 60 62 65 69 74 78 81 85 90 92 97 100 103 107 110 106 110 113 117 110 102 93 83 76 70 64 61 59 55 51
83 88 90 84 78 72 68 63 60 60 65 72 73 69 65 64 62 61 62 62 62 60 59 60 62 65 69 75 79 83 86 90 94 97 102 104 106 110 107 108 115 116 112 102 93 83 77 72 66 62 58 55 52 47
82 86 84 78 74 69 65 64 66 70 76 70 66 64 63 62 61 59 58 60 60 60 59 62 66 73 78 81 85 89 92 94 97 102 104 107 111 107 108 114 116 113 106 95 86 77 72 66 61 58 56 52 50 48
83 81 79 76 72 68 68 69 72 75 72 67 65 66 65 63 61 61 63 62 62 63 67 71 76 80 85 88 91 93 96 99 102 104 106 108 106 110 111 114 115 104 95 87 78 72 67 61 57 55 52 50 48 46
80 79 79 76 75 72 71 70 72 74 71 70 69 67 65 65 66 67 68 68 69 71 74 79 83 86 89 92 94 96 99 101 107 107 105 104 109 110 116 115 106 96 87 77 71 67 62 57 55 52 48 47 46 45
79 78 77 76 77 77 78 78 77 75 72 69 67 65 66 68 69 71 71 72 75 79 82 85 88 91 94 96 98 100 101 106 103 101 105 107 111 115 110 101 94 87 78 70 66 62 58 55 53 49 47 46 44 42

GFSWCAN_250_spd_072.txt.gz
Wind_Speed
52 36 21 10 10 20 35 35 36 36 35 33 50 61 61 56 53 48 42 39 37 33 26 21 20 22 23 22 24 27 30 32 33 36 37 40 39 39 43 42 46 47 47 47 50 51 56 55 58 57 58 58 53 52
47 31 15 4 11 21 34 38 46 43 38 45 57 60 57 55 51 46 40 36 34 30 25 22 19 17 16 15 17 20 23 24 27 30 31 34 36 39 41 40 41 46 45 47 51 52 54 56 59 62 64 66 68 64
42 27 12 4 9 16 36 41 45 45 50 56 59 58 57 53 49 45 35 31 31 30 27 20 17 13 11 11 13 15 19 22 25 28 30 33 36 40 41 42 43 46 49 50 52 53 57 58 63 68 69 69 69 76
43 25 9 8 11 24 31 29 38 47 50 56 56 55 56 53 46 40 32 27 28 27 22 17 15 12 9 8 9 13 16 19 23 26 30 34 36 38 41 43 44 48 50 51 53 56 57 63 66 69 72 72 76 80
46 25 7 11 21 17 24 39 43 48 52 57 55 53 52 51 46 38 32 26 24 25 20 16 12 10 7 4 6 11 14 16 20 24 27 30 33 36 40 42 45 48 52 54 57 60 64 66 69 71 73 78 77 85
44 25 7 16 33 29 39 45 44 51 54 53 53 48 50 49 44 38 32 27 23 24 20 14 10 7 5 1 4 8 13 15 18 22 26 29 33 36 39 44 47 49 52 57 60 65 66 68 70 74 77 80 84 85
45 25 9 18 36 32 44 48 49 54 53 51 49 47 51 51 45 40 33 27 21 20 17 16 12 7 5 2 5 9 13 15 17 21 25 30 32 37 41 44 47 51 53 59 63 64 67 68 70 77 81 84 83 87
56 28 15 19 37 45 42 50 54 54 56 52 50 51 50 49 44 37 31 25 21 19 18 14 12 9 7 7 7 11 14 16 18 22 26 29 34 37 42 46 49 53 58 60 64 66 70 72 76 81 83 88 90 95
65 32 23 21 31 43 51 51 53 56 56 54 50 53 51 48 46 38 34 27 24 20 21 20 16 12 8 10 10 14 17 18 22 24 29 31 35 40 44 48 51 56 59 61 66 69 76 76 82 83 88 91 95 100
70 41 23 25 31 43 47 57 57 59 58 54 51 56 52 48 42 44 37 29 27 22 20 22 21 16 13 12 13 17 21 23 26 29 34 36 40 44 48 50 54 57 61 65 70 75 78 80 85 88 91 95 101 102
66 57 27 27 35 40 52 58 60 61 59 54 54 55 54 52 44 47 40 34 30 26 23 24 23 24 21 15 16 20 23 26 32 33 36 39 42 45 47 51 55 60 64 68 73 76 81 84 88 92 96 100 108 105
73 58 30 30 39 44 55 63 64 60 60 59 57 53 50 48 44 50 43 41 32 30 25 29 31 28 25 22 21 23 27 29 33 34 36 41 45 48 51 53 58 62 66 72 77 80 84 87 93 96 99 104 111 112
51 69 30 32 43 52 60 59 65 61 62 62 56 52 48 45 47 42 43 47 39 39 33 31 33 31 29 29 25 26 29 32 34 36 40 43 47 50 53 56 60 64 69 74 79 81 86 91 96 101 102 106 112 114
49 58 30 30 44 51 56 56 66 70 65 62 59 55 49 43 42 44 46 50 45 46 42 38 36 36 35 32 31 31 34 36 39 39 41 43 47 51 55 59 63 67 72 76 83 85 87 95 101 104 108 112 113 114
55 53 34 33 46 54 57 54 69 71 66 66 63 56 50 47 47 47 46 49 48 45 44 46 43 40 38 36 35 36 40 42 41 39 42 46 49 54 59 63 67 72 77 80 86 88 93 99 102 108 111 119 116 117
58 39 33 36 48 59 59 56 67 71 69 67 62 56 53 54 52 50 49 48 47 48 47 45 42 42 40 36 37 37 39 41 41 41 44 47 52 57 63 67 71 75 81 83 90 91 96 102 106 111 117 119 120 119
62 34 33 38 47 60 63 58 64 71 69 65 62 59 56 57 55 50 47 46 44 43 45 45 44 42 41 39 40 42 44 44 45 45 47 52 57 63 67 72 75 78 84 87 92 95 103 106 108 112 119 116 116 119
66 36 37 40 51 64 66 59 63 68 64 67 65 62 60 57 53 51 48 47 46 45 44 45 43 41 42 40 42 45 47 50 50 49 52 57 61 65 71 75 77 81 86 90 94 100 105 109 110 115 113 113 117 114
65 39 40 45 51 63 65 62 60 68 69 72 70 65 63 59 56 53 48 45 43 43 40 39 39 38 37 39 39 43 48 52 53 54 57 61 64 69 73 76 79 84 87 94 97 102 110 111 113 112 110 114 115 108
53 41 44 50 59 71 76 69 66 73 77 75 71 67 64 59 56 52 50 49 46 40 39 39 39 39 38 38 39 44 49 51 55 57 59 64 67 70 74 77 81 87 90 96 100 105 111 108 118 115 114 115 111 100
47 45 50 56 63 71 73 72 71 73 79 77 72 69 65 60 56 53 50 49 46 41 39 37 35 35 34 37 42 44 48 52 56 58 61 65 67 71 75 79 84 88 93 98 102 109 108 109 115 112 113 114 105 93
49 51 53 57 65 73 75 75 74 77 83 79 75 71 68 62 57 53 51 49 46 43 36 35 36 37 37 40 43 48 52 55 59 61 64 66 69 72 76 80 86 92 95 100 105 109 106 112 110 112 114 111 98 88
55 58 56 60 67 75 76 77 77 82 84 83 79 76 68 62 58 56 53 51 48 43 39 37 40 43 44 43 46 49 55 60 61 65 66 68 70 75 78 84 89 95 99 103 109 107 110 108 108 109 111 106 92 82
59 57 56 62 69 76 79 79 78 82 86 86 81 73 69 65 61 57 55 53 48 45 42 43 46 48 48 47 49 53 57 61 65 66 67 69 74 78 83 87 93 97 102 108 106 104 109 106 107 108 109 98 85 76
57 55 57 63 70 77 80 81 81 83 86 84 78 74 71 67 60 60 60 56 52 45 44 46 48 50 51 52 54 57 62 63 66 66 68 73 78 83 87 91 96 100 105 108 104 108 107 108 107 108 102 90 80 71
51 49 55 61 68 77 81 81 82 83 84 82 78 76 73 66 63 58 60 56 50 48 48 50 53 55 57 60 59 62 63 68 66 68 72 77 83 86 90 95 98 103 107 105 105 113 107 108 105 104 91 81 75 67
44 50 57 64 70 76 80 84 89 87 83 81 77 74 71 65 57 59 58 52 51 51 52 56 58 59 61 61 61 63 69 69 69 72 76 81 85 90 93 99 101 107 106 107 107 105 104 104 103 94 82 74 68 65
46 58 65 71 75 81 86 88 91 89 81 79 79 77 70 63 58 62 57 52 52 53 57 58 59 61 61 61 62 66 69 70 72 75 80 84 90 94 98 101 108 108 107 99 106 102 103 102 96 83 75 70 65 62
58 67 76 80 83 84 83 85 85 84 79 78 77 70 65 65 67 64 56 54 57 59 56 57 58 59 61 62 66 70 72 74 77 79 85 89 94 97 99 105 107 107 98 103 101 101 99 96 84 76 71 67 64 62
63 72 79 82 82 82 87 91 88 84 84 84 80 78 75 71 64 58 57 58 58 56 56 57 57 59 61 67 71 73 75 79 81 86 90 95 95 100 103 108 104 101 97 105 98 98 94 86 76 70 65 62 61 59
64 71 78 82 82 87 92 94 92 90 85 84 78 72 65 61 58 58 58 56 54 55 55 56 59 63 66 70 73 77 80 84 87 91 94 97 99 102 109 104 98 99 102 103 96 93 88 78 71 66 63 60 59 57
61 70 78 81 85 88 89 89 90 90 89 82 74 66 61 60 61 58 55 55 56 56 58 61 65 68 72 75 79 83 86 89 92 94 96 99 103 108 106 95 102 100 100 100 93 88 79 72 68 63 59 58 56 52
67 74 79 81 82 81 80 83 86 85 81 73 65 61 61 60 58 57 60 60 60 60 63 67 71 73 76 81 84 87 90 92 96 97 100 102 107 107 97 99 99 101 96 93 87 79 72 68 63 59 57 56 53 49

GFSWCAN_250_spd_078.txt.gz
Wind_Speed
103 99 95 51 30 32 12 9 1 8 20 26 30 32 37 39 41 43 42 42 42 43 43 41 39 38 39 39 38 40 41 41 40 39 39 37 38 37 39 39 38 38 39 38 38 40 39 37 38 40 41 42 44 46
97 95 100 66 31 27 12 0 8 12 16 24 23 28 33 35 36 38 39 40 40 40 38 34 33 33 32 33 33 34 34 35 33 33 33 34 34 34 34 35 35 37 37 36 37 39 39 39 40 42 44 46 48 51
93 98 92 82 31 22 18 3 6 19 19 21 19 22 27 31 30 30 34 35 34 31 30 28 26 25 26 25 26 26 28 28 29 29 29 28 29 31 31 33 34 35 36 36 37 39 41 43 45 46 48 49 52 56
87 91 83 76 37 15 11 6 8 21 23 19 17 17 21 24 25 25 27 28 27 25 22 20 19 18 19 20 20 20 21 22 23 24 25 26 28 29 29 29 31 32 33 35 39 40 43 45 47 50 50 53 55 59
82 84 80 82 62 20 11 5 13 21 23 20 19 16 16 21 21 22 21 20 20 18 16 14 11 12 13 14 14 14 14 15 18 20 21 23 24 26 27 27 28 29 31 33 36 40 43 46 47 51 54 55 60 61
80 82 81 78 68 53 11 7 13 21 26 25 22 21 18 17 17 16 16 15 13 13 11 10 8 7 6 7 8 10 10 12 14 16 17 19 23 24 26 29 28 28 31 32 37 41 45 48 51 54 57 59 63 68
77 72 71 73 71 66 37 10 12 22 27 29 28 25 23 19 15 14 15 14 11 9 7 5 3 2 1 3 6 7 10 12 15 15 17 19 21 25 26 30 31 30 32 36 38 42 47 52 56 58 59 63 68 70
75 81 62 61 70 64 54 14 13 18 28 34 34 32 30 27 21 18 17 15 13 11 8 7 7 7 6 6 8 10 11 13 15 17 20 24 26 29 30 34 36 37 36 39 42 45 50 55 59 60 63 68 73 76
71 72 72 60 61 60 47 38 18 23 26 39 42 40 36 35 29 25 22 19 16 13 13 14 14 14 14 12 14 15 15 17 22 24 27 30 33 35 35 37 41 40 42 44 46 50 54 58 61 63 68 73 79 82
71 65 61 54 54 55 52 46 27 27 31 38 45 46 45 42 41 36 31 26 21 19 17 18 19 20 20 20 20 22 22 23 25 29 30 33 36 38 40 41 40 42 43 46 49 53 57 61 65 67 71 76 82 85
62 65 76 57 55 53 60 57 51 28 33 35 44 53 50 48 45 43 39 34 30 29 24 22 24 24 23 23 26 25 26 25 27 30 33 36 39 41 42 43 44 46 47 49 53 56 60 65 68 71 75 82 88 91
66 71 73 70 65 65 59 68 56 47 25 34 39 49 53 51 51 45 43 42 40 38 36 33 30 30 29 32 30 29 29 29 32 32 35 41 41 44 46 49 51 51 51 52 55 59 64 68 71 75 79 85 93 96
69 73 75 72 64 63 70 51 47 56 44 22 38 45 56 55 50 52 52 51 49 48 41 39 36 33 34 37 38 39 39 39 38 38 38 42 42 45 48 49 51 54 53 57 59 62 67 71 72 78 83 89 93 102
73 77 76 80 86 73 60 39 53 57 56 50 36 41 54 59 56 58 60 56 55 52 49 47 42 42 42 41 42 45 44 44 43 44 45 47 47 49 45 49 52 54 55 59 62 65 69 74 76 80 87 93 97 103
75 76 84 87 88 75 62 55 61 52 56 51 45 39 49 59 64 65 65 63 61 57 52 49 46 46 45 43 46 47 43 45 48 49 50 51 48 47 46 49 50 54 57 59 63 67 72 75 80 86 91 97 100 107
81 81 90 91 91 87 72 73 68 58 46 50 46 36 47 59 69 72 69 66 67 64 61 57 52 48 48 46 46 48 48 50 47 47 47 47 44 44 46 49 52 55 57 61 65 70 73 76 81 88 95 99 105 107
93 92 92 96 79 87 82 81 47 52 63 59 56 33 45 61 69 77 76 69 68 69 66 61 57 54 50 49 53 55 53 49 49 49 49 44 47 46 51 51 53 56 59 62 67 71 73 77 85 90 95 102 106 110
96 94 92 86 92 105 97 63 71 51 58 62 56 47 40 55 67 73 77 77 72 68 67 65 62 56 53 51 57 55 49 48 46 47 47 46 47 50 51 52 56 58 60 64 69 72 75 80 87 93 97 104 107 110
99 100 99 102 98 96 63 62 68 62 59 61 62 60 54 46 64 74 73 74 76 74 67 66 64 60 62 61 60 57 50 45 44 47 45 47 49 53 51 55 59 59 62 67 71 72 77 83 90 94 100 103 106 113
106 109 107 104 85 78 69 69 68 64 72 65 71 64 58 50 53 73 76 71 73 74 68 60 63 64 62 62 59 52 47 47 48 48 48 53 54 52 54 59 60 61 63 68 71 74 81 87 91 97 102 102 107 114
110 114 114 100 91 71 52 56 55 60 47 54 68 68 60 56 55 61 77 74 69 69 70 67 68 65 60 58 53 46 48 48 49 51 53 56 56 55 58 59 62 65 66 70 72 75 82 89 95 98 104 106 108 115
113 123 118 95 79 76 45 53 48 50 60 65 71 70 61 55 56 60 71 75 67 74 75 76 67 64 60 58 54 51 50 50 52 53 51 52 51 55 58 59 65 69 69 72 73 78 84 91 96 101 104 108 110 114
111 102 98 91 70 51 43 48 48 53 61 69 71 65 58 56 57 61 64 69 72 76 79 78 69 65 64 61 59 55 53 53 52 52 53 53 56 60 61 63 69 70 71 74 76 80 85 93 99 105 104 105 111 114
97 99 97 80 60 49 50 54 57 56 62 75 70 65 60 59 56 62 58 68 80 78 77 77 75 66 63 62 60 58 57 56 56 57 57 58 61 62 62 66 68 69 73 75 79 83 87 93 99 104 106 104 111 112
98 94 79 61 55 56 59 61 65 64 64 67 65 60 60 58 58 59 55 71 82 82 79 76 75 70 65 62 60 62 60 58 57 57 57 57 61 62 65 67 68 72 75 77 80 86 90 97 101 104 104 108 110 113
84 71 60 62 70 70 67 71 69 67 66 64 60 57 56 54 57 52 56 73 83 85 81 78 78 74 70 66 64 63 62 60 57 58 57 60 61 64 64 66 69 74 76 79 82 88 93 99 102 104 103 109 109 110
65 64 65 67 71 71 70 70 70 66 59 56 56 53 50 49 50 52 61 76 84 86 85 80 78 75 72 69 65 61 61 60 60 60 60 62 63 64 63 68 71 75 77 81 86 91 98 101 103 105 106 108 109 107
61 62 63 65 68 72 74 70 63 61 58 56 54 49 50 50 54 57 67 81 85 87 84 79 77 73 71 70 62 60 63 63 62 62 63 63 66 63 64 69 73 77 80 83 88 94 99 101 104 104 108 107 107 102
61 64 67 66 69 71 70 63 62 63 61 55 53 52 54 57 61 63 73 83 87 86 82 78 74 72 69 66 66 64 64 63 63 64 65 65 65 64 66 70 75 78 81 86 90 96 98 101 104 105 106 106 102 100
63 63 65 68 71 71 68 65 61 59 54 54 54 55 59 61 63 66 73 86 88 85 83 81 75 70 67 66 64 64 65 65 67 66 67 66 62 64 67 72 76 80 83 88 94 96 99 104 103 105 104 102 100 94
60 63 66 69 69 68 66 61 55 53 53 55 55 57 60 63 65 68 75 84 88 84 80 77 71 69 68 67 66 64 65 69 69 68 66 65 62 65 70 74 77 82 85 89 93 98 101 102 104 102 102 98 93 84
60 61 66 65 64 62 58 53 51 50 50 49 50 55 60 62 66 68 74 81 83 79 76 72 68 70 68 62 62 65 69 70 68 66 67 64 66 70 73 75 80 84 87 90 94 99 100 102 102 100 98 94 86 76
61 63 59 56 53 49 46 45 44 45 46 48 52 57 60 63 65 67 72 76 77 75 72 67 64 59 57 58 66 68 67 66 66 66 66 66 67 71 75 79 83 85 88 91 97 99 99 100 99 97 94 87 77 70

GFSWCAN_250_spd_081.txt.gz
Wind_Speed
85 84 82 78 68 36 28 21 11 16 16 17 18 22 25 31 34 35 35 36 38 37 37 38 38 38 40 40 40 41 40 42 41 40 39 39 38 37 37 36 34 33 32 32 32 30 30 33 32 33 32 35 37 37
78 86 75 81 77 53 29 13 16 10 12 12 13 13 15 21 27 29 31 29 29 28 30 31 31 32 32 32 33 34 34 35 35 34 33 33 31 30 30 30 30 29 29 29 29 29 30 30 32 33 34 34 38 41
74 81 84 84 78 66 35 20 14 0 5 7 6 7 9 11 17 19 21 21 22 23 21 21 22 22 23 25 26 27 28 28 29 28 28 27 26 25 25 25 24 24 25 26 27 29 30 31 34 35 35 36 42 48
69 76 79 75 62 64 47 18 14 8 4 1 1 1 3 4 7 11 11 12 12 12 15 15 14 15 15 15 17 20 19 19 19 20 21 22 22 24 24 22 20 21 23 23 25 28 31 34 36 38 39 39 43 49
69 72 73 67 66 60 62 39 14 11 12 9 6 6 7 5 4 7 7 5 3 2 5 6 9 9 9 10 10 11 10 11 14 15 18 21 24 24 25 27 27 25 23 24 26 29 31 35 38 41 43 44 50 53
67 70 73 68 62 51 59 59 33 15 19 20 17 12 11 12 10 10 10 8 6 4 2 3 3 3 3 4 7 7 10 12 14 16 19 22 24 25 26 27 28 29 29 29 31 32 35 37 39 43 46 50 53 57
64 70 66 66 62 44 63 56 54 41 21 25 27 23 20 18 19 16 16 14 12 8 8 8 8 9 9 10 11 11 13 16 18 20 20 22 24 27 29 29 29 32 33 35 38 38 40 42 43 47 50 53 57 60
64 65 64 69 57 60 47 59 51 56 36 25 29 34 29 25 24 24 22 20 20 15 12 14 15 15 16 17 17 16 16 18 18 19 22 24 25 29 31 32 32 35 38 40 41 41 42 45 48 50 55 58 62 65
63 61 62 66 59 55 49 58 37 40 50 35 29 33 40 38 33 29 28 27 26 24 21 18 19 21 22 21 22 24 24 22 21 21 22 24 27 31 33 36 37 39 41 42 44 45 46 48 51 53 60 63 67 70
59 61 62 65 63 63 58 41 48 39 53 46 37 34 40 47 42 40 35 32 31 31 32 28 25 24 24 25 24 25 27 24 23 23 24 28 30 31 34 37 40 43 44 47 47 48 50 52 55 58 63 67 71 74
69 67 70 64 71 65 60 37 44 42 40 59 45 27 32 41 48 47 46 44 41 40 37 35 35 32 30 30 30 32 32 31 29 28 30 31 36 36 39 42 44 42 44 49 50 54 55 56 58 63 66 70 73 78
74 71 64 67 70 68 64 52 51 49 42 54 37 40 28 25 42 51 54 53 54 51 48 44 42 41 38 36 34 36 37 36 38 36 37 38 39 42 44 45 47 44 46 49 52 56 58 59 61 65 70 72 76 82
76 76 70 64 69 78 67 69 55 54 49 48 37 52 39 37 27 40 57 63 61 58 57 57 53 50 46 45 43 42 41 41 42 43 41 39 41 45 45 44 45 45 47 53 56 58 58 62 65 69 72 75 79 86
79 78 73 76 73 77 66 60 61 59 55 58 44 51 45 35 39 37 48 61 68 66 64 60 59 59 55 53 50 50 47 46 47 49 44 39 44 45 47 49 48 49 54 56 57 59 62 63 66 72 74 78 82 88
75 76 78 80 74 84 77 65 63 59 61 62 52 48 36 46 42 43 44 46 63 70 69 69 66 62 61 60 58 56 53 49 50 54 50 43 45 51 52 52 52 50 54 58 57 60 63 64 69 74 77 80 85 91
84 79 81 82 84 84 77 65 66 62 63 66 64 32 42 30 48 40 49 45 45 61 70 72 72 71 66 62 61 60 57 53 55 55 52 49 51 54 54 54 52 51 55 58 59 64 66 67 72 77 81 84 89 94
86 82 83 83 85 84 77 70 66 59 61 69 77 54 43 47 54 43 52 48 47 43 59 70 75 75 70 65 64 64 64 60 58 56 56 54 52 54 57 54 52 53 58 64 65 64 68 69 75 78 83 86 91 97
85 87 85 87 86 89 82 73 64 65 61 72 70 79 60 70 46 48 65 53 48 44 45 56 72 73 73 70 71 72 70 67 65 61 61 60 55 58 63 62 55 56 59 66 65 65 71 73 76 80 85 88 92 99
88 86 90 87 86 84 77 72 62 65 68 72 76 81 83 75 63 61 61 53 49 45 44 44 52 73 76 77 78 77 73 70 68 67 64 61 60 63 65 62 57 58 61 67 63 66 71 76 78 82 86 89 94 100
87 88 94 89 87 86 82 77 79 69 69 69 79 79 86 84 66 63 69 66 49 43 44 40 43 73 84 83 81 79 78 75 71 69 68 68 67 67 65 60 58 59 62 65 66 68 72 76 80 84 88 90 96 102
91 96 95 92 92 91 81 76 81 73 75 72 84 87 85 74 66 63 63 65 55 49 47 46 50 58 80 87 86 82 78 75 71 71 69 68 65 60 59 58 59 61 64 68 70 71 73 77 82 85 90 93 98 105
86 93 99 96 99 94 83 77 83 79 78 78 83 91 70 66 70 68 65 60 54 56 58 54 53 59 63 78 85 84 83 81 77 70 67 67 63 58 59 60 62 61 66 70 71 71 74 78 83 87 91 95 100 106
85 86 94 99 101 92 76 82 75 81 81 81 86 80 71 73 70 71 65 58 54 56 61 64 59 59 65 69 78 81 80 79 79 73 68 69 66 64 63 65 65 64 68 70 71 72 75 79 83 88 93 95 101 108
81 85 91 94 89 80 80 78 76 80 79 80 78 78 79 73 65 55 53 56 62 60 60 69 63 60 65 68 71 79 81 79 77 72 70 69 68 66 66 67 67 67 70 70 72 73 76 80 85 89 94 96 102 109
87 86 86 84 78 76 77 76 76 73 70 77 83 80 73 65 61 56 52 58 70 68 65 70 65 60 62 69 70 74 78 77 77 76 72 72 69 68 68 67 67 68 70 71 73 74 77 82 85 89 94 98 104 109
86 81 78 74 71 72 69 71 74 76 77 72 69 68 72 69 62 56 59 73 71 70 69 67 65 64 62 66 70 71 77 79 75 74 71 70 67 64 65 65 68 69 69 72 73 75 79 82 84 90 95 100 105 106
82 73 71 70 70 70 70 71 71 73 73 70 68 69 71 68 61 63 72 71 67 69 67 65 65 63 62 66 68 70 76 76 76 75 74 72 70 69 68 69 67 66 71 73 73 76 79 81 86 91 96 100 105 106
74 72 71 69 68 67 69 70 71 73 74 73 73 69 69 65 67 74 69 66 65 67 65 65 63 62 61 62 66 70 73 75 74 74 75 73 72 72 70 69 66 69 73 74 75 78 81 82 87 93 96 102 102 102
70 70 70 69 70 70 71 73 74 73 70 71 69 67 66 71 72 70 64 60 60 63 63 63 60 60 59 61 62 67 73 74 75 75 73 71 70 68 69 66 68 71 74 75 77 82 83 84 87 93 98 101 100 99
72 73 72 71 71 73 73 67 65 66 69 70 69 70 69 69 66 59 54 54 58 59 60 59 57 56 57 58 61 68 73 75 77 74 71 74 72 70 69 68 70 72 73 74 79 82 82 84 89 95 98 99 95 98
70 69 66 67 67 66 66 68 69 69 70 69 68 65 63 59 56 55 53 58 56 56 57 56 52 54 56 58 61 67 72 74 72 73 72 72 70 68 69 68 70 73 73 75 80 81 80 85 91 95 95 94 94 95
63 63 65 64 65 66 66 67 70 70 69 67 63 57 54 54 55 54 53 53 51 53 54 51 51 54 54 56 60 64 67 67 68 68 68 70 69 69 66 67 71 72 72 76 79 77 80 87 90 92 92 91 92 90
57 59 61 62 64 68 70 69 67 65 61 57 55 54 52 50 50 50 49 49 49 50 51 49 50 51 52 55 59 63 64 65 66 70 72 70 70 68 67 69 69 69 73 76 75 79 83 86 89 89 89 89 86 86

GFSWCAN_250_spd_084.txt.gz
Wind_Speed
65 65 72 78 78 77 75 43 19 22 25 29 31 32 29 27 31 33 34 35 35 35 37 38 39 40 40 39 38 39 39 39 38 37 37 36 35 34 34 32 30 30 30 29 30 29 27 26 27 27 27 29 29 30
71 66 71 71 73 66 69 58 35 15 18 20 22 25 24 20 22 25 25 27 29 27 27 29 30 31 31 31 32 32 31 31 30 30 30 30 29 28 27 26 25 25 25 24 24 24 24 25 27 27 28 30 30 32
67 69 70 67 69 53 61 63 44 27 11 13 14 16 19 20 17 17 18 19 21 20 20 20 21 22 22 22 21 22 24 25 26 27 27 27 27 26 25 24 22 21 21 22 23 23 23 23 25 27 28 29 33 36
62 61 64 62 68 58 67 54 55 38 26 12 10 10 12 13 16 14 15 16 16 15 15 14 14 14 14 14 14 14 18 21 22 23 23 25 26 24 24 24 23 22 23 24 24 25 26 27 27 29 30 34 36 39
57 53 58 61 62 69 61 45 45 52 46 28 18 14 11 12 11 13 13 13 15 14 12 11 11 10 9 10 11 13 15 18 18 17 18 20 21 23 24 25 26 28 28 28 28 29 28 29 31 33 34 36 40 43
58 55 60 61 59 59 58 42 47 48 41 50 48 26 22 17 17 13 14 15 14 13 14 13 10 11 12 13 15 16 17 16 16 16 16 17 19 22 23 24 25 28 31 30 29 30 31 34 38 39 41 41 45 47
55 62 57 57 55 55 59 56 49 49 42 48 56 43 27 27 23 22 20 18 18 18 17 17 17 15 14 15 16 18 19 22 21 19 19 17 19 20 24 26 28 29 32 33 35 36 36 37 40 44 47 49 51 53
69 58 61 56 54 57 57 59 51 43 37 47 45 41 41 27 32 30 30 28 24 21 22 23 23 22 20 18 17 18 19 21 22 22 21 19 21 22 24 28 29 31 33 33 35 40 43 47 47 49 49 53 57 59
59 65 58 53 55 56 54 56 55 54 53 44 39 34 50 41 28 37 37 34 33 31 29 28 27 28 28 26 25 22 21 24 24 23 24 24 24 27 28 31 33 33 33 37 38 39 45 48 53 55 55 59 62 65
59 55 51 53 54 62 56 54 57 61 59 40 44 28 51 44 38 30 38 43 42 39 38 37 33 33 34 34 33 33 30 27 30 30 32 32 31 34 33 32 34 36 34 37 42 45 48 50 55 57 59 60 65 68
62 60 60 60 57 60 59 57 57 59 66 59 41 40 34 29 39 31 21 34 40 46 48 49 45 44 42 39 37 37 37 35 34 38 38 39 32 38 37 39 37 38 40 41 45 48 49 51 54 59 64 65 71 71
72 63 58 61 55 55 58 60 59 59 57 63 52 49 33 29 38 26 37 27 25 32 45 54 57 58 58 56 51 46 44 41 38 38 41 48 39 42 41 40 41 41 44 47 48 48 50 54 55 62 68 69 73 75
83 72 63 64 67 58 61 61 60 58 56 67 63 47 40 29 35 37 25 37 28 30 33 31 41 58 65 64 62 60 57 51 49 46 48 56 52 52 51 48 46 45 46 49 52 51 51 57 60 63 71 72 77 80
85 79 67 72 76 63 61 64 60 63 68 69 66 64 48 36 34 26 33 35 43 35 42 42 37 38 48 62 66 66 63 63 60 57 60 60 61 59 58 57 56 52 50 51 54 57 59 61 63 64 72 74 78 82
86 88 90 85 76 75 69 69 71 66 72 70 70 69 65 54 43 35 31 42 44 51 40 44 39 40 44 50 57 67 69 66 65 70 70 67 62 60 63 63 61 57 56 56 58 61 63 66 66 66 72 76 81 86
96 87 85 87 85 85 78 79 74 73 70 72 70 71 73 67 45 40 43 42 48 53 42 48 42 43 46 49 52 55 68 75 73 72 71 70 70 65 65 65 62 63 63 62 64 65 66 69 69 67 73 79 83 88
97 87 90 96 89 84 89 78 73 79 68 72 73 73 72 67 54 49 48 54 51 53 45 50 48 42 44 48 49 54 57 68 74 74 73 74 74 75 74 70 67 64 67 67 68 70 73 74 72 69 74 81 85 90
94 94 98 98 95 95 93 90 80 77 70 73 76 76 70 69 64 57 53 57 56 52 52 55 52 49 43 46 46 51 58 59 67 74 75 75 73 73 75 74 74 71 72 72 72 73 76 78 73 71 76 82 87 91
99 101 101 104 103 101 101 99 86 78 70 72 75 74 72 69 69 62 59 60 60 53 60 62 58 57 50 45 46 48 47 57 64 67 73 78 77 75 73 75 76 76 75 77 77 76 78 74 72 73 78 83 88 91
104 104 107 108 105 108 102 92 91 85 69 69 71 76 75 75 76 74 69 69 67 55 66 65 62 55 55 50 51 51 49 47 52 65 70 75 80 78 76 74 73 77 79 79 78 78 76 71 72 75 79 84 89 92
105 105 108 116 111 107 105 97 88 85 72 73 77 79 77 81 80 80 79 79 62 60 66 69 63 58 55 52 50 54 57 54 53 54 61 71 75 80 80 77 75 75 76 79 80 79 77 74 75 78 82 87 90 92
102 109 112 112 113 110 104 93 82 74 70 65 75 77 80 80 81 84 87 81 70 72 70 67 62 59 56 54 53 56 59 62 58 57 59 61 70 76 80 80 80 76 75 76 77 80 79 78 78 79 83 87 91 94
107 110 113 112 111 105 91 79 71 70 66 66 75 81 85 84 86 89 85 82 78 82 79 70 66 61 56 56 59 60 64 67 69 65 59 61 63 68 76 81 83 80 77 75 75 76 77 77 79 81 82 87 90 95
106 111 114 111 106 98 86 74 69 65 66 67 71 80 84 84 85 86 84 86 86 84 82 79 69 64 58 55 59 65 68 71 73 75 65 62 63 62 68 78 79 78 76 75 74 75 75 74 79 77 80 84 90 96
108 113 110 103 97 89 81 75 64 62 70 69 71 76 77 82 87 88 86 86 85 79 75 72 65 62 61 61 64 68 71 73 76 78 71 64 63 62 65 71 74 74 73 75 72 72 76 76 79 79 82 88 91 98
109 110 105 99 95 91 76 65 56 61 69 71 73 76 81 83 83 73 75 81 76 73 69 64 63 63 63 64 68 72 73 75 77 76 71 65 64 64 62 65 70 71 73 74 72 72 76 77 78 82 86 88 92 96
112 109 103 93 89 85 72 63 61 67 72 73 74 77 80 82 77 73 77 69 66 67 65 64 63 65 68 70 74 76 76 77 75 72 67 64 65 62 60 62 67 69 71 71 69 72 75 76 79 81 83 86 93 95
105 101 96 91 86 74 70 65 62 61 65 69 76 81 79 75 70 70 64 63 65 63 63 66 70 71 74 77 81 79 77 73 72 66 62 62 61 57 56 59 64 68 69 68 68 72 74 75 77 81 87 88 93 94
98 92 84 80 77 72 70 67 65 69 74 78 79 78 73 69 64 62 61 61 64 65 67 70 74 77 77 79 79 75 71 69 67 61 60 60 57 55 56 59 62 66 66 64 67 69 72 75 76 78 83 89 93 92
85 78 76 77 77 73 73 74 75 76 77 78 75 65 61 62 64 63 61 63 66 67 69 74 77 77 77 74 70 66 64 65 62 58 57 56 53 53 55 57 60 62 62 63 66 68 72 75 77 80 86 89 90 86
69 69 74 78 79 77 74 74 76 77 70 66 64 63 63 62 59 62 66 68 68 70 74 76 73 73 72 66 62 60 62 61 58 56 53 48 48 50 51 54 57 60 61 63 65 68 72 73 76 81 85 85 83 83
72 72 74 74 73 71 72 72 71 69 68 67 66 64 62 62 63 67 70 70 71 71 69 68 70 71 61 57 58 60 58 54 51 47 43 43 45 47 50 53 55 57 59 61 64 68 71 73 76 80 82 80 80 80
67 62 59 61 66 68 69 71 70 68 66 65 63 63 64 64 66 72 71 66 66 65 65 66 63 58 54 54 55 54 48 46 43 42 42 42 42 45 49 50 52 53 56 59 64 67 71 73 76 78 74 76 76 80

GFSWCAN_250_spd_087.txt.gz
Wind_Speed
54 62 55 66 67 71 68 67 70 72 58 37 27 25 26 28 31 34 35 34 34 33 33 35 35 37 37 36 36 36 36 35 34 33 32 31 30 29 28 27 26 25 23 22 21 20 19 19 20 21 20 22 21 22
47 48 57 69 66 65 64 62 67 71 56 51 34 27 19 18 20 22 25 29 27 25 25 25 26 27 28 30 31 30 29 29 28 28 28 28 28 25 23 22 21 21 21 20 19 19 20 19 19 20 21 21 23 24
43 48 59 64 65 62 64 61 55 58 62 51 55 35 27 23 13 13 16 18 22 22 22 19 18 19 19 21 24 24 23 22 23 22 22 23 23 21 20 19 20 19 19 20 20 20 20 20 21 21 22 25 27 29
43 44 49 56 62 60 65 62 57 55 58 53 59 48 35 26 25 20 11 11 14 16 18 19 19 16 17 17 19 20 19 18 19 19 17 18 18 18 18 18 19 20 19 19 19 21 24 23 23 25 28 29 30 32
49 51 48 50 58 60 62 67 59 56 51 47 54 52 47 39 28 25 21 15 12 11 13 15 16 16 17 18 17 16 15 17 18 18 16 15 16 17 19 19 19 19 21 22 22 23 26 29 32 32 34 36 36 39
58 52 50 52 53 59 60 61 54 50 58 50 50 51 44 50 39 30 26 25 21 18 14 12 12 14 17 21 22 21 19 17 17 18 18 15 15 15 16 18 20 21 20 21 22 23 26 27 32 37 40 41 43 45
55 52 55 54 51 52 59 55 63 47 55 52 50 50 46 50 39 41 33 28 28 27 23 20 19 18 17 16 16 18 20 22 23 22 20 18 16 14 15 18 23 22 22 21 22 25 29 33 35 37 39 41 45 49
65 63 60 57 49 51 49 55 57 51 52 53 51 52 48 53 46 36 38 33 29 32 34 31 27 24 24 24 23 20 20 18 22 25 26 27 26 26 24 27 25 24 25 25 25 29 31 33 36 38 42 46 50 53
67 68 64 60 53 51 53 49 50 54 56 49 55 50 51 49 54 47 38 37 33 29 34 35 34 34 34 33 31 30 31 30 31 29 29 33 36 34 35 29 28 25 27 31 32 34 36 38 40 41 44 49 54 59
78 74 71 63 59 56 57 56 53 54 57 51 55 55 56 53 57 49 47 36 31 24 22 19 20 32 36 41 43 42 41 39 36 40 41 42 47 35 39 38 38 36 36 36 39 44 45 43 45 47 49 53 58 61
83 80 76 72 64 64 63 60 55 54 58 52 56 57 56 62 59 55 50 37 33 30 23 20 21 21 24 30 36 42 45 47 48 48 48 50 59 51 52 51 48 47 47 47 47 48 51 53 51 53 55 57 62 65
92 85 81 83 76 70 70 63 63 60 57 56 54 55 63 63 62 59 60 52 51 37 28 26 25 23 26 27 29 32 38 42 46 53 58 63 66 62 59 60 60 59 60 61 58 58 57 58 58 58 60 64 66 69
97 93 88 83 82 80 76 70 66 58 57 57 61 56 58 60 62 61 61 60 63 57 38 31 33 30 33 34 37 40 40 43 45 48 57 67 69 68 66 65 65 63 62 63 66 67 65 64 62 63 64 67 70 73
102 95 91 92 88 88 82 73 74 68 67 61 62 65 61 59 62 62 61 61 61 62 48 48 43 41 39 38 40 45 45 48 49 50 55 58 66 69 70 68 67 67 67 66 67 68 70 71 71 72 72 73 77 78
104 101 93 90 98 93 88 85 81 76 71 66 67 67 63 63 61 66 61 61 62 63 67 61 51 47 45 41 38 41 44 46 50 54 56 56 53 63 67 69 70 70 70 70 70 71 74 75 77 75 74 75 77 80
115 108 105 98 94 97 97 92 85 81 76 72 71 68 68 67 67 66 63 61 62 65 66 63 57 53 56 49 44 44 48 52 55 58 57 56 52 50 58 64 69 71 72 73 72 72 73 73 76 77 78 78 81 82
121 114 109 105 99 98 100 97 91 86 87 73 70 73 72 68 69 72 71 63 62 66 65 66 66 64 64 54 49 47 48 50 58 59 53 55 53 50 48 51 57 63 68 73 75 75 74 76 78 80 80 81 79 82
122 115 104 105 104 103 101 102 104 99 86 72 77 77 74 77 78 75 75 74 65 65 64 67 66 68 71 63 55 55 56 54 50 55 56 53 54 54 51 50 50 54 60 66 70 75 77 78 78 81 82 81 80 81
107 110 115 116 112 110 109 106 104 98 92 80 80 79 81 84 83 82 77 73 70 71 64 69 75 74 73 70 60 58 59 57 58 55 57 56 54 58 59 58 57 56 57 59 63 69 76 80 79 80 79 79 81 82
103 103 107 112 116 117 116 111 105 99 90 83 83 84 85 84 86 87 82 75 67 60 66 72 81 81 75 73 71 69 66 67 67 66 63 59 61 62 62 64 64 61 62 61 61 61 69 74 78 79 81 83 81 81
105 98 101 107 111 115 112 107 102 94 93 90 85 86 87 91 92 92 83 75 62 65 76 84 85 86 82 77 75 73 70 70 67 65 61 58 63 68 68 70 70 66 62 63 62 62 63 67 70 70 74 80 80 82
102 105 107 104 104 104 104 97 92 91 91 91 91 92 91 91 89 89 86 72 67 70 76 80 79 80 80 80 76 74 71 67 62 66 62 61 61 67 70 72 74 72 68 65 63 64 64 62 65 69 74 79 74 77
107 106 103 105 107 105 104 103 96 93 93 88 88 90 91 93 89 88 76 69 70 83 80 81 79 79 76 79 79 77 72 66 69 64 61 63 64 68 72 74 77 75 73 69 66 65 63 62 61 64 69 71 70 72
105 106 107 107 106 105 103 101 100 94 89 87 86 87 89 91 90 84 72 70 75 82 81 81 80 75 73 79 80 76 71 66 65 64 63 63 66 68 75 77 81 79 76 74 68 67 64 61 58 59 63 67 70 70
104 105 108 109 107 105 102 98 95 91 86 87 90 91 94 94 89 79 69 72 88 81 80 80 79 77 76 79 79 77 73 70 68 64 68 70 70 71 76 81 81 78 78 75 70 67 63 61 56 56 58 63 66 68
108 108 104 101 101 101 97 96 95 92 91 90 91 91 92 91 83 75 72 89 83 77 78 78 79 81 81 77 76 78 75 71 70 66 69 70 71 75 80 83 82 79 77 73 69 66 63 59 54 52 55 60 64 66
107 104 99 99 97 97 95 94 94 94 93 92 91 93 94 91 80 74 81 79 75 75 76 77 78 82 83 83 79 77 77 76 73 71 72 73 76 80 82 80 78 76 74 70 67 64 62 57 51 51 53 60 64 66
101 97 96 98 98 97 98 97 97 96 95 93 92 93 96 87 83 83 75 71 72 74 74 75 75 79 81 82 80 78 75 74 74 72 73 77 79 81 80 77 75 73 71 68 64 61 59 53 49 48 52 57 60 63
93 92 92 93 92 93 93 95 96 96 94 92 95 92 82 80 79 75 71 69 70 71 70 71 76 78 78 79 76 75 75 75 74 75 77 80 80 79 77 74 71 69 68 63 59 57 54 48 46 48 51 55 57 62
89 90 90 91 92 93 94 96 96 95 93 87 75 67 70 74 73 72 68 65 67 68 69 72 74 74 72 72 73 74 75 73 74 78 79 78 77 74 72 68 67 65 60 56 53 51 47 44 44 46 49 53 58 63
81 82 85 87 87 84 83 84 80 81 80 74 69 67 70 69 64 63 64 65 65 67 69 70 67 66 68 71 70 70 72 75 75 73 73 72 71 68 65 65 62 58 53 50 48 45 43 41 43 46 49 53 57 60
76 78 80 78 78 77 75 76 78 74 69 65 64 61 58 54 54 60 67 65 67 67 66 64 65 68 68 67 69 70 72 72 71 71 70 68 66 64 63 60 54 50 47 45 43 41 39 41 44 45 49 53 55 57
73 73 72 71 70 72 73 68 63 57 54 55 56 58 57 54 56 65 70 67 63 62 63 64 66 65 64 67 68 68 70 70 71 68 64 63 62 60 56 50 47 45 43 40 38 37 40 41 42 45 48 51 52 56

GFSWCAN_250_spd_090.txt.gz
Wind_Speed
44 47 46 43 49 53 59 61 61 65 65 64 60 61 60 47 33 29 26 27 29 30 29 30 32 34 34 33 32 33 31 29 28 27 25 24 23 22 22 21 20 19 18 17 16 14 13 13 12 12 12 11 11 11
42 41 45 41 47 51 54 54 57 59 63 59 57 53 58 54 48 31 25 23 20 21 23 24 24 25 27 28 28 27 27 26 25 23 21 19 18 17 16 14 14 13 12 11 11 11 10 10 10 10 10 13 15 16
41 38 43 43 47 51 51 51 53 55 60 57 57 52 56 55 55 48 28 22 21 22 17 17 19 18 19 21 21 21 23 24 24 22 20 19 18 17 15 14 13 13 12 12 13 13 14 14 13 14 18 20 20 21
43 47 47 46 45 47 48 52 52 51 54 52 51 50 52 52 57 51 52 31 20 19 19 18 12 12 15 16 15 16 17 18 18 17 17 16 16 16 17 17 18 18 18 17 18 19 20 20 22 24 26 27 29 30
45 46 46 46 46 44 48 52 52 49 49 50 50 52 50 51 50 56 55 49 41 20 20 19 20 18 15 15 15 15 15 15 16 16 16 14 13 15 15 16 19 22 23 21 20 19 21 23 26 27 29 32 33 35
52 52 47 49 45 45 47 50 53 49 48 54 52 51 54 48 56 52 59 54 45 46 29 18 20 21 20 18 19 20 21 23 23 19 18 18 15 15 17 19 22 25 23 23 24 23 24 26 30 32 34 37 39 41
60 58 53 53 51 49 48 46 52 49 46 47 53 53 52 54 52 52 55 54 51 45 47 40 21 20 23 25 25 25 27 26 26 28 29 32 33 31 29 29 28 27 23 23 26 26 26 29 34 38 39 43 45 47
69 65 63 60 57 55 56 53 50 52 46 47 48 52 53 53 53 50 52 53 50 48 52 42 33 27 23 22 24 25 26 29 34 36 36 37 40 38 39 41 38 39 34 32 27 29 33 35 38 42 46 48 50 53
69 68 67 64 65 61 59 60 55 54 50 49 47 45 49 53 53 52 51 54 54 49 51 51 39 33 37 19 22 22 24 27 28 33 36 41 48 46 41 46 49 49 50 50 50 48 49 51 53 54 54 54 57 58
75 74 72 67 66 68 65 64 63 57 54 52 52 51 49 51 54 53 49 52 56 56 52 54 48 34 33 29 28 26 27 29 29 32 35 42 48 50 52 49 52 56 59 59 58 57 57 56 58 60 61 61 63 64
81 77 80 75 72 73 73 67 70 68 58 57 56 56 55 51 54 57 54 51 54 56 56 56 50 42 46 42 36 28 26 27 30 36 41 44 48 49 50 50 50 51 57 61 62 61 59 59 60 62 64 65 65 68
91 82 81 83 78 76 78 75 73 71 68 62 61 59 54 48 51 53 57 53 54 56 54 55 53 51 50 50 41 36 37 38 34 33 37 40 46 48 51 57 57 60 61 58 60 64 66 64 63 65 67 70 71 74
99 96 89 89 86 83 80 81 80 77 76 70 70 67 61 56 56 58 55 56 56 55 55 54 55 56 57 56 53 51 45 41 46 43 40 42 45 53 57 52 54 56 55 52 52 56 63 67 69 71 72 73 75 78
108 103 100 95 93 90 86 86 84 81 80 80 71 73 69 61 59 59 57 57 56 57 55 58 55 57 58 59 58 56 50 46 45 53 55 48 51 51 51 55 54 56 56 53 50 47 51 57 65 69 71 74 77 77
117 115 107 104 99 95 93 92 90 86 84 83 79 72 71 68 66 64 63 62 59 58 57 59 59 59 61 64 64 59 58 55 55 53 56 58 59 54 57 64 61 55 55 56 53 51 51 52 55 60 63 68 73 76
118 120 118 116 113 104 98 99 97 96 91 86 83 78 77 72 71 71 67 66 65 59 67 61 60 60 65 67 64 64 60 62 61 60 60 61 64 64 63 63 63 62 61 59 59 58 56 56 57 59 61 65 70 73
117 120 122 119 115 110 106 106 104 100 97 88 83 88 92 85 78 78 76 72 72 69 68 68 61 69 70 74 66 65 66 64 68 65 66 69 70 64 65 65 63 65 65 67 65 63 60 60 61 63 66 70 69 69
115 108 108 112 116 120 115 108 110 109 100 92 91 91 86 89 82 83 83 74 73 71 72 74 77 71 77 76 71 69 63 59 67 69 74 76 73 70 66 65 63 66 69 67 69 70 69 71 69 66 66 68 70 68
111 110 111 117 117 121 124 119 114 111 104 98 95 100 95 84 86 83 87 78 78 74 74 77 74 76 81 77 77 76 63 63 68 75 78 75 71 70 71 68 70 69 68 69 71 69 74 74 76 71 68 69 71 70
110 114 114 113 122 125 123 124 121 117 109 106 103 98 100 94 90 90 92 86 86 83 78 78 84 86 81 81 81 78 66 66 72 72 72 73 74 72 73 73 70 74 69 70 72 74 75 78 78 76 72 72 72 71
112 113 116 113 119 126 126 117 116 119 112 104 100 101 100 97 90 89 90 90 87 83 82 88 89 87 81 81 81 72 64 60 70 78 78 74 73 73 75 74 74 74 72 71 74 76 78 79 80 79 75 76 75 71
110 114 117 117 118 118 119 117 115 110 105 97 98 97 89 83 85 90 94 88 85 86 90 89 88 87 82 84 74 69 70 67 72 78 77 79 74 74 78 79 78 74 72 71 74 78 81 81 80 77 72 75 75 71
110 111 116 118 120 119 117 111 110 109 106 99 94 89 85 82 83 89 87 83 82 88 92 90 89 83 80 80 74 73 73 74 70 70 74 79 74 76 80 80 80 80 76 74 75 77 80 83 82 76 74 75 73 68
106 109 113 116 117 117 115 111 109 104 99 97 95 89 82 85 85 84 79 79 85 88 94 93 89 88 81 83 82 78 77 74 68 73 74 76 79 80 81 82 81 83 79 78 79 80 81 81 79 75 75 74 70 66
106 110 113 115 114 110 110 109 104 102 97 93 90 87 84 87 88 81 72 78 87 96 96 94 92 85 79 83 82 79 78 74 74 74 76 76 78 82 83 83 84 83 81 81 81 80 80 80 78 75 75 70 67 64
104 105 106 104 104 105 101 97 96 96 93 90 90 86 86 87 85 78 78 85 94 98 92 90 85 82 80 78 80 80 78 76 76 74 74 75 77 81 81 85 89 87 85 82 80 80 79 79 76 74 70 66 63 62
100 100 97 95 95 95 93 94 95 95 94 89 87 90 90 86 83 82 87 92 89 88 87 88 87 86 85 83 82 78 78 80 80 77 76 77 77 79 81 84 89 87 84 83 80 78 78 76 73 69 65 63 61 59
91 86 87 88 89 89 91 91 90 89 90 89 89 88 87 83 83 88 87 83 87 89 89 88 86 84 83 83 83 81 80 83 84 80 78 78 78 79 81 85 85 83 83 79 77 75 73 72 69 65 63 60 58 55
81 80 83 84 83 83 86 86 84 84 85 87 86 88 84 85 89 88 84 81 83 85 84 84 83 80 80 81 80 82 82 80 77 77 77 78 77 79 83 83 83 82 78 76 74 69 69 67 65 63 59 58 55 51
74 76 78 80 81 82 84 83 81 81 82 82 83 82 82 84 83 77 76 75 78 79 82 82 79 74 73 76 78 78 77 78 77 76 76 77 77 83 83 82 82 78 75 71 68 66 65 63 61 58 55 54 50 47
68 72 72 72 73 74 74 75 75 77 78 76 75 76 79 74 67 70 72 73 72 73 76 75 70 65 66 71 72 71 73 74 74 75 75 78 82 80 82 78 75 72 69 67 64 62 61 58 54 53 52 50 45 40
62 62 66 68 70 73 75 76 75 73 72 69 66 64 63 56 55 55 64 64 67 71 71 62 62 64 64 64 68 70 72 73 72 73 78 81 80 77 74 71 68 66 62 61 60 58 53 49 48 48 46 44 40 34
59 60 62 65 67 69 72 70 66 62 56 56 56 52 42 38 44 58 67 56 53 52 53 57 61 62 62 62 66 68 70 72 74 75 76 73 72 70 67 66 61 58 57 56 52 47 44 43 44 44 43 39 34 31

GFSWCAN_250_spd_093.txt.gz
Wind_Speed
43 39 35 32 36 39 44 47 50 51 57 58 57 50 51 56 61 59 55 42 34 31 28 26 27 29 30 29 29 31 30 29 28 26 25 23 21 21 20 19 20 18 18 17 16 15 14 14 14 12 12 11 10 10
45 39 34 36 33 40 42 44 46 45 47 51 54 55 52 50 58 55 53 51 50 33 26 22 20 23 24 25 25 24 24 24 24 23 22 20 17 17 16 16 18 16 17 17 17 17 15 16 14 14 14 14 14 16
47 43 39 38 38 35 39 41 43 41 42 46 50 54 53 44 50 51 54 46 50 50 35 25 22 19 18 19 23 27 28 28 26 23 20 19 18 19 19 21 23 23 24 22 20 20 21 19 18 19 19 20 22 23
49 49 50 45 41 36 41 40 41 41 41 44 46 50 52 48 47 41 47 51 49 50 51 37 24 22 20 19 19 20 22 25 27 27 25 25 25 23 22 24 25 26 26 27 26 26 25 24 23 24 24 27 28 31
57 51 50 48 42 42 43 43 42 43 41 41 42 45 49 52 45 46 44 42 47 51 51 48 39 29 25 24 22 21 21 23 24 25 25 25 25 25 26 28 30 30 32 32 30 28 30 29 28 28 30 32 33 35
59 60 52 53 52 48 51 49 46 44 43 40 41 42 45 48 49 47 43 46 49 48 45 54 42 35 39 30 26 24 23 23 24 27 28 30 31 33 33 31 35 37 36 37 38 36 34 35 33 31 37 39 41 45
61 67 66 56 57 56 52 51 53 51 48 44 41 42 44 44 47 49 47 49 48 51 44 50 45 45 34 33 24 27 27 27 24 26 30 30 32 35 38 37 39 44 46 47 49 50 49 47 50 52 50 53 52 53
72 68 66 65 61 57 55 53 55 53 52 52 48 44 46 46 47 48 48 48 48 47 50 49 49 43 42 36 38 28 27 26 28 30 30 29 28 29 31 35 35 36 38 42 45 50 54 57 59 60 61 61 62 61
83 69 71 66 67 65 61 59 56 56 54 55 54 49 44 47 50 49 47 48 49 49 48 49 48 48 40 40 43 43 36 35 31 29 29 31 34 34 35 36 40 43 47 51 55 56 56 55 54 57 61 63 64 66
86 78 82 77 67 71 69 66 62 61 57 55 53 51 50 46 46 49 49 45 43 47 47 51 48 48 50 45 41 41 44 44 41 41 37 35 36 36 38 41 41 42 49 48 52 53 53 54 52 53 55 55 58 63
95 95 87 81 76 72 72 74 73 65 68 65 62 61 57 57 53 49 53 52 49 45 46 47 47 48 51 50 51 47 44 48 46 47 42 47 46 42 37 42 45 45 51 52 52 51 48 49 47 44 42 46 50 55
105 97 95 87 91 87 79 76 78 76 72 71 71 67 62 59 60 55 54 57 57 50 48 43 45 48 49 52 54 51 55 52 53 51 51 51 55 56 55 52 48 49 51 57 58 62 57 52 46 47 47 45 45 48
108 103 98 98 90 91 89 85 85 81 77 75 75 71 66 65 59 57 57 56 59 59 59 55 48 48 50 52 57 56 52 56 58 54 54 54 60 61 61 62 63 63 60 58 58 63 63 65 62 57 57 54 54 57
103 102 102 105 102 98 100 94 86 87 88 81 79 78 71 68 66 64 64 59 57 60 63 62 54 49 50 53 60 60 61 55 54 60 60 59 61 57 59 62 65 67 71 68 62 62 63 67 65 65 65 65 65 65
100 102 104 102 100 100 101 97 93 97 94 96 85 76 76 75 74 72 70 68 64 63 62 61 67 64 61 56 59 61 62 59 59 60 63 65 60 63 61 61 66 69 72 66 66 66 67 68 69 70 70 71 73 72
104 106 99 95 100 102 103 105 104 105 107 106 95 86 80 82 85 82 77 73 69 67 69 66 66 69 68 65 60 63 62 59 59 66 67 66 69 69 69 62 65 69 70 67 63 65 68 66 67 69 71 72 74 76
100 100 97 96 107 110 109 112 116 118 120 112 99 93 88 92 93 91 87 84 78 72 70 70 71 71 71 67 67 65 63 61 65 68 68 72 70 66 77 68 71 69 69 75 75 76 74 69 69 71 71 74 75 76
99 96 91 94 102 115 119 114 113 115 112 103 97 95 99 97 96 95 96 92 88 80 75 74 74 68 69 73 75 66 63 68 69 69 71 74 72 73 72 65 67 72 75 78 74 77 77 75 74 74 76 77 79 78
93 95 95 99 106 107 105 107 111 110 105 102 101 100 104 99 99 97 98 98 94 89 83 75 76 70 72 76 80 78 70 69 68 69 72 77 76 78 73 68 69 67 71 71 77 77 78 77 78 79 74 76 77 79
92 100 98 99 103 109 113 113 112 110 102 101 102 102 103 103 102 99 93 93 94 93 82 74 75 84 88 89 79 82 74 70 72 69 73 78 77 78 74 68 69 69 67 72 75 77 80 82 82 80 77 76 77 77
92 97 101 104 105 111 116 116 110 104 104 103 99 97 99 99 100 98 92 96 99 86 81 83 87 89 90 85 79 77 75 73 75 72 74 73 78 79 73 74 74 73 71 70 78 78 80 80 85 83 82 79 77 76
91 98 103 103 106 111 118 118 111 103 105 100 101 102 99 97 96 95 92 91 88 80 82 89 89 90 88 86 78 69 73 80 81 81 77 77 78 79 80 81 80 79 76 74 79 80 84 82 84 85 85 81 77 78
91 96 102 105 109 111 115 117 112 104 102 101 103 100 95 95 95 94 90 84 84 89 89 89 87 85 84 84 75 73 76 76 82 83 79 79 79 81 82 85 82 80 80 78 79 88 87 86 87 87 85 80 79 78
91 94 99 103 108 110 110 110 109 107 102 101 101 96 92 92 93 92 86 84 85 89 91 94 90 82 81 80 76 76 76 76 80 84 83 78 79 83 82 81 80 82 83 79 81 88 87 84 89 89 85 82 79 79
92 95 98 100 104 106 105 102 105 109 103 97 98 98 95 93 92 88 85 85 86 87 91 90 86 85 84 81 79 79 77 78 80 80 80 82 86 85 84 83 84 84 81 81 81 84 85 87 90 87 82 80 81 79
88 90 94 93 92 95 95 97 100 100 96 91 93 95 92 87 87 83 84 88 91 92 84 83 83 83 83 82 80 79 79 80 79 78 83 84 82 80 81 82 85 82 81 83 82 85 88 90 90 85 81 80 80 78
85 86 91 88 83 83 85 89 90 92 93 91 90 91 90 85 79 79 87 93 93 89 88 87 84 83 83 80 78 78 80 82 81 82 83 83 84 82 82 83 82 81 84 83 86 88 88 91 87 83 80 79 76 76
73 76 77 77 74 78 83 83 84 87 89 89 89 85 82 81 79 84 90 91 88 88 87 85 82 80 80 80 81 81 82 83 84 83 82 83 85 84 82 81 83 85 82 85 89 89 91 87 85 80 78 75 74 73
69 72 72 71 70 72 75 77 77 76 80 83 84 83 79 81 83 82 82 80 81 81 81 79 78 79 82 83 82 83 83 83 85 84 85 83 82 81 82 86 84 83 84 87 87 88 85 82 79 76 73 72 71 67
61 65 66 65 63 64 69 71 73 73 73 75 77 77 76 77 77 73 72 74 78 78 77 75 76 78 79 81 83 82 83 84 86 81 81 82 80 81 83 81 82 85 86 86 84 81 77 76 73 71 70 68 65 61
58 59 58 58 59 62 65 67 69 69 69 68 68 68 70 65 59 62 67 71 70 68 69 72 74 73 72 74 75 79 82 81 77 76 75 76 77 78 79 80 83 85 84 79 78 75 73 70 69 68 66 62 57 52
50 50 52 52 54 57 59 60 58 58 59 58 59 60 60 56 55 58 64 65 63 64 65 61 61 64 65 68 70 68 67 68 66 69 72 69 70 74 78 80 82 80 78 73 69 66 66 66 65 62 57 52 49 44
46 46 48 48 50 52 54 54 53 52 51 53 53 50 46 45 49 56 59 63 65 56 50 50 53 56 59 58 58 61 63 58 56 58 61 65 69 75 76 76 73 70 67 63 61 62 62 61 57 53 49 46 41 37

GFSWCAN_250_spd_096.txt.gz
Wind_Speed
39 36 29 32 35 35 36 36 37 41 42 44 45 48 50 52 54 53 56 58 61 57 50 34 31 33 34 35 35 35 36 35 34 34 34 32 31 30 31 30 28 27 26 25 23 23 23 22 20 19 18 16 16 16
49 43 39 33 38 42 39 40 34 35 38 42 44 43 42 45 47 54 49 51 57 58 52 50 39 30 28 29 31 29 29 29 29 27 26 27 27 26 27 28 27 27 26 28 28 25 24 22 20 19 19 17 17 19
54 49 45 44 37 39 44 45 35 33 34 39 43 45 43 41 41 45 50 50 52 54 51 49 45 42 34 29 26 25 25 25 24 23 22 22 22 22 23 24 26 27 27 29 27 25 25 27 27 28 26 24 24 27
61 57 56 52 44 37 36 41 42 39 37 37 42 44 46 46 42 39 43 46 48 48 47 50 49 46 38 35 35 32 31 30 29 27 27 26 25 25 24 24 27 29 30 32 32 34 36 35 37 36 34 35 36 37
66 62 55 58 59 50 41 39 40 47 38 38 39 44 45 47 42 42 42 40 46 49 45 47 50 49 43 38 38 33 31 28 30 33 32 32 30 28 28 28 27 31 31 32 34 36 37 40 41 44 46 47 49 50
67 68 63 58 56 60 56 47 43 44 45 41 36 39 42 43 45 42 44 43 39 44 46 46 46 44 43 41 36 38 32 31 30 28 26 27 28 28 30 27 25 25 30 32 36 39 45 48 49 47 45 48 52 53
73 70 66 63 63 61 59 58 50 46 44 42 40 38 39 42 44 45 49 47 42 38 42 42 43 42 43 37 39 40 36 37 40 31 31 29 28 26 25 29 31 30 34 36 36 40 44 44 47 47 49 49 51 49
82 74 73 75 74 69 66 62 61 55 52 44 46 47 45 47 45 46 48 47 47 42 39 37 39 41 42 40 38 38 42 43 40 47 42 37 32 30 31 32 33 37 39 43 43 43 46 46 52 48 48 47 46 44
88 85 84 84 81 83 73 67 65 64 57 51 44 49 46 47 46 43 41 42 44 46 39 43 40 38 39 41 41 40 39 41 44 47 49 48 45 41 40 39 41 41 43 44 48 50 52 53 52 54 55 49 42 46
97 95 92 88 87 82 81 73 72 67 69 59 61 56 51 52 44 40 47 45 48 47 42 39 41 40 41 40 43 45 46 39 38 43 48 48 47 44 47 49 49 51 54 52 54 54 52 59 57 56 60 59 55 55
109 103 101 94 91 92 87 80 74 73 78 73 65 69 54 57 62 60 57 53 52 53 52 51 46 43 43 36 39 40 40 45 41 45 45 47 50 49 50 53 51 56 56 62 59 58 59 62 59 59 58 59 63 63
115 109 103 103 98 90 90 84 84 81 82 83 76 74 71 69 64 59 55 57 58 59 57 55 50 43 40 41 42 38 40 42 45 47 47 47 49 52 54 56 56 56 60 59 64 65 63 63 63 64 61 59 59 59
105 102 100 104 104 99 99 93 89 92 92 90 89 87 86 76 72 61 55 61 63 61 57 54 53 52 51 48 47 47 46 48 47 47 51 50 52 51 53 57 60 60 60 63 65 68 62 64 64 68 65 65 66 66
101 97 100 104 106 103 98 104 99 95 99 100 96 93 94 85 75 67 66 64 64 65 59 55 55 56 59 60 58 58 50 50 48 46 50 50 53 51 53 57 62 63 65 66 68 67 68 67 67 66 67 71 73 75
96 100 97 102 101 102 108 107 108 106 107 103 99 97 89 91 83 81 77 74 74 71 69 66 66 65 61 65 63 60 59 56 51 51 49 54 55 55 55 57 62 65 68 69 65 70 65 68 68 66 69 70 76 78
100 100 96 99 103 108 112 112 110 112 116 111 101 92 90 91 92 92 85 83 77 78 76 74 74 72 70 68 68 68 69 70 64 57 57 57 56 62 61 59 63 65 68 70 68 71 66 67 68 71 71 72 76 81
97 93 100 100 98 103 113 117 115 111 122 121 98 95 90 95 98 101 94 88 86 79 78 79 77 77 73 72 70 73 75 75 70 68 64 60 62 66 67 66 66 67 66 71 74 73 73 69 71 74 77 77 76 81
85 89 102 102 101 104 115 126 131 122 121 109 104 100 99 97 97 98 98 94 92 87 83 81 79 79 77 76 76 80 77 75 76 73 68 64 64 63 64 72 75 76 69 72 78 77 78 77 77 80 79 81 81 83
84 90 94 98 99 101 108 122 119 126 116 113 110 104 105 102 102 98 98 91 96 97 88 83 84 75 77 80 80 82 80 77 71 69 66 65 68 66 63 66 75 80 82 80 82 86 82 83 81 81 83 86 87 86
81 84 90 97 100 103 110 118 119 119 117 112 115 114 110 104 102 104 107 98 96 97 96 81 75 80 84 86 83 80 82 78 73 70 69 71 69 70 70 65 65 71 77 82 87 88 88 81 83 86 84 86 87 86
82 84 89 92 94 99 104 113 111 110 110 106 101 105 109 103 102 103 107 110 107 99 94 82 77 84 88 86 84 84 82 77 75 72 72 71 68 68 67 64 64 66 69 77 84 84 88 83 83 88 86 86 88 88
81 86 86 87 89 95 100 105 105 100 105 105 104 105 104 99 100 104 104 106 105 97 91 83 84 88 84 83 82 80 77 78 76 75 72 69 70 73 72 69 67 67 69 74 80 83 81 82 87 88 87 86 88 88
81 83 86 86 88 91 94 98 99 93 98 100 99 103 101 99 95 98 101 98 90 88 88 84 85 86 82 81 81 77 77 77 75 76 73 72 73 74 72 72 70 68 70 73 76 79 79 83 83 86 87 86 88 87
80 83 84 88 88 88 88 91 94 91 89 91 95 95 95 98 96 96 90 88 88 90 89 87 86 86 84 80 79 78 78 77 74 74 76 75 74 76 75 74 74 73 74 77 80 81 82 85 86 87 87 88 88 89
80 82 84 82 85 83 82 82 83 85 82 83 87 90 92 91 91 87 77 82 88 88 88 89 91 85 81 79 79 80 81 77 75 75 79 75 75 78 78 75 75 76 77 79 83 85 83 86 87 88 88 89 89 90
78 81 79 79 77 76 76 76 78 78 77 75 79 84 88 82 78 71 70 82 87 88 91 93 83 81 80 80 79 81 80 77 75 77 79 76 77 78 78 77 77 78 79 81 84 85 86 88 87 87 89 90 90 88
77 72 68 70 68 70 73 73 73 74 74 72 70 74 80 74 67 63 73 82 87 90 88 78 79 81 81 80 77 78 79 77 75 77 78 79 79 78 78 78 78 80 80 81 83 83 84 85 87 88 87 89 84 84
57 54 56 65 68 68 67 66 66 67 68 68 66 67 69 72 73 76 76 81 80 74 72 75 77 77 75 73 73 75 75 75 76 79 80 80 80 79 78 78 79 79 81 81 83 84 85 84 85 87 88 86 83 80
47 51 57 59 62 62 60 61 61 64 67 66 63 63 64 68 73 72 68 64 66 70 73 75 75 71 69 70 72 72 72 74 77 79 79 79 80 77 74 75 78 79 81 82 82 83 82 82 85 88 86 81 76 72
49 54 54 56 55 54 58 57 59 57 56 57 56 56 56 61 66 61 58 57 61 64 64 65 66 68 72 72 71 70 71 71 74 76 77 76 75 73 72 74 75 76 77 78 78 78 81 83 86 83 79 73 70 68
52 50 48 47 48 51 52 52 50 50 49 50 51 50 56 56 54 54 55 58 58 56 57 60 62 65 68 69 69 66 67 70 76 76 72 70 70 70 70 70 70 70 73 73 72 76 79 82 79 74 70 68 66 65
44 42 43 43 44 47 48 46 45 46 47 46 46 46 48 46 46 51 56 54 51 53 61 62 56 57 62 61 60 62 67 72 73 68 67 67 65 64 64 66 67 70 69 73 74 78 79 76 70 65 65 64 62 61
37 38 39 40 41 42 42 39 38 39 39 40 40 40 37 37 43 54 55 57 60 62 53 45 46 49 51 55 58 63 66 66 61 59 59 58 59 62 65 68 71 72 73 74 76 74 71 68 63 62 62 60 58 55

GFSWCAN_250_spd_099.txt.gz
Wind_Speed
41 38 39 42 40 38 31 27 32 33 38 35 38 38 41 45 46 48 54 52 56 62 64 64 60 63 60 48 43 40 36 34 32 31 30 29 28 28 27 26 24 23 21 22 22 20 20 21 21 21 22 22 22 22
47 48 46 43 39 43 40 39 33 30 29 33 35 35 35 38 42 40 44 45 47 55 54 57 60 58 57 52 46 41 36 35 34 31 30 29 28 28 27 27 29 27 26 26 25 26 25 26 27 27 27 28 30 31
50 53 49 50 49 42 43 44 42 38 35 32 34 33 37 37 37 39 36 39 42 46 51 47 55 49 51 52 45 40 40 33 34 30 30 30 29 28 27 29 29 26 27 27 28 26 26 29 29 34 34 33 34 36
49 49 54 52 52 54 49 47 48 44 39 39 33 31 32 31 33 32 31 33 34 40 45 47 48 49 41 43 43 42 37 35 34 31 31 32 30 30 28 26 25 26 28 25 27 29 33 37 35 39 37 41 40 40
60 64 61 59 52 52 50 49 48 46 42 39 36 36 33 30 32 28 30 31 33 35 34 38 41 47 44 40 37 38 36 32 36 37 38 36 32 31 29 28 25 26 27 31 34 35 37 39 39 43 44 44 46 44
68 70 76 71 61 58 55 51 51 50 46 41 40 39 36 31 33 34 35 33 33 35 34 33 31 41 41 37 36 35 35 38 35 30 31 34 31 30 32 31 31 31 31 34 37 40 39 40 43 44 47 47 45 45
77 76 77 76 71 71 72 69 64 59 58 54 50 49 46 42 40 38 34 39 33 29 30 37 37 35 36 34 32 36 36 35 33 33 32 31 32 32 32 37 36 37 39 42 44 42 47 50 48 47 51 49 50 51
88 89 83 86 83 75 78 80 73 72 64 65 65 64 61 51 44 45 42 36 40 37 32 34 41 39 35 36 37 36 40 32 29 29 32 35 34 32 35 37 39 40 41 42 45 45 49 51 52 53 49 50 52 48
99 95 87 87 94 90 83 88 84 81 76 71 72 72 67 64 55 46 44 39 37 43 39 32 38 45 44 43 41 39 40 36 30 31 32 31 35 36 34 35 36 39 41 43 48 48 54 53 55 55 55 58 54 54
110 103 102 101 98 99 98 93 91 88 84 85 81 80 72 70 62 55 46 45 40 40 44 46 53 51 48 46 40 38 36 36 30 34 35 31 37 37 37 39 39 40 42 45 46 48 53 56 56 57 55 56 60 61
115 112 110 107 101 103 107 102 97 95 94 93 94 88 85 75 74 63 54 47 43 41 49 58 56 46 46 49 43 39 36 34 37 39 43 37 46 43 41 41 41 41 43 47 51 53 55 59 60 62 60 63 60 63
117 117 118 117 114 109 109 113 112 108 103 106 101 100 95 87 76 73 60 55 55 56 63 62 55 52 48 52 48 41 40 37 40 41 43 46 49 49 50 55 46 42 45 47 52 56 58 60 60 64 66 68 69 70
121 120 120 120 125 123 121 119 118 116 116 114 113 105 101 95 85 74 69 64 73 69 67 70 65 60 59 52 55 49 45 43 46 50 54 51 51 53 56 58 56 54 50 48 51 54 57 59 63 64 71 77 79 79
120 121 119 117 116 111 123 126 122 122 125 125 125 121 107 98 89 81 76 77 77 78 79 74 72 66 62 61 57 59 56 54 52 56 57 57 55 53 54 56 56 56 54 51 58 63 58 64 69 74 75 78 78 80
107 102 99 103 109 110 114 121 119 120 121 121 116 116 109 102 94 90 85 87 88 86 85 80 80 77 70 64 66 61 61 62 64 62 60 59 59 60 61 61 61 61 59 54 52 59 64 68 69 70 73 71 77 81
115 105 96 103 103 105 110 112 117 117 118 119 115 106 99 98 99 100 96 96 93 91 89 90 84 85 89 76 68 68 68 69 70 65 62 64 64 65 67 62 61 62 62 61 61 60 62 60 62 67 70 73 75 78
107 96 102 101 103 105 108 107 107 108 115 118 104 103 91 99 98 101 101 101 100 96 94 94 89 86 89 90 78 72 75 77 70 67 65 64 64 64 68 63 61 63 61 61 62 65 68 66 67 62 63 67 74 77
93 97 99 99 97 101 104 106 112 114 121 115 101 95 97 94 102 100 107 105 106 103 102 102 97 93 89 88 80 79 79 81 80 73 70 67 66 67 68 64 64 65 65 63 66 69 66 67 69 69 72 72 74 78
92 95 93 94 96 97 101 108 113 115 106 106 104 104 101 99 98 99 104 107 108 109 109 111 107 96 90 93 98 96 103 92 84 79 78 75 70 71 72 65 68 68 66 69 70 72 68 69 70 70 68 71 77 80
87 90 94 94 94 95 98 99 103 108 104 101 105 100 92 95 100 102 102 105 105 108 110 108 101 96 100 103 104 104 103 103 93 85 82 76 76 72 74 73 70 69 67 73 74 74 73 75 72 71 70 71 75 80
85 86 89 93 93 93 92 92 94 95 93 94 96 92 93 93 97 97 101 103 103 104 103 103 104 104 103 107 107 105 103 100 98 94 88 83 80 76 74 72 72 70 69 72 71 75 77 80 79 81 81 81 84 84
80 85 86 87 87 88 87 84 88 90 89 85 85 84 88 90 91 92 93 98 98 96 95 98 98 100 104 104 105 103 98 99 97 92 89 84 83 81 77 77 74 71 70 71 71 75 76 76 77 78 78 81 84 85
78 82 82 84 84 84 78 80 84 82 80 77 79 86 82 81 85 91 94 89 88 95 99 96 97 101 102 103 101 95 97 97 94 93 87 83 84 84 79 81 79 75 74 72 69 74 77 75 77 78 77 81 82 81
74 78 80 84 83 77 72 75 76 75 74 71 76 77 74 74 78 86 86 81 81 91 93 95 97 96 96 94 92 93 95 95 93 90 89 85 84 84 81 81 80 78 75 75 74 74 75 76 79 80 81 82 81 83
73 76 77 78 71 66 66 67 70 72 67 69 70 67 67 69 71 74 72 71 82 87 91 94 92 90 86 84 88 91 91 89 87 85 88 84 83 82 80 81 80 77 77 78 76 75 75 76 77 79 81 83 82 83
72 73 70 62 61 62 61 64 66 67 68 66 65 63 61 63 64 62 65 76 82 86 90 89 88 84 78 81 84 85 86 83 82 84 86 81 79 78 79 78 77 78 77 77 76 76 77 76 78 81 82 82 82 83
62 56 58 59 61 62 60 62 65 67 64 63 61 59 59 57 56 63 73 75 75 77 76 77 75 70 70 73 78 79 80 82 81 81 80 79 78 77 76 77 77 78 77 77 78 78 76 77 79 80 81 81 81 81
49 54 56 61 62 59 59 62 62 60 59 58 57 56 57 57 59 68 67 67 67 65 66 69 68 67 66 67 70 73 76 77 76 76 76 76 76 75 75 76 78 75 74 76 76 74 73 76 77 78 77 79 78 80
49 55 58 58 59 55 53 56 60 62 61 57 54 53 52 53 55 59 61 57 57 58 60 61 60 59 59 62 67 70 72 72 74 74 76 76 75 75 76 77 74 74 75 74 74 73 73 73 74 75 75 77 77 77
55 58 56 54 52 52 59 61 60 59 55 51 49 49 48 52 54 49 49 50 55 57 55 50 54 60 61 63 65 65 67 66 66 68 67 72 74 72 70 67 68 70 71 71 72 70 68 72 70 72 75 74 73 72
50 49 47 48 50 55 54 52 52 50 46 43 41 40 44 45 45 47 48 50 52 53 52 54 55 55 57 60 61 60 58 58 59 59 64 68 66 65 64 63 65 67 67 67 65 66 66 69 70 69 68 67 64 61
45 45 46 46 49 50 47 44 42 39 38 39 40 40 41 40 42 47 53 51 52 53 58 56 50 51 52 52 52 53 55 56 58 61 64 65 63 60 59 60 61 62 62 61 62 63 65 67 65 64 63 59 57 56
41 41 43 44 42 41 41 39 38 38 36 35 38 39 41 41 45 57 57 52 54 53 48 45 47 47 46 49 49 51 53 55 60 63 65 60 56 57 58 58 59 58 57 57 57 62 62 60 59 56 54 53 52 52

GFSWCAN_250_spd_102.txt.gz
Wind_Speed
32 31 28 27 33 28 29 32 33 33 33 35 36 35 30 35 34 35 30 38 43 47 44 53 51 56 54 53 48 47 43 36 34 31 30 30 29 28 27 27 26 25 25 24 23 23 25 25 22 28 26 30 30 27
31 29 31 30 30 32 30 28 33 35 31 34 31 32 22 31 25 29 28 27 31 34 37 42 42 45 48 45 49 47 46 41 37 33 30 30 28 28 29 26 27 27 25 26 26 29 29 30 30 31 32 31 30 30
46 47 44 37 42 36 38 31 30 38 35 34 29 26 28 22 23 26 27 29 26 30 29 30 36 33 40 39 40 45 43 41 35 32 32 32 32 30 28 27 25 25 25 25 25 27 29 30 31 31 32 34 35 34
55 51 51 57 53 44 42 43 45 43 42 35 27 31 35 29 24 20 25 28 27 30 33 25 25 31 32 37 36 36 40 36 35 31 30 31 29 30 29 27 27 26 27 29 28 28 32 33 34 39 38 37 39 38
62 59 61 59 56 57 56 53 46 49 47 46 43 49 40 37 35 29 24 26 26 32 34 32 31 27 27 28 34 33 32 35 32 29 26 26 24 24 25 25 25 25 27 29 33 31 35 37 41 40 42 42 43 44
69 68 65 62 65 64 62 60 50 54 51 53 54 53 53 53 49 38 39 38 38 36 33 34 31 30 30 27 26 27 34 28 31 29 25 26 27 26 27 29 29 31 29 30 32 30 34 38 41 46 46 46 47 49
77 74 68 66 65 64 66 68 58 61 57 56 57 61 63 58 61 59 54 42 39 38 36 35 41 35 34 38 32 29 33 28 26 29 27 24 29 30 32 35 33 31 35 36 36 37 36 39 43 46 51 52 48 50
87 86 80 75 76 74 72 72 69 64 65 62 59 62 64 66 64 65 62 61 56 48 43 36 35 43 43 40 33 33 35 28 27 29 28 29 34 29 30 34 33 34 39 36 36 38 39 39 45 44 47 52 55 62
91 90 90 90 92 87 83 81 80 81 81 74 71 68 67 69 71 69 70 62 59 60 54 51 54 42 43 47 44 40 40 31 26 30 34 33 39 35 34 33 35 36 39 42 39 40 42 42 40 44 44 52 58 62
98 95 93 95 93 94 87 86 84 86 90 84 84 84 81 78 75 74 73 72 65 62 64 68 61 51 48 43 45 47 47 42 31 32 36 36 40 31 32 35 39 38 40 43 44 45 47 50 48 48 51 52 57 57
100 98 101 102 99 100 98 98 99 98 100 101 98 99 92 87 83 77 75 74 74 75 75 77 78 73 65 59 49 45 52 44 41 37 37 36 42 40 37 35 36 40 40 44 46 48 51 49 51 49 52 54 58 60
110 109 108 108 107 105 105 106 105 104 102 102 99 100 99 96 92 89 81 84 84 84 86 88 86 83 74 68 61 56 56 50 48 46 42 45 46 46 49 47 44 42 44 46 50 53 53 52 53 51 51 55 61 65
121 119 117 115 115 114 115 114 110 112 114 109 107 109 106 106 104 95 92 91 95 95 96 98 93 88 87 80 73 69 65 60 56 52 53 56 53 52 52 56 54 56 58 58 55 55 53 53 55 57 63 61 68 73
130 129 128 129 128 126 123 126 125 123 121 116 116 117 113 111 107 110 105 103 108 106 105 104 102 97 92 92 86 80 73 69 66 60 68 63 61 57 58 62 58 63 65 64 61 59 55 56 56 56 59 65 67 69
122 122 119 118 124 126 128 126 129 132 130 132 135 135 118 113 110 110 114 112 111 112 112 107 106 99 97 90 89 87 82 74 68 69 71 70 69 65 65 65 67 66 65 66 65 61 57 58 59 59 63 69 69 70
125 120 120 119 119 125 125 126 132 130 130 132 131 123 104 110 115 109 114 114 114 109 108 112 108 106 102 95 89 87 85 86 80 77 73 82 79 75 72 71 71 73 72 72 71 67 61 61 62 64 66 68 72 77
121 116 123 125 128 128 127 128 129 130 131 126 118 121 110 103 103 102 106 111 109 108 108 108 107 108 106 102 93 88 88 96 94 86 79 86 75 83 84 79 79 78 76 76 76 71 70 71 71 72 72 73 75 76
108 108 110 117 122 123 119 116 120 123 126 122 118 104 109 104 104 103 104 104 105 107 111 113 112 106 100 97 100 103 105 98 97 95 87 90 88 78 84 86 85 87 80 78 80 80 76 76 80 80 78 78 79 78
105 105 107 108 111 112 111 111 114 113 110 107 96 98 104 101 96 100 104 105 108 107 107 110 113 108 102 102 107 107 103 102 101 98 94 90 89 86 83 85 89 93 91 93 89 88 84 81 81 84 82 81 81 82
97 98 100 104 104 102 102 102 102 102 96 96 92 91 94 92 93 98 105 109 107 111 110 109 105 97 100 105 108 106 101 97 97 99 99 98 96 94 91 86 91 93 95 98 97 92 89 91 89 90 90 86 85 85
92 92 97 98 97 97 97 95 91 90 92 90 88 87 84 83 85 87 91 98 101 98 93 89 92 99 101 99 102 104 99 94 90 90 97 100 101 94 92 91 92 93 96 99 95 94 93 92 90 92 94 90 89 89
84 90 91 93 90 92 89 84 84 86 83 76 81 84 81 80 79 81 84 87 86 82 84 89 92 95 93 91 95 96 92 88 92 94 95 95 96 97 95 94 94 93 96 97 96 96 93 93 93 91 92 91 90 90
85 85 83 86 88 86 75 74 73 73 72 71 77 78 73 73 77 78 77 75 76 78 81 81 86 90 87 88 87 86 88 86 83 85 88 88 88 91 93 93 94 94 94 94 92 94 93 92 92 91 91 88 86 87
81 82 81 83 79 69 66 67 69 70 67 66 70 71 68 71 72 73 69 68 75 79 79 81 81 78 78 80 81 82 85 80 80 81 83 82 86 90 93 93 91 89 90 89 90 90 90 91 91 91 87 83 84 83
77 76 75 68 64 62 63 64 67 69 62 65 68 69 66 67 68 66 62 66 75 78 77 73 69 69 68 70 73 77 80 76 72 77 82 81 83 82 85 87 88 87 83 83 85 85 88 89 90 87 81 79 80 81
68 67 61 61 60 62 64 64 65 65 68 67 63 62 63 62 62 58 61 72 75 72 68 63 60 59 60 64 67 69 73 63 67 72 80 77 72 75 79 80 80 78 78 80 80 81 81 80 78 77 76 76 76 77
55 57 58 60 60 62 61 60 60 61 64 61 62 64 61 60 55 59 70 69 66 61 59 57 56 54 54 54 59 63 63 61 64 67 70 69 70 70 72 74 74 75 73 74 75 75 75 72 72 73 74 74 73 75
55 58 59 63 62 62 60 58 58 60 61 62 63 64 61 57 60 67 62 60 55 54 55 54 52 50 51 53 54 57 58 55 54 57 63 65 64 65 68 70 72 71 70 70 71 71 70 70 71 71 70 73 71 71
59 63 61 60 61 58 57 58 59 61 63 62 60 59 55 56 59 57 57 54 54 52 52 51 49 47 50 52 51 51 52 52 53 54 56 57 57 61 62 66 69 68 69 69 67 67 68 69 68 68 69 69 67 68
54 58 56 57 56 56 59 58 58 56 55 55 54 51 50 52 52 48 48 48 49 50 49 49 50 49 52 47 47 47 48 50 52 56 59 60 58 56 59 62 62 64 64 64 62 63 64 64 65 66 67 65 64 64
55 52 50 51 53 55 53 52 52 53 51 48 45 42 45 46 43 42 46 49 49 50 48 47 45 45 48 48 45 48 50 48 49 53 55 58 57 58 59 57 59 59 59 58 59 60 62 62 62 62 62 61 61 60
46 44 46 47 48 46 42 41 43 41 40 39 40 41 42 40 42 46 54 50 48 50 49 47 45 48 47 43 44 49 51 48 49 51 54 56 56 58 59 58 54 54 55 56 56 57 58 58 58 59 57 59 56 53
32 33 35 37 38 39 40 39 38 37 38 40 41 38 38 41 50 64 55 53 50 47 46 45 48 50 46 44 47 51 51 49 51 53 55 56 57 58 60 52 49 52 54 53 53 56 57 55 54 55 55 54 50 48

GFSWCAN_250_spd_105.txt.gz
Wind_Speed
43 40 34 28 25 20 28 21 19 18 18 32 27 25 18 27 27 26 31 33 35 30 35 31 37 46 42 45 47 48 44 45 43 40 37 35 34 31 29 28 27 26 28 26 26 26 28 28 27 27 27 30 32 34
47 43 40 35 31 27 25 26 31 30 26 28 30 22 21 27 31 28 25 28 31 32 31 33 28 31 32 35 38 35 40 39 42 36 37 37 37 33 31 29 28 29 30 29 26 28 29 31 32 37 37 35 35 35
55 51 48 45 35 34 35 32 33 41 39 36 36 33 27 32 32 30 36 29 23 29 33 34 33 30 26 25 33 34 30 30 31 36 32 32 32 30 29 29 28 28 28 30 28 29 31 34 38 39 41 42 40 38
60 57 52 49 50 48 45 38 38 35 40 45 42 38 33 35 42 40 36 37 37 37 35 34 34 27 25 23 24 28 27 27 25 26 31 29 30 30 29 25 25 26 28 27 27 28 30 30 32 35 39 38 43 45
64 62 58 55 57 57 54 50 49 48 44 45 46 43 37 37 40 39 38 37 38 42 43 43 42 34 32 22 19 23 25 26 28 24 25 24 30 31 27 26 27 23 25 27 29 29 31 32 33 37 38 37 39 44
73 70 69 65 65 60 63 62 56 54 53 50 47 42 44 41 36 35 40 41 42 47 48 49 46 46 42 33 29 29 28 28 28 31 28 25 24 27 30 27 28 27 23 24 25 27 28 31 35 35 35 38 41 41
82 81 79 76 72 70 67 66 64 63 61 57 54 50 46 44 43 44 37 42 50 49 49 51 56 50 50 48 39 36 34 37 36 32 39 32 32 25 30 27 32 30 32 35 37 36 35 35 37 39 43 45 46 49
89 89 85 84 82 78 75 75 73 66 65 63 65 59 55 56 52 53 48 47 50 49 51 52 53 53 58 56 50 51 47 37 40 43 41 42 42 40 31 31 33 33 35 37 38 38 39 40 39 43 45 46 47 50
94 94 93 91 87 87 83 82 82 81 77 76 73 69 67 66 65 62 61 56 62 60 58 62 63 59 58 56 57 57 56 58 52 47 45 46 48 47 41 39 35 37 40 40 42 46 49 45 43 44 46 48 51 54
99 98 97 94 94 96 93 90 88 87 85 82 80 79 80 78 74 69 68 71 71 69 74 67 68 66 64 62 61 60 61 63 54 59 55 53 56 56 51 46 44 44 44 46 48 48 49 54 56 59 57 51 52 53
109 105 103 102 99 98 99 101 97 97 95 95 95 95 88 85 82 80 74 71 71 75 80 80 78 75 72 71 72 71 70 69 68 64 67 61 69 64 60 57 53 53 52 51 54 54 56 59 63 65 65 67 60 56
112 114 114 110 107 102 103 102 99 100 101 100 97 96 94 92 89 91 81 81 87 87 82 84 88 86 80 82 83 81 82 79 76 69 69 71 76 69 71 70 66 62 62 60 59 55 60 67 66 64 67 67 70 71
119 116 115 116 110 113 113 111 109 108 105 102 102 100 97 94 91 91 91 94 96 95 94 95 94 92 89 89 91 90 88 88 87 85 74 84 83 81 79 74 75 73 69 64 68 69 67 67 69 68 68 70 72 70
122 125 122 116 118 117 121 121 116 115 116 116 116 110 104 99 95 97 98 101 102 106 107 104 106 105 101 100 99 98 102 102 99 90 92 90 88 86 81 80 79 78 78 75 67 69 73 75 78 78 76 73 75 76
122 125 122 123 122 122 125 128 125 128 129 129 127 122 107 105 105 105 108 109 111 113 114 111 109 108 113 114 112 109 109 102 99 102 100 96 93 90 89 86 81 81 79 79 74 76 79 83 83 85 85 85 86 81
117 118 120 123 131 129 132 134 134 138 139 137 138 125 118 122 121 122 124 125 127 129 125 126 127 124 124 124 123 117 118 109 105 107 105 102 98 95 91 89 86 83 82 83 82 82 78 83 85 82 86 88 88 91
116 116 119 121 125 128 127 126 132 137 142 134 121 129 129 130 131 127 132 135 135 134 129 129 130 131 129 127 123 123 116 113 111 111 107 99 98 96 91 87 87 89 88 86 85 84 84 86 89 82 84 88 90 94
116 118 121 123 124 125 128 130 132 131 131 127 127 121 121 121 122 123 125 124 127 128 128 122 123 126 118 118 119 112 110 111 109 109 104 97 95 97 94 87 87 88 87 89 87 87 88 88 85 89 89 88 89 93
119 115 116 119 121 121 119 121 120 123 117 111 113 117 120 115 111 118 110 115 122 123 124 117 124 114 104 104 103 105 110 111 108 108 104 100 96 97 95 93 91 91 88 85 86 88 89 90 91 94 89 91 93 97
108 109 108 110 110 114 113 110 112 113 106 104 109 106 106 105 107 107 105 103 107 109 110 110 106 102 96 94 98 102 101 101 100 98 97 97 94 88 87 90 92 94 93 89 88 89 90 90 92 94 95 95 97 97
102 103 106 109 107 106 108 102 96 93 96 96 94 98 97 95 93 94 96 95 94 94 95 99 99 94 93 96 96 96 95 95 90 86 89 89 92 81 79 85 88 86 85 86 85 88 88 85 87 92 96 96 96 97
96 100 101 103 103 103 95 90 92 90 92 89 86 87 89 88 87 88 89 89 87 86 91 91 86 86 84 82 83 84 85 84 80 78 80 83 82 77 74 81 83 81 79 79 83 83 80 82 85 86 88 91 93 94
92 95 98 99 98 91 78 84 84 82 82 80 82 83 83 83 85 87 87 81 77 81 84 80 79 82 79 78 75 72 72 70 68 68 71 72 72 74 75 75 73 68 72 77 77 73 74 76 78 80 82 84 84 85
87 88 87 85 82 73 74 80 81 79 76 77 79 76 75 79 81 81 78 74 75 79 77 77 76 71 68 66 68 68 67 60 56 57 61 62 66 73 68 66 69 65 66 70 68 69 72 74 76 78 77 75 77 79
83 81 76 68 71 72 75 76 75 74 71 77 78 74 74 78 75 73 68 72 78 76 73 70 65 61 59 60 61 60 62 52 51 55 62 60 62 62 61 64 65 66 65 62 66 69 72 71 71 71 70 71 70 72
74 72 65 62 68 75 77 73 71 71 75 74 70 71 75 71 70 67 68 76 74 68 65 63 61 59 57 57 58 58 57 47 47 49 60 53 51 55 59 59 60 64 60 56 65 68 67 68 67 67 67 69 68 69
62 59 60 66 72 75 73 71 70 68 70 69 71 70 69 68 65 64 72 71 67 62 57 57 55 52 54 54 53 53 51 48 45 47 51 50 49 49 51 55 58 59 57 57 60 62 61 63 63 63 64 63 64 63
62 65 66 74 75 71 68 65 64 65 67 70 69 70 71 65 62 70 67 65 61 58 52 53 53 51 51 52 51 50 48 47 47 46 47 49 47 48 52 54 56 57 57 57 59 60 60 60 60 62 61 61 60 59
61 63 65 66 67 64 60 61 62 65 67 66 65 66 64 61 62 62 63 60 55 52 50 52 50 48 49 49 47 46 46 47 47 46 48 47 47 51 49 52 55 57 55 56 56 55 57 57 57 58 59 57 57 56
60 58 50 51 51 51 58 58 59 59 55 54 53 53 53 53 57 54 52 52 51 51 50 47 45 44 48 47 47 45 46 46 47 49 49 48 49 50 48 51 50 51 51 51 53 54 54 53 55 56 54 52 52 53
43 41 42 46 49 54 53 47 45 43 42 43 44 41 44 50 49 49 50 52 51 47 45 44 45 48 46 44 43 45 47 47 46 46 48 49 49 49 47 46 47 48 45 47 49 48 50 50 51 50 48 49 51 51
35 36 36 42 47 42 39 39 40 38 39 36 36 38 42 42 47 56 57 48 46 46 46 50 46 43 41 42 45 47 48 44 45 48 48 49 48 50 47 45 43 45 47 44 43 45 46 47 47 46 47 49 51 51
33 34 34 35 35 35 33 29 30 32 35 40 44 41 40 43 56 64 48 45 43 43 42 40 42 44 43 43 46 46 44 42 41 42 46 48 48 47 44 43 44 44 44 43 44 45 45 45 47 47 47 49 50 50

GFSWCAN_250_spd_108.txt.gz
Wind_Speed
41 37 44 44 38 38 35 28 21 29 26 27 23 22 23 24 35 35 34 27 31 35 39 41 43 41 32 35 38 39 38 37 40 43 39 39 38 36 34 33 32 31 30 29 30 31 31 28 30 32 30 31 35 37
44 46 44 52 47 42 38 37 33 31 33 29 31 31 28 28 27 29 32 31 31 29 30 32 37 41 33 31 30 29 34 35 31 31 38 36 37 34 32 30 27 28 30 30 30 31 32 31 31 31 31 30 30 32
54 51 48 46 46 47 45 43 39 38 35 32 31 31 33 35 31 25 23 30 31 33 27 23 39 34 33 32 29 26 29 31 31 33 31 34 34 34 28 28 27 26 24 23 24 24 26 29 31 33 33 34 35 37
65 60 59 54 55 53 53 49 48 46 43 40 36 33 34 34 36 35 27 24 22 30 34 34 37 41 35 33 31 35 35 31 29 32 31 29 34 35 29 29 28 29 29 25 27 26 28 30 32 35 36 38 40 42
70 68 65 64 62 57 58 58 53 55 53 48 46 43 39 41 38 37 35 31 28 29 28 30 38 42 42 39 41 39 40 40 40 38 37 36 32 29 33 35 34 29 35 31 30 31 32 32 34 35 38 41 42 43
77 72 69 70 69 72 71 63 60 57 58 54 55 53 48 49 46 43 41 39 38 34 34 34 34 35 40 45 44 45 46 44 43 44 43 41 32 40 38 38 40 44 44 37 34 34 36 35 37 35 38 40 44 50
85 83 77 77 76 74 75 74 70 67 64 60 60 58 57 57 55 51 50 46 45 44 41 42 46 43 35 43 51 53 49 51 52 50 45 46 47 47 49 42 41 42 44 50 47 37 39 39 41 40 42 45 44 52
88 88 85 82 78 80 80 80 79 77 74 71 69 66 65 62 60 59 56 54 51 49 48 52 60 55 47 49 55 58 55 54 49 47 48 50 50 49 51 54 53 49 48 51 53 52 51 47 45 48 52 51 53 58
97 94 89 87 82 82 86 86 85 83 83 80 79 74 74 71 69 68 63 58 58 58 56 57 67 65 67 69 65 64 62 59 58 54 49 48 53 57 54 53 59 60 60 59 57 56 56 59 58 57 56 56 53 55
100 101 96 94 92 89 90 90 92 94 92 88 86 84 80 80 78 75 74 74 70 68 68 69 67 66 70 69 69 69 70 66 67 62 61 56 58 69 64 62 59 62 64 66 66 65 63 62 64 65 68 65 66 67
106 103 104 100 101 97 96 96 98 96 97 98 96 91 86 85 87 86 80 80 80 78 78 80 81 81 79 80 80 78 76 78 75 71 71 68 68 71 73 73 74 70 68 69 73 75 74 72 68 68 68 72 72 66
112 110 111 110 108 106 103 104 104 106 107 101 101 98 96 93 89 90 86 85 87 88 90 90 89 88 88 86 86 87 88 86 86 80 78 75 77 78 82 82 83 85 86 84 84 78 77 78 77 75 74 71 71 75
110 110 111 112 118 117 117 110 111 111 111 112 108 103 102 100 98 89 89 90 93 92 93 94 92 91 92 92 90 90 90 91 91 90 88 89 88 88 91 93 90 90 93 96 94 91 89 88 82 81 77 76 74 74
113 112 110 113 113 122 118 118 120 118 117 117 115 111 109 106 100 101 97 99 100 101 101 101 101 100 101 102 102 102 101 100 99 99 101 99 99 100 98 97 99 102 104 100 105 100 102 98 90 87 82 78 77 76
119 115 110 112 115 117 122 123 126 124 127 121 119 115 109 110 110 110 109 112 110 110 112 113 110 111 114 113 112 111 111 108 106 104 106 106 106 109 111 113 115 115 117 114 111 102 105 96 96 93 88 80 78 76
117 119 118 115 117 120 117 119 126 130 129 125 115 114 114 122 122 120 121 119 121 123 120 118 117 117 116 119 120 118 117 118 117 116 116 117 118 120 123 125 124 116 109 110 112 105 101 94 93 90 86 83 79 78
116 116 122 119 118 119 124 124 129 130 130 128 122 120 118 114 119 127 131 127 131 134 134 132 131 129 129 129 124 122 125 122 129 132 133 127 124 119 116 117 112 107 105 102 101 100 96 87 87 85 80 81 81 78
117 121 122 125 115 120 125 130 131 128 122 120 119 119 124 121 122 124 124 127 127 130 134 134 131 129 130 133 131 133 131 130 130 126 127 122 113 115 116 109 104 102 102 102 96 89 86 85 86 83 78 78 79 80
114 113 115 118 117 117 118 120 126 118 116 115 116 118 121 126 125 121 121 121 123 125 128 127 125 123 124 126 125 125 124 120 118 121 115 110 104 106 104 100 93 95 96 92 87 85 85 87 88 83 81 78 77 79
109 108 109 112 113 115 115 112 115 114 106 107 112 112 116 114 116 118 119 126 125 126 125 120 119 122 115 117 124 112 110 111 103 98 101 103 97 94 87 84 82 85 81 79 79 80 81 82 81 81 78 76 76 77
100 103 108 110 111 109 108 104 103 102 101 103 108 111 107 110 111 110 108 109 112 111 109 105 102 102 109 105 101 103 101 93 89 86 84 80 78 76 75 80 82 77 74 72 68 72 72 72 75 77 73 70 71 71
95 100 101 102 103 105 101 93 94 97 99 94 92 99 98 93 95 98 101 98 95 92 94 93 91 92 97 98 92 86 81 80 78 75 74 74 72 69 67 71 68 62 63 65 65 64 63 66 68 67 65 63 64 64
93 93 93 95 100 100 89 81 87 87 89 85 89 92 89 90 91 94 92 88 85 87 91 90 90 89 84 84 82 81 78 73 69 66 67 66 64 66 67 67 61 57 57 60 57 54 54 56 56 54 56 57 57 57
95 92 90 89 89 84 77 78 80 82 81 82 86 87 84 86 87 84 77 75 78 82 83 82 82 79 75 71 70 67 68 65 61 61 62 59 57 59 55 56 58 54 52 53 52 50 49 52 52 49 52 54 55 57
92 90 88 83 77 76 75 73 74 77 76 83 85 78 78 80 77 75 69 67 76 79 78 77 75 71 64 59 60 62 64 59 51 53 62 48 49 52 52 54 57 55 53 50 52 51 52 49 48 49 51 53 53 54
82 81 80 80 82 79 76 75 75 77 74 74 74 77 76 72 68 61 59 71 73 69 72 71 69 65 59 54 54 58 59 51 46 53 59 46 47 47 52 53 52 56 52 49 51 51 52 50 50 50 51 52 53 51
70 73 78 82 81 78 76 76 76 73 70 69 69 70 68 66 61 58 61 66 65 66 66 65 65 62 58 54 54 54 52 49 49 52 52 46 48 46 49 51 51 54 50 47 48 51 51 50 50 49 50 50 47 47
69 72 73 78 76 74 69 68 66 66 66 67 64 62 58 54 51 56 61 61 60 60 57 57 57 57 53 52 53 51 50 50 48 48 50 49 46 46 47 46 50 52 49 45 45 45 44 47 50 49 49 47 46 48
62 68 68 66 65 61 56 55 55 59 62 57 53 51 48 46 49 56 57 54 54 54 55 57 57 52 46 49 49 47 48 48 44 46 49 50 49 50 41 47 46 46 46 44 45 45 44 44 44 45 46 45 47 47
58 52 43 45 44 44 51 55 51 48 46 45 47 46 47 49 54 52 50 54 56 56 53 51 52 48 47 45 45 42 42 43 43 44 47 48 47 45 40 41 42 44 44 44 42 42 43 44 44 42 40 43 45 43
41 35 36 37 39 44 48 45 44 47 44 43 39 35 45 50 48 52 53 55 52 49 48 48 47 43 42 40 37 36 39 41 41 42 44 46 44 41 38 38 41 39 41 42 41 41 42 42 42 40 38 40 40 40
38 40 40 41 46 48 44 42 36 35 38 36 40 40 43 41 52 62 55 47 46 44 41 38 36 41 37 33 32 36 42 42 40 41 40 41 40 37 36 37 37 36 36 37 38 37 37 38 38 39 41 42 42 40
33 32 34 37 35 31 28 31 35 36 38 39 41 41 40 45 50 46 40 36 35 31 31 35 36 36 33 33 37 39 40 37 35 36 37 37 38 35 36 37 38 37 37 36 36 34 34 37 39 40 41 41 42 41

GFSWCAN_250_spd_111.txt.gz
Wind_Speed
44 42 39 36 34 30 34 34 34 34 29 26 27 30 29 23 23 26 26 26 24 23 28 25 28 35 37 35 35 35 36 38 39 39 41 41 38 34 32 33 30 30 28 29 29 29 29 28 28 29 29 30 30 31
50 48 46 48 44 41 40 36 36 36 35 35 31 32 33 35 28 24 24 23 23 16 19 25 25 26 28 33 34 37 34 34 33 34 34 36 38 34 33 30 33 34 35 29 27 27 29 29 29 29 31 32 33 35
43 49 52 50 48 45 43 46 38 42 41 38 37 39 38 37 34 32 26 26 24 23 21 26 28 19 19 24 24 29 34 32 38 38 34 36 33 29 29 33 30 27 25 33 33 35 30 28 31 34 34 35 35 35
47 47 48 54 56 52 52 47 45 45 42 44 44 43 42 41 40 34 36 36 34 28 25 27 28 28 28 27 27 26 30 31 36 36 37 38 38 29 30 32 30 26 28 25 28 30 34 41 37 35 34 35 38 41
68 57 56 46 54 59 57 56 52 48 53 52 50 48 44 46 46 47 44 39 38 38 36 33 30 28 32 37 35 35 34 30 30 36 38 41 39 38 41 45 40 35 34 33 32 33 34 38 41 43 44 44 46 45
75 70 73 64 59 58 64 64 62 60 57 52 53 55 52 50 51 47 49 46 46 46 45 44 42 37 38 39 38 43 43 38 33 36 43 45 42 44 46 48 41 46 49 52 46 42 44 44 43 43 46 49 51 53
82 78 79 79 75 69 61 69 69 68 68 65 63 61 58 56 58 55 56 54 50 49 50 51 52 50 48 45 44 41 44 49 45 45 44 47 47 47 48 46 43 50 50 54 55 51 51 53 53 51 47 51 56 59
86 86 84 82 84 72 62 69 74 74 76 71 66 67 66 65 63 61 61 61 57 56 58 55 60 62 59 58 57 54 53 46 44 50 53 52 50 49 55 55 57 56 54 54 55 56 56 58 62 59 60 63 61 64
100 95 91 89 90 92 80 75 76 79 78 80 76 73 72 71 72 71 67 65 66 66 64 64 66 65 66 65 63 60 61 61 60 58 55 53 58 62 65 64 64 64 63 60 63 65 65 69 69 71 73 73 72 74
106 103 101 94 93 93 93 79 78 83 85 83 80 76 77 79 77 75 75 73 72 70 71 72 72 72 71 71 72 74 69 70 70 66 66 71 72 68 68 72 73 71 74 72 73 76 75 76 79 79 82 81 80 82
109 109 102 102 101 99 99 93 87 82 87 90 88 89 85 83 83 81 79 79 78 80 81 84 85 83 79 80 81 80 81 81 78 77 79 76 71 73 75 77 77 77 79 81 83 85 87 88 89 89 89 92 90 90
115 114 109 107 105 103 99 95 92 91 88 88 93 93 94 91 89 89 87 88 90 91 92 92 93 91 90 88 87 87 87 85 83 82 81 80 84 83 83 82 85 89 89 89 90 91 93 96 97 99 96 97 95 99
122 119 115 111 111 108 110 108 101 93 95 94 93 96 99 102 95 91 92 96 99 99 100 99 99 99 99 98 97 94 92 92 91 88 90 92 92 92 91 92 94 95 97 97 97 100 100 101 106 106 103 104 100 101
121 122 122 122 121 114 113 112 109 106 98 95 98 95 98 102 105 102 101 105 106 107 108 107 107 107 107 105 105 106 105 101 97 99 102 102 101 102 102 104 108 108 107 108 107 107 107 109 108 107 107 106 105 103
133 136 133 130 128 123 117 118 113 109 102 100 96 95 95 103 110 113 112 116 115 116 116 115 114 114 115 114 113 113 111 108 107 109 111 112 113 113 113 114 114 116 116 116 116 116 116 114 113 108 105 105 102 100
138 139 138 137 133 128 123 121 117 110 106 104 97 93 96 107 112 116 113 112 117 117 119 122 123 121 121 122 120 120 119 117 119 120 121 120 122 119 112 110 115 119 119 119 118 118 115 108 108 105 106 102 94 92
131 136 134 135 135 130 125 121 119 113 109 104 102 103 105 110 116 121 119 117 116 118 119 122 126 128 125 121 115 122 122 120 119 122 119 115 111 112 111 110 110 108 113 117 115 108 108 101 98 91 93 94 84 79
120 124 127 123 126 130 129 124 120 115 110 104 105 105 107 109 113 118 118 120 122 122 125 125 125 124 124 121 124 130 130 128 122 121 113 112 112 109 106 102 102 106 107 105 105 98 99 93 84 83 81 80 72 67
112 113 117 120 122 122 122 118 116 111 109 108 105 106 112 113 113 115 118 119 122 123 123 124 123 118 121 120 125 124 120 117 112 109 105 109 108 106 106 109 107 101 97 95 88 91 86 81 72 77 74 70 63 62
105 107 108 108 110 110 113 110 109 109 103 105 106 108 111 112 112 113 115 114 118 113 110 116 119 117 117 120 120 116 109 104 98 95 97 101 99 96 96 97 94 89 84 83 79 75 72 69 70 69 65 62 62 62
97 100 102 103 102 101 103 102 101 99 97 98 99 103 99 100 103 105 106 108 104 107 113 110 107 107 107 109 108 103 100 100 99 97 92 90 92 89 83 81 80 76 69 69 68 70 68 65 66 62 56 58 59 56
97 100 99 99 97 98 98 90 88 88 89 89 88 90 91 93 94 95 100 96 93 93 95 97 98 102 104 99 95 90 88 89 87 84 80 78 79 82 83 78 73 71 69 64 63 63 65 62 57 55 53 54 54 52
95 98 98 99 98 94 90 85 81 79 80 79 85 89 88 90 89 91 87 84 83 85 89 92 93 94 91 92 90 86 87 84 77 73 72 71 69 69 70 70 70 65 63 66 59 56 58 58 56 52 53 53 53 53
85 88 92 92 92 90 86 79 78 76 76 76 79 82 83 84 87 85 78 77 74 78 84 86 87 86 83 80 81 80 77 75 67 62 62 61 59 60 60 63 62 60 60 56 56 51 50 53 52 48 48 48 50 51
80 74 74 76 78 83 87 87 84 84 80 81 74 72 72 81 77 72 69 65 72 78 79 77 78 78 75 72 71 69 68 65 60 57 60 55 53 54 58 56 57 60 53 46 49 47 47 49 50 49 47 45 44 46
65 60 58 61 69 76 82 84 83 85 83 78 74 71 71 68 65 58 56 64 69 73 73 71 70 70 68 67 64 63 63 57 52 49 55 54 51 50 52 51 53 57 46 46 47 46 44 45 44 46 46 43 43 44
57 59 67 70 72 78 81 79 78 77 73 74 78 76 67 55 50 49 54 61 66 67 64 66 69 67 64 63 58 56 57 52 47 48 53 49 48 46 46 49 50 52 44 42 42 43 44 42 42 43 42 44 43 42
61 65 67 74 68 67 65 64 63 63 65 68 63 56 52 49 44 51 55 64 64 63 64 65 64 61 58 56 54 53 52 50 45 41 44 47 46 43 44 45 48 46 40 40 40 40 42 43 40 38 40 40 39 40
57 61 55 54 54 51 50 53 53 55 58 53 47 46 49 49 50 58 63 62 61 58 57 54 54 53 50 50 50 49 46 44 38 35 37 42 46 45 38 41 42 41 38 39 37 35 37 39 37 38 38 37 38 40
52 46 42 46 46 46 53 50 50 52 50 47 46 46 49 56 59 54 53 58 57 54 50 46 47 45 42 42 43 43 43 40 37 39 43 47 50 43 34 33 39 38 38 38 34 34 36 36 36 35 35 35 35 36
44 39 40 42 43 47 50 50 46 47 46 44 46 45 51 53 53 57 52 48 46 45 45 45 44 37 36 39 39 38 42 45 40 39 43 49 47 39 32 31 36 37 37 36 33 34 34 33 33 31 29 30 31 32
37 38 37 40 43 43 39 39 39 44 50 46 46 42 42 42 49 49 46 40 38 38 37 34 33 35 35 36 36 36 42 38 37 40 42 45 41 35 32 31 35 37 35 32 32 33 32 29 27 27 30 31 31 31
32 31 34 36 34 31 30 36 37 36 36 37 37 37 37 37 40 39 28 24 24 24 24 25 28 33 34 34 37 35 37 34 32 37 38 37 35 31 30 31 33 34 32 32 31 31 28 25 25 29 30 29 29 28

GFSWCAN_250_spd_117.txt.gz
Wind_Speed
53 54 53 48 44 38 38 39 33 29 27 21 22 25 26 27 26 23 25 23 23 26 27 25 24 22 24 22 22 20 20 21 25 26 24 24 26 27 32 29 26 24 24 20 19 22 22 25 24 25 25 26 25 25
64 59 60 57 53 43 41 39 39 36 32 33 31 23 23 28 27 29 23 25 23 22 25 25 29 27 25 23 25 27 24 25 25 23 24 25 26 23 22 22 22 24 28 26 21 21 24 25 25 24 25 27 30 29
68 66 64 61 56 54 49 43 37 41 40 31 29 31 30 25 29 29 29 28 29 25 26 26 29 32 32 31 27 25 29 30 31 31 26 23 27 28 27 24 22 27 35 38 33 24 30 31 29 34 37 36 36 34
76 71 67 65 62 60 54 44 46 43 35 38 39 33 33 34 29 28 31 32 32 34 36 32 31 33 32 34 37 33 31 33 33 35 36 33 28 29 34 34 29 29 36 41 41 39 38 38 34 36 39 44 45 45
83 77 72 68 65 65 63 62 55 48 46 42 39 34 33 31 29 31 32 33 36 39 44 41 38 40 44 40 38 37 37 43 42 39 41 41 40 40 42 44 45 40 37 40 45 45 47 49 48 48 51 52 53 54
86 85 79 73 68 69 66 65 60 61 53 59 51 44 41 39 40 33 35 37 39 38 41 45 48 47 45 44 45 44 46 48 46 45 44 46 47 45 49 54 57 49 47 44 44 48 52 53 56 54 56 57 59 60
89 87 87 83 77 74 73 68 65 64 65 62 63 57 51 49 48 46 40 38 40 43 43 45 46 51 51 53 53 52 51 50 51 49 54 56 57 57 56 59 59 58 57 55 49 49 52 57 58 61 61 63 65 68
95 91 90 89 85 80 80 77 73 70 68 68 66 65 64 60 56 55 54 51 56 47 48 53 57 57 54 52 53 56 53 52 51 51 54 58 61 61 61 63 64 62 63 63 62 60 62 67 69 70 70 71 74 76
99 97 96 92 91 88 84 83 79 81 76 72 71 69 70 68 66 65 66 66 64 60 63 63 60 58 63 66 63 60 59 60 60 64 65 67 71 72 69 69 70 70 69 71 72 72 73 72 74 75 77 77 78 81
105 95 100 98 92 92 91 87 87 87 87 82 77 77 75 75 72 69 68 71 73 76 78 73 73 75 72 64 68 70 68 67 69 70 73 75 78 78 78 79 79 78 80 82 81 81 82 83 81 82 83 84 86 88
114 107 101 104 98 90 92 89 89 88 86 88 86 83 84 83 81 79 77 75 74 76 81 84 87 88 88 83 74 71 75 77 78 78 78 79 81 80 82 83 84 85 86 87 89 90 91 93 92 91 93 95 97 99
117 116 108 103 108 103 94 98 96 92 91 93 92 91 90 88 87 87 83 84 86 90 87 88 94 95 95 93 88 87 79 77 78 80 84 85 86 86 85 86 91 90 90 92 94 95 98 99 99 99 102 105 106 107
115 115 114 110 103 105 107 101 102 102 101 99 98 92 95 97 97 95 96 97 97 91 91 94 99 96 98 96 97 94 91 79 74 75 76 83 91 95 97 100 99 97 95 94 96 99 102 104 105 107 106 108 109 110
122 118 118 115 111 107 107 108 108 113 113 104 96 96 99 96 100 105 102 99 103 108 110 108 102 102 98 97 98 93 89 83 78 81 86 88 83 93 102 102 98 98 99 100 103 106 109 111 111 113 111 106 103 104
125 123 120 118 121 116 113 111 110 110 111 110 107 104 102 101 107 111 112 110 108 109 109 108 107 108 103 99 97 97 95 89 89 106 95 90 88 92 95 98 101 102 103 104 107 111 113 115 116 113 112 111 105 95
119 119 121 124 122 121 120 117 117 116 115 112 107 108 111 117 114 113 117 114 113 112 111 110 103 98 95 94 93 94 96 99 106 100 93 91 96 97 98 100 102 104 105 107 110 114 115 117 115 107 101 98 94 83
117 117 117 120 126 127 124 121 114 113 113 110 114 114 113 112 110 109 108 111 110 107 106 101 96 96 94 89 91 99 106 104 99 95 93 90 92 95 97 99 101 102 103 105 106 108 109 108 101 97 91 92 88 81
118 117 117 118 118 117 115 113 112 112 110 105 102 104 104 102 105 108 109 110 108 108 106 103 99 95 96 96 102 102 95 93 92 92 90 91 94 95 96 96 96 96 97 99 100 100 98 94 89 88 83 81 74 69
117 117 115 114 114 117 115 109 105 104 103 101 103 105 105 107 110 109 112 113 111 108 104 100 98 97 103 103 102 98 97 93 88 86 83 86 93 94 94 94 91 91 93 93 92 90 86 84 80 75 75 72 68 67
112 113 114 114 115 116 113 109 110 105 105 106 106 107 102 105 106 108 110 111 111 107 102 101 100 103 104 99 96 93 93 93 89 83 84 89 91 90 88 87 86 87 85 82 82 84 79 76 74 71 67 65 62 62
107 110 110 109 109 109 106 103 105 104 103 99 101 98 98 98 99 103 106 108 103 100 102 103 103 102 99 95 94 91 85 85 82 84 81 79 83 83 82 83 84 84 83 80 81 78 75 66 66 64 62 58 54 54
105 105 104 105 104 104 102 99 100 100 96 94 94 94 93 95 100 104 105 100 98 98 100 100 98 96 95 93 92 88 84 85 84 83 80 76 72 76 77 79 81 78 78 77 78 72 71 66 63 56 51 51 53 52
101 101 100 99 99 96 91 93 94 93 93 91 94 94 95 98 99 100 93 90 92 94 97 96 95 96 92 89 88 86 85 87 83 80 78 75 74 71 69 70 73 70 70 74 73 68 60 58 57 50 48 48 47 48
98 99 97 95 92 89 88 91 94 95 97 97 96 94 93 91 94 94 88 89 91 92 99 101 101 96 92 90 88 86 86 88 78 76 75 72 68 67 66 63 64 66 68 67 68 62 57 58 54 45 45 46 45 45
97 94 91 89 88 89 90 91 93 94 96 98 95 88 86 90 89 86 81 83 93 99 102 102 100 97 90 86 84 80 77 80 76 68 64 70 65 60 62 62 60 67 68 62 60 56 60 58 52 46 44 43 43 42
84 82 80 78 82 86 88 88 91 93 91 87 83 83 84 82 77 70 73 86 90 94 98 99 96 90 84 79 71 66 66 71 63 58 59 68 65 63 63 63 63 67 64 55 52 55 54 53 52 45 42 41 40 39
68 64 65 68 72 75 77 79 82 85 83 81 80 81 75 68 63 66 81 86 88 91 93 86 80 77 74 69 64 58 57 62 59 58 59 61 63 65 61 60 60 62 60 47 49 51 50 50 47 44 40 40 38 35
58 58 61 66 67 70 74 76 74 70 68 69 65 63 62 64 64 75 79 84 84 82 81 81 78 71 63 60 59 58 57 61 60 59 56 54 62 62 59 51 48 53 55 48 46 45 46 46 41 39 38 37 35 34
55 61 67 68 69 63 57 57 58 61 67 64 55 54 58 61 64 71 73 71 73 73 72 71 68 65 60 60 58 58 60 62 59 57 55 52 61 64 49 40 42 50 51 47 44 42 39 39 40 36 34 35 34 32
60 61 53 47 47 49 55 59 52 52 50 51 51 52 56 60 60 61 60 63 64 60 57 57 60 64 61 58 56 57 59 61 59 55 51 52 56 57 44 40 39 41 42 40 40 37 33 33 35 32 31 31 31 29
43 42 41 44 47 50 48 41 39 45 51 51 48 42 47 48 52 53 49 45 40 47 54 52 52 52 50 53 52 53 58 53 45 45 45 47 47 47 41 33 31 34 34 35 33 29 27 30 29 28 28 28 29 28
36 37 37 39 44 40 34 34 37 40 39 39 40 34 36 35 44 50 40 40 43 44 42 43 49 53 47 45 43 41 42 42 36 37 41 40 37 36 34 29 27 29 32 33 30 27 27 29 26 24 24 26 27 27
31 31 31 33 33 28 26 32 32 32 34 35 35 33 32 32 42 40 40 36 36 37 40 46 48 46 36 29 28 30 34 37 36 33 33 30 30 29 28 27 25 28 31 31 27 26 26 25 23 22 24 26 26 26

GFSWCAN_250_spd_120.txt.gz
Wind_Speed
53 51 47 47 46 44 41 39 39 39 32 28 30 28 21 22 20 22 23 21 19 15 18 17 19 16 21 23 24 23 23 24 26 29 27 23 20 20 21 17 15 17 21 21 21 17 15 18 22 20 25 21 21 25
60 55 53 53 51 52 50 48 43 40 37 35 29 33 32 33 27 22 22 25 25 20 17 19 22 23 20 19 20 23 26 26 24 24 25 26 29 26 22 22 24 25 28 31 27 23 26 29 27 30 30 31 33 33
67 63 62 58 57 55 54 52 53 47 41 36 37 33 31 31 32 32 31 26 22 24 25 23 20 24 26 25 23 25 25 27 29 28 30 31 31 31 31 30 26 25 32 37 42 37 36 34 32 38 42 43 43 43
70 67 66 63 59 55 60 62 60 54 51 47 41 36 35 38 34 28 32 35 34 25 27 28 29 28 28 35 32 28 30 33 33 32 33 34 35 40 40 40 38 31 32 37 43 44 45 44 42 41 43 45 50 56
81 74 69 68 65 65 63 66 63 61 58 56 46 45 46 44 39 36 36 33 33 34 31 35 35 33 31 36 42 39 36 36 35 39 41 46 43 43 45 47 48 43 43 44 46 48 51 54 52 50 51 48 49 51
88 84 78 75 73 73 71 68 68 67 64 62 59 55 53 49 48 49 46 43 40 39 34 32 35 36 36 34 36 37 42 42 39 43 45 45 49 48 48 51 52 53 52 51 53 54 56 57 61 60 61 60 62 59
95 92 90 85 81 77 75 76 75 74 73 67 65 63 59 54 53 53 53 52 53 53 53 47 44 41 41 38 39 40 42 45 49 52 54 54 57 56 55 55 55 58 57 60 62 61 63 65 66 66 66 67 68 70
106 102 95 92 89 83 80 80 80 77 79 73 70 67 65 64 59 58 58 57 58 59 57 58 57 56 57 53 51 54 52 49 47 49 50 56 61 62 64 64 62 65 66 65 69 71 72 71 71 73 75 77 78 79
108 107 104 98 96 93 87 85 86 85 83 83 79 77 73 71 70 67 66 65 63 63 65 66 65 62 64 65 62 63 63 63 63 62 62 66 67 66 67 70 72 71 74 78 82 83 81 82 82 82 84 85 86 88
113 112 110 105 98 94 94 97 90 90 90 87 85 83 80 79 76 75 75 74 73 72 71 71 72 70 71 69 69 69 69 71 68 73 76 76 78 75 79 74 68 77 83 84 85 86 89 91 90 90 90 92 91 93
115 115 112 111 108 103 100 96 96 92 93 91 93 90 88 86 84 82 80 80 81 82 80 78 79 80 82 79 80 80 78 78 78 81 84 82 83 90 91 84 86 83 80 84 87 84 88 93 92 94 95 97 99 101
115 115 116 114 111 110 105 102 99 99 100 98 94 96 94 96 91 89 88 90 89 83 82 85 87 86 85 86 88 88 89 89 90 89 89 89 94 97 97 92 89 90 89 84 84 87 86 93 98 100 103 104 103 103
122 121 119 118 115 113 113 108 106 105 99 95 93 94 92 97 95 94 90 91 93 91 90 91 89 92 93 91 92 93 96 97 95 95 97 101 102 105 103 100 101 96 95 93 91 91 89 90 89 91 95 101 103 105
128 124 124 121 123 116 113 114 108 106 103 102 99 96 99 98 97 101 100 97 96 96 97 96 97 100 92 97 98 99 99 99 100 103 105 108 109 108 107 108 103 100 98 98 97 96 96 94 93 96 97 99 104 107
130 122 121 123 124 127 121 118 119 114 108 104 102 104 104 106 103 102 102 103 107 106 103 103 108 108 110 104 99 103 106 107 109 114 111 112 110 108 110 107 99 98 99 101 103 103 102 98 99 98 103 104 106 104
132 132 134 129 124 124 124 121 118 112 110 111 107 104 107 110 109 108 107 103 104 103 104 104 107 108 105 103 104 104 106 112 115 111 106 104 105 104 103 102 100 97 99 101 100 100 103 101 101 99 97 100 100 98
131 132 132 131 131 131 130 128 123 120 116 109 107 111 112 112 115 113 114 114 109 108 106 104 103 103 103 101 103 107 106 110 111 110 109 107 105 104 102 100 100 100 96 99 97 93 93 94 95 95 92 89 88 87
120 122 125 130 127 124 126 123 123 125 123 120 119 123 119 114 112 112 111 111 110 110 110 110 107 102 102 103 102 106 106 110 110 110 107 102 101 99 98 97 93 91 91 91 92 89 89 88 88 85 84 80 79 76
108 111 113 114 116 116 117 114 111 112 111 111 110 113 111 108 107 107 109 109 108 106 102 101 101 97 102 100 101 103 100 99 100 100 98 94 98 98 94 94 93 92 91 87 87 87 85 85 83 81 79 77 73 73
102 104 104 106 108 110 109 108 107 110 113 115 112 104 102 104 103 101 102 103 101 99 96 96 96 98 97 95 96 94 95 96 98 97 92 89 92 91 89 90 88 89 88 86 87 85 81 78 79 78 73 69 63 63
98 100 102 103 103 104 104 104 105 103 102 102 100 97 95 95 95 97 97 92 91 92 95 98 97 94 97 94 92 95 93 95 93 94 86 82 85 88 88 88 88 88 85 83 82 80 78 75 75 74 70 63 60 57
97 97 98 97 99 100 98 99 98 97 96 96 95 95 94 97 98 100 96 95 94 98 100 97 93 92 93 91 93 93 91 92 92 88 83 81 78 81 82 84 86 84 82 83 83 77 74 75 74 70 65 59 56 55
96 95 97 98 98 95 92 93 93 96 97 96 92 92 96 98 98 98 93 88 89 98 100 95 96 96 93 92 94 90 90 91 90 86 85 84 82 78 79 81 80 81 82 85 81 77 73 73 72 67 62 56 52 52
95 95 97 96 93 89 86 88 94 95 95 94 94 93 95 95 95 93 83 83 95 97 98 102 104 99 98 95 91 91 91 95 92 88 85 81 78 78 80 77 77 81 84 78 75 73 70 68 67 65 59 52 51 50
96 96 93 87 85 85 88 89 91 93 93 92 88 88 89 92 94 87 81 86 95 100 102 105 105 101 93 89 92 93 90 91 87 78 75 75 75 70 67 68 69 73 79 71 66 62 63 64 63 60 55 49 47 45
91 92 91 85 84 88 88 87 88 89 88 85 82 90 91 93 88 83 84 94 100 101 103 101 96 92 89 89 90 89 87 87 83 73 71 70 64 56 56 60 63 68 77 61 58 58 59 60 57 53 52 48 43 42
88 86 80 81 85 87 85 82 82 82 83 86 91 96 95 90 84 82 93 98 98 91 89 87 87 84 82 83 84 83 81 79 75 68 62 61 57 57 58 58 59 63 69 56 51 52 53 56 52 48 48 44 41 38
75 70 68 71 76 78 73 71 72 77 83 90 91 90 88 83 80 88 91 87 80 76 74 72 74 77 80 81 82 80 75 71 67 60 53 51 55 56 61 56 51 54 60 58 49 45 43 47 47 43 41 40 37 34
62 62 64 63 62 63 61 64 68 71 76 79 75 71 74 74 75 77 74 73 71 67 64 66 73 76 70 69 68 67 66 65 60 56 53 50 51 58 46 43 38 37 41 42 37 31 33 36 41 38 34 34 31 31
52 54 55 56 54 53 56 60 62 65 66 68 66 58 58 65 67 65 62 60 57 58 62 61 62 61 61 57 57 58 56 53 49 46 47 48 49 47 34 24 24 27 29 32 29 25 27 30 31 32 31 30 27 27
49 49 45 43 44 47 49 56 52 46 44 49 55 50 50 52 58 57 53 48 49 51 50 51 52 50 48 49 48 50 51 42 40 39 39 40 41 34 23 19 18 21 24 27 28 25 25 25 26 30 27 24 23 23
30 30 33 38 46 52 42 36 38 44 44 41 46 42 43 43 49 52 44 42 44 44 43 43 45 45 41 41 41 41 41 38 35 38 36 33 29 23 21 21 21 22 25 29 27 21 20 22 24 25 25 23 23 23
36 37 37 37 37 36 32 35 41 39 38 40 40 39 37 36 41 44 40 36 36 36 36 36 35 35 38 38 36 31 34 31 25 27 30 29 27 23 21 21 21 25 29 28 23 19 19 19 21 23 25 25 23 23

GFSWCAN_250_spd_123.txt.gz
Wind_Speed
62 58 54 49 46 45 40 38 37 33 30 30 31 26 26 24 23 26 25 22 20 19 18 13 11 14 17 15 14 13 14 17 18 19 16 18 20 20 23 24 22 20 18 17 20 20 23 24 24 23 25 28 30 30
71 64 61 56 53 50 48 41 40 40 38 37 37 33 30 28 27 27 28 28 25 25 26 21 18 16 14 15 22 23 17 15 18 16 18 19 18 17 21 20 24 27 30 31 30 28 30 30 31 33 37 38 37 38
75 71 66 60 61 55 55 50 47 45 44 44 41 41 40 36 31 27 25 27 30 29 30 30 27 26 24 21 20 22 26 27 26 21 21 24 24 21 25 27 27 30 32 34 35 37 40 40 40 42 44 46 48 49
76 73 72 68 62 64 60 57 54 53 50 49 47 47 45 42 38 33 30 27 30 29 27 30 28 28 28 32 33 27 23 29 36 34 33 30 31 28 33 33 32 28 33 36 41 40 43 45 46 50 50 52 54 56
85 78 79 75 69 66 67 62 60 57 57 56 48 49 51 53 48 40 37 39 37 35 32 34 32 28 28 23 29 34 35 29 33 36 37 35 37 38 39 43 45 41 43 46 46 49 50 51 52 54 56 59 60 62
86 87 86 79 77 72 71 68 65 62 62 60 58 55 53 56 57 55 52 47 45 41 42 44 42 42 47 46 42 44 37 35 36 40 36 35 36 35 38 40 39 42 47 52 56 58 61 64 67 65 64 67 70 72
92 94 92 89 83 82 77 75 71 68 66 67 62 61 60 59 61 60 58 58 53 51 46 46 49 50 47 47 51 50 49 48 50 50 52 48 50 44 43 48 47 44 49 53 55 57 61 63 65 67 68 73 77 78
98 96 98 94 91 88 84 81 80 78 73 74 71 69 67 66 65 65 65 64 63 62 58 55 53 57 56 54 54 53 52 53 53 54 55 58 59 58 56 59 63 64 67 69 70 73 69 66 71 74 77 80 83 86
103 100 99 98 94 93 93 90 88 87 84 81 78 77 76 75 71 69 70 70 69 67 65 66 66 64 65 64 63 63 64 63 60 61 63 63 67 69 67 66 70 71 72 75 78 82 86 86 88 90 86 88 87 91
109 107 103 100 98 99 96 94 93 91 90 89 87 87 86 88 84 79 73 74 75 75 74 73 75 72 71 70 71 72 70 70 70 72 74 72 75 75 74 75 78 80 83 84 84 82 84 90 94 96 97 97 97 97
116 113 107 105 104 102 102 99 100 100 99 98 99 99 96 96 91 87 82 79 80 83 81 82 82 79 78 79 80 78 79 80 76 74 78 78 82 83 85 86 86 87 87 86 89 93 94 97 102 105 107 106 106 105
121 119 115 112 111 109 109 108 110 109 108 109 109 107 105 103 99 96 88 87 90 90 87 88 91 89 87 87 86 85 86 87 85 81 80 81 84 89 90 87 87 91 95 98 98 101 105 108 110 112 111 111 110 111
130 128 126 128 121 113 115 118 118 118 119 115 113 112 109 108 107 98 96 95 96 95 91 93 96 97 98 94 94 94 91 89 89 88 87 88 92 95 94 97 98 101 103 105 107 110 112 111 112 111 109 109 109 110
123 128 132 131 128 127 124 125 125 125 124 123 121 116 115 113 110 109 105 104 102 100 99 96 96 93 94 97 95 96 97 97 98 98 98 102 102 103 105 106 109 107 105 106 111 110 108 110 111 111 112 111 109 110
115 120 125 132 134 128 123 121 120 119 123 125 123 119 114 116 116 113 110 109 107 105 101 98 94 91 95 100 101 100 101 101 101 102 107 109 109 111 112 112 114 111 112 111 110 108 108 109 109 110 112 111 113 111
107 111 116 120 125 127 120 118 118 117 117 119 120 121 118 117 118 117 113 110 111 105 103 105 100 98 99 95 94 98 100 101 104 104 104 108 110 109 109 112 113 111 111 111 112 111 112 112 110 108 106 109 109 105
100 105 108 112 117 123 127 119 113 111 114 114 116 118 122 122 119 117 115 111 109 109 109 106 106 107 102 102 103 106 109 109 106 106 108 109 106 107 110 111 110 108 108 110 112 111 112 114 110 105 105 103 101 96
98 102 105 109 113 115 119 125 124 121 118 118 118 121 123 123 123 122 118 115 113 113 112 110 107 109 113 110 110 107 106 105 105 105 105 104 107 108 109 109 107 109 108 109 111 111 111 109 104 98 94 90 85 80
96 98 101 104 107 111 114 116 122 125 126 122 122 121 120 120 118 119 116 116 116 113 114 116 115 114 117 107 101 99 99 101 101 101 100 101 103 103 104 106 106 107 107 106 107 106 104 102 98 94 89 85 78 75
93 94 95 98 101 105 107 110 113 116 121 128 128 126 124 122 123 123 120 117 115 116 116 115 112 110 106 104 103 97 96 100 102 101 98 99 101 106 104 102 103 104 103 101 100 99 98 93 90 89 85 78 73 71
93 93 95 96 98 99 100 102 103 106 109 111 114 115 116 114 113 110 108 107 105 107 108 104 100 100 98 93 95 96 93 98 98 102 99 95 94 101 99 97 97 97 94 93 93 94 94 90 85 87 82 78 75 71
93 93 92 91 93 94 97 98 100 100 101 103 104 106 106 106 105 104 99 95 95 104 106 100 98 97 94 90 91 92 92 93 95 95 93 95 91 87 86 90 92 92 92 93 94 91 89 87 83 83 78 75 73 70
93 94 95 95 94 90 91 90 91 94 96 98 98 99 99 99 100 99 93 90 93 105 100 98 99 95 90 86 85 85 87 86 88 89 89 88 87 86 86 87 89 88 89 91 92 88 84 80 77 79 78 75 70 67
94 94 96 94 90 88 89 90 90 94 95 92 94 96 95 95 95 93 86 84 99 101 99 101 100 93 87 81 78 78 79 86 87 87 87 86 87 87 87 85 85 85 86 83 84 78 72 66 65 72 72 69 64 60
95 95 91 88 88 89 88 91 92 91 91 92 91 90 90 93 91 83 74 87 96 100 102 104 97 91 82 79 82 82 81 86 87 89 85 87 83 80 80 80 79 79 75 69 64 57 56 58 62 69 68 64 58 54
92 91 89 88 88 86 87 88 91 93 91 88 89 91 89 88 83 72 80 90 98 103 106 95 93 90 87 86 83 83 84 88 87 82 78 76 73 72 70 66 64 67 68 57 51 50 52 55 61 65 61 57 50 46
85 81 77 81 84 88 89 90 90 91 89 90 92 93 87 80 73 75 87 96 102 97 93 88 90 89 85 82 83 83 78 76 77 73 68 68 68 64 56 49 51 54 52 53 53 48 46 50 55 56 51 49 44 42
72 71 70 76 79 80 82 82 82 84 86 90 89 84 79 73 75 85 93 96 96 88 85 83 80 79 75 70 69 68 69 69 66 66 64 63 60 56 47 46 47 46 44 47 48 43 44 46 49 47 46 43 40 37
62 63 65 66 70 74 73 75 75 77 82 79 73 70 72 76 81 86 86 82 78 78 74 70 71 73 65 63 63 62 62 61 57 56 55 53 52 48 41 42 39 38 37 35 42 43 40 38 36 40 41 36 34 34
52 54 53 55 57 59 63 62 63 66 64 63 66 69 72 77 75 72 67 68 67 64 62 65 66 63 60 56 55 56 54 51 47 44 44 43 38 39 42 34 30 31 31 35 39 40 38 34 36 38 35 33 32 30
48 49 49 49 49 48 48 50 52 55 60 65 67 64 63 60 60 66 62 56 54 55 58 61 59 54 52 51 47 47 50 45 34 34 34 35 37 35 33 30 28 31 29 33 36 36 35 32 32 32 31 28 27 25
42 40 41 40 39 40 42 48 51 50 50 54 55 50 47 45 48 54 51 45 47 50 50 49 48 46 41 39 40 38 40 41 31 27 30 29 28 30 28 24 25 26 30 33 33 32 29 26 28 29 26 23 21 21
33 33 33 35 38 39 39 36 39 44 46 42 41 41 40 38 43 43 43 47 40 38 40 39 37 35 33 35 36 34 31 28 26 25 25 24 25 26 24 23 22 23 27 31 29 27 23 23 24 22 20 20 19 19

GFSWCAN_250_spd_126.txt.gz
Wind_Speed
64 59 57 54 51 46 43 39 36 33 29 27 26 23 23 21 18 19 18 15 14 16 16 17 20 18 15 11 8 10 14 15 15 13 11 10 9 8 9 10 9 10 12 17 19 20 21 22 22 24 25 28 31 33
70 65 63 58 60 55 50 47 43 40 36 33 30 31 28 25 29 25 23 23 20 17 18 21 19 18 20 20 21 22 18 13 16 18 17 15 13 13 13 12 10 16 20 23 25 25 25 29 30 33 34 35 37 40
74 72 69 66 62 60 60 54 52 48 46 41 37 37 36 32 32 31 26 26 25 23 20 17 22 19 18 21 22 23 25 26 26 18 21 20 22 24 25 23 21 27 29 28 27 31 34 36 39 43 45 45 46 48
81 77 74 72 69 65 62 60 58 55 55 51 47 43 41 41 38 34 36 32 33 30 27 27 29 27 25 23 19 19 21 23 27 29 29 27 28 29 30 29 29 28 33 35 40 44 42 40 46 49 49 53 58 59
86 84 80 78 74 70 68 66 62 61 61 59 55 52 53 48 45 43 39 42 38 38 34 32 34 36 34 31 29 30 31 30 27 28 28 31 33 31 30 32 34 35 33 36 36 40 43 40 42 43 46 49 52 60
93 90 86 82 79 76 73 70 69 67 67 62 62 60 58 53 52 52 50 43 46 45 44 44 43 39 40 42 41 40 39 39 39 38 37 36 37 41 42 43 44 46 45 45 46 48 49 51 56 57 58 64 65 65
102 96 93 90 85 84 78 76 75 74 72 72 65 64 62 60 59 55 53 50 50 50 49 48 49 48 49 45 46 46 46 44 46 47 48 47 47 45 47 48 50 52 54 58 62 61 59 61 66 67 69 72 73 73
107 104 99 96 94 92 88 81 79 79 77 75 75 68 66 69 66 64 62 61 59 56 55 54 56 55 55 55 57 54 54 55 54 54 56 57 57 58 59 60 61 63 64 66 68 68 69 71 74 77 79 80 82 83
114 107 104 103 101 98 95 89 84 84 83 84 82 76 75 72 72 72 69 67 69 65 65 64 63 60 60 63 66 64 61 61 63 64 62 61 62 64 65 69 72 73 75 74 72 75 77 79 80 82 83 83 87 88
105 107 112 105 103 102 100 97 94 88 90 87 85 83 81 84 83 78 77 75 74 72 72 71 72 67 69 72 71 71 70 70 67 68 70 69 72 73 72 74 73 74 74 75 78 81 83 85 87 89 94 95 97 98
119 111 107 112 107 105 103 99 102 98 94 90 89 91 91 90 91 89 88 82 79 76 76 78 78 78 79 79 81 81 81 80 76 76 82 81 79 82 86 87 87 85 84 82 83 85 88 91 93 95 98 100 105 110
126 123 118 115 110 110 108 106 105 105 99 98 96 95 96 98 98 97 94 88 86 85 83 86 87 87 87 90 90 88 89 88 86 85 85 82 87 91 93 91 93 94 94 93 91 94 96 97 101 102 105 110 114 116
114 120 127 126 117 112 107 109 108 111 106 103 107 105 103 102 100 96 96 95 95 94 93 93 92 94 96 98 99 98 97 94 95 95 96 95 94 91 89 91 93 93 95 98 101 103 104 105 107 108 112 116 117 118
109 112 114 118 121 117 113 113 114 114 113 112 112 110 109 109 106 103 102 103 104 101 101 102 102 102 105 107 106 105 104 105 102 103 103 102 99 96 93 86 88 92 96 100 100 102 104 108 109 113 115 115 116 117
102 105 109 113 115 118 122 121 116 116 119 117 115 116 114 111 110 108 108 109 109 107 108 108 109 109 110 113 113 113 113 111 109 107 106 102 97 91 94 98 102 102 101 104 107 108 109 108 110 114 118 116 114 113
98 101 103 104 108 113 118 121 126 125 127 130 125 120 118 117 117 116 114 113 112 110 111 114 114 116 119 118 116 118 116 114 111 105 104 103 99 103 107 107 107 115 112 107 107 110 111 110 111 111 112 113 113 112
95 97 98 101 106 110 111 113 118 123 127 130 129 125 123 119 119 121 124 123 122 126 128 124 122 121 116 112 112 115 115 112 112 113 108 106 107 109 106 116 117 110 107 108 107 107 110 111 110 109 110 110 109 108
95 97 97 99 101 103 106 109 112 113 115 116 120 125 129 130 130 130 129 129 128 131 129 125 123 120 117 116 115 111 110 111 109 111 110 109 111 108 109 107 107 107 107 105 106 108 110 110 111 110 107 105 103 103
95 95 96 97 97 98 101 103 106 108 110 113 116 119 122 123 124 122 121 121 119 118 116 112 112 111 111 109 106 106 108 108 105 104 108 109 109 102 102 105 104 104 104 104 104 106 108 109 109 107 105 105 103 99
94 95 94 93 92 92 95 97 99 101 102 105 107 110 113 114 115 116 117 116 113 105 102 102 102 101 100 103 104 104 101 99 96 97 101 100 102 100 102 104 104 104 103 105 106 108 108 107 107 106 104 102 98 93
93 94 93 92 93 94 94 95 97 99 99 101 103 105 106 106 107 106 105 103 103 107 108 107 105 103 101 100 102 98 98 99 98 96 95 94 100 102 102 101 102 102 103 103 103 103 105 105 103 102 98 93 92 86
91 93 93 92 92 93 94 94 94 95 97 98 99 100 100 99 99 98 96 94 98 104 104 101 101 101 99 97 96 96 97 96 95 95 96 94 92 94 95 96 98 98 99 101 102 103 102 103 101 96 91 84 84 82
90 91 92 92 92 91 90 90 92 91 93 95 96 97 97 96 95 94 89 88 97 104 99 98 100 99 97 95 93 94 95 96 94 93 92 92 92 92 93 92 93 93 94 96 98 96 95 95 94 92 87 80 74 76
89 91 91 89 88 89 89 90 90 91 93 94 94 94 94 93 93 89 83 84 100 97 94 95 93 93 92 89 85 87 88 90 87 88 87 87 88 88 88 88 89 89 92 89 90 89 85 82 81 79 75 69 69 69
89 88 86 86 87 87 87 88 89 90 91 92 92 92 92 93 89 81 77 85 95 91 93 94 93 96 95 85 78 78 82 85 87 87 81 84 83 82 82 84 84 86 87 80 77 74 71 67 65 64 63 63 65 62
85 86 84 84 83 84 85 85 87 90 90 90 90 90 90 86 82 78 79 86 87 93 96 96 99 99 97 84 76 80 82 84 85 80 78 79 79 77 77 76 74 75 73 67 62 61 61 59 57 58 58 57 55 51
76 76 78 80 81 82 84 87 88 89 88 88 86 85 86 81 78 76 77 81 91 94 96 98 102 101 91 83 83 81 80 81 80 76 73 72 68 68 68 67 61 62 60 54 52 50 50 51 49 52 53 52 48 44
63 65 71 76 79 82 85 87 88 89 89 88 87 85 83 76 74 78 81 90 89 91 97 100 95 87 81 80 79 77 76 74 68 63 60 61 61 60 57 54 52 48 48 47 47 46 47 47 48 49 49 46 44 43
59 61 68 74 78 79 79 80 81 83 84 82 78 76 72 71 73 78 80 80 84 91 88 81 74 77 76 78 72 69 65 62 57 52 52 52 56 56 50 46 43 42 40 40 42 42 44 40 42 43 41 37 38 40
57 58 61 66 67 67 72 72 74 75 71 71 71 70 67 69 76 76 77 82 84 76 67 64 66 71 69 64 62 61 56 51 47 43 41 47 48 46 45 41 37 35 36 38 38 37 35 39 39 37 34 32 31 33
48 48 48 49 51 57 61 62 64 66 66 66 67 65 67 69 70 71 72 68 62 56 55 59 62 57 56 54 49 49 52 48 38 34 33 37 39 41 38 33 30 33 32 30 31 32 31 33 32 28 25 25 25 26
40 43 44 45 48 52 54 55 56 55 56 55 58 61 65 60 52 55 64 58 48 48 53 51 50 48 46 46 43 41 43 46 38 26 26 31 35 35 31 28 29 29 27 27 28 27 25 26 25 23 20 20 20 20
38 39 39 41 42 43 42 40 41 45 49 54 57 52 47 42 45 54 52 50 49 45 42 41 41 42 42 39 36 35 37 36 31 29 29 29 27 26 27 28 26 25 25 25 24 21 22 22 18 15 14 14 15 16

GFSWCAN_250_spd_129.txt.gz
Wind_Speed
69 63 58 55 49 44 45 45 41 38 35 30 25 21 18 20 20 17 15 12 8 10 9 6 8 9 8 9 11 13 13 14 13 12 11 9 9 8 7 5 2 1 3 6 10 16 19 19 20 22 24 26 29 30
76 71 66 61 57 52 47 48 48 43 42 40 35 29 24 24 24 24 22 19 14 10 14 14 10 7 14 9 7 9 11 10 13 16 15 13 12 14 16 14 14 15 17 18 19 20 23 25 25 27 30 33 36 38
84 78 74 68 64 59 54 50 50 52 49 47 42 38 34 31 28 26 29 26 23 18 18 20 16 17 18 16 16 13 12 8 9 8 12 14 19 19 19 18 20 21 25 28 31 32 31 33 36 40 43 42 43 47
90 85 81 77 71 68 62 58 54 53 55 54 51 44 43 41 38 34 33 31 29 29 26 26 27 28 26 22 21 21 18 20 21 22 20 18 17 19 18 25 26 26 26 29 31 32 34 37 40 38 38 42 47 45
93 92 88 85 79 74 69 66 63 58 56 51 54 57 51 48 49 43 41 40 37 36 35 32 34 32 33 30 32 28 27 29 30 30 30 29 28 28 31 31 32 31 35 38 39 39 40 45 48 49 49 52 59 59
97 96 95 90 87 82 76 72 69 68 64 62 57 54 55 60 55 54 53 51 45 43 41 41 40 41 38 37 37 36 36 37 35 36 37 38 39 37 39 44 47 47 48 50 53 56 55 54 56 58 59 61 66 69
102 99 100 97 94 90 86 79 76 73 73 70 66 63 59 58 58 56 56 55 52 50 50 47 45 46 45 46 45 41 41 42 42 41 41 45 46 47 48 51 54 56 58 59 60 60 61 63 66 68 71 72 73 74
111 105 103 101 99 96 94 88 84 81 77 77 76 73 69 65 62 60 59 57 56 56 56 54 53 54 53 51 51 51 48 51 51 50 52 52 53 53 54 60 61 60 61 63 65 67 69 70 73 75 74 74 75 77
113 111 107 101 104 103 99 97 92 88 87 83 81 80 78 75 72 70 66 67 66 63 57 56 58 60 60 60 60 60 58 58 58 59 58 57 59 62 64 69 70 70 72 73 75 76 77 80 82 85 87 87 89 91
111 107 105 106 108 103 105 102 101 96 95 92 89 84 82 82 83 80 74 73 73 71 64 65 68 67 69 70 69 68 65 68 65 66 68 65 65 70 72 76 78 80 82 82 83 86 87 89 91 88 87 89 89 92
110 112 110 106 105 111 109 110 106 105 105 99 92 89 87 87 88 89 86 79 75 75 75 75 76 76 76 76 79 78 76 74 71 71 73 73 77 82 83 85 86 89 90 91 93 93 94 97 95 94 96 95 90 88
104 109 113 114 106 105 109 110 109 110 108 104 105 99 96 96 95 93 88 87 84 83 83 85 86 87 86 84 83 83 83 81 80 79 81 80 85 89 90 91 93 95 98 101 103 103 104 103 101 97 97 95 97 99
100 103 106 108 110 111 108 108 116 112 112 110 112 110 110 109 105 95 88 90 93 92 91 91 93 94 94 95 95 92 89 87 86 85 85 88 93 96 97 95 98 100 105 109 107 109 109 106 104 102 102 102 105 106
99 101 100 103 109 110 111 113 116 116 116 120 118 117 117 117 104 100 97 100 99 98 97 98 100 99 98 98 99 97 95 93 94 96 97 97 99 101 100 100 104 108 114 110 106 106 107 106 105 104 105 109 109 109
97 98 99 102 105 107 111 118 118 116 117 119 124 127 120 115 112 107 107 107 107 104 105 107 106 106 106 105 103 103 102 102 101 102 105 106 106 106 104 108 113 114 115 112 111 113 110 107 108 112 113 114 115 112
93 99 101 100 104 107 110 115 118 123 126 127 125 122 115 112 108 114 117 112 110 114 113 113 114 113 111 109 108 110 109 108 108 108 109 111 110 109 111 114 118 120 119 116 114 109 108 110 112 113 114 116 114 112
96 92 91 95 99 102 107 112 115 119 124 123 118 116 116 116 116 117 115 120 116 118 119 120 117 117 117 116 114 115 115 114 112 113 114 113 111 111 112 115 115 112 112 112 110 111 111 113 114 114 113 110 111 109
87 90 94 97 98 100 104 106 109 113 113 113 113 112 114 115 117 115 119 126 125 124 122 122 124 120 119 122 121 119 118 117 117 116 117 117 112 114 113 110 108 108 107 107 108 108 109 110 111 109 110 110 109 107
86 88 92 95 96 99 101 102 104 106 106 105 106 108 110 112 112 112 112 114 117 119 119 119 119 119 119 119 120 122 121 119 118 115 115 118 117 112 109 107 106 105 105 106 106 106 105 107 107 107 106 106 105 102
85 88 91 93 96 99 103 102 101 102 101 99 102 104 105 106 109 110 110 110 112 113 113 113 114 115 116 116 116 114 112 111 111 112 112 109 107 104 103 104 104 104 103 103 103 103 104 103 105 107 106 105 105 103
82 85 90 94 94 96 98 98 97 98 98 100 100 99 99 101 101 100 101 103 105 106 108 109 110 111 110 110 110 111 110 108 105 103 101 99 100 101 100 101 102 102 102 100 102 102 103 103 105 107 108 105 104 99
82 84 87 89 94 96 95 95 97 97 97 97 96 96 95 94 94 93 95 97 99 101 102 103 102 102 101 103 101 100 100 99 98 97 95 94 93 93 95 97 98 98 99 99 99 98 99 102 105 105 104 102 100 98
82 85 88 90 91 91 92 93 93 92 93 93 92 92 91 91 91 91 91 94 97 96 96 96 95 94 96 96 94 93 95 94 92 91 89 89 90 90 90 91 95 97 96 95 98 97 98 101 103 101 99 99 96 94
83 86 87 89 90 90 90 93 94 95 95 94 93 93 92 92 90 87 87 93 94 91 89 89 89 90 88 89 90 91 92 90 87 83 84 88 89 89 91 91 92 96 97 92 95 97 99 97 96 95 94 91 88 83
81 84 88 89 89 89 90 92 92 92 92 92 92 91 90 88 85 81 84 93 94 88 86 87 86 85 84 87 88 90 90 88 84 81 85 91 90 87 87 89 92 97 97 91 92 92 91 87 85 84 83 79 75 70
80 82 83 85 86 86 87 88 89 89 89 89 89 88 88 85 80 77 85 94 89 85 86 86 86 87 89 88 88 90 87 85 85 83 83 87 86 85 85 83 83 87 90 85 81 78 75 74 74 71 69 69 66 60
72 75 78 80 83 85 86 87 87 87 88 86 85 83 82 79 74 79 88 84 81 85 87 88 89 91 89 89 86 86 85 87 84 80 79 80 78 77 75 72 73 77 79 75 69 66 65 64 63 60 58 58 53 51
63 66 70 75 78 82 86 88 88 88 86 86 85 83 76 71 73 78 80 79 80 81 87 91 91 90 89 86 84 85 88 83 77 74 73 73 73 71 69 67 68 64 61 58 57 58 58 54 52 49 46 44 43 43
60 66 70 74 77 80 81 84 85 84 83 78 77 77 74 72 74 75 79 79 82 85 87 89 89 87 81 81 80 83 79 72 69 65 63 60 58 62 65 61 55 50 47 48 52 50 48 45 44 40 33 31 33 32
60 64 67 70 73 73 76 76 75 73 70 69 69 69 68 70 75 74 73 77 80 83 84 80 75 73 76 73 68 72 69 64 61 57 53 51 53 57 56 51 48 45 43 41 39 40 38 37 36 32 30 29 26 22
51 55 58 60 62 66 67 66 65 67 67 68 68 67 69 70 69 71 71 75 78 75 69 64 62 64 59 59 57 56 58 57 53 50 46 44 47 50 48 45 42 39 36 32 33 31 30 30 30 28 26 20 16 14
44 46 48 51 56 58 59 60 60 59 61 60 61 61 63 61 58 63 74 65 58 53 50 56 56 53 50 46 45 47 49 51 49 42 39 37 39 40 41 40 38 36 32 29 28 27 26 26 24 19 13 11 10 10
39 42 45 49 53 54 54 51 51 52 52 52 53 53 51 47 46 55 54 49 47 51 50 42 43 43 41 40 40 40 41 43 42 37 33 34 35 34 33 31 29 28 25 23 22 21 21 18 14 11 10 10 9 6

GFSWCAN_250_spd_135.txt.gz
Wind_Speed
76 64 59 62 58 60 56 51 46 40 36 27 39 36 31 26 24 20 17 11 5 3 2 0 4 7 9 9 9 11 12 14 13 14 14 13 14 13 14 12 9 12 11 11 9 7 4 3 5 6 8 11 13 16
80 66 61 62 61 59 63 59 52 48 42 37 32 43 36 34 30 27 23 19 14 10 5 3 2 2 0 4 6 8 8 5 2 8 9 7 9 9 8 5 4 4 4 6 8 10 10 11 13 16 19 20 21 23
89 75 69 63 64 64 61 63 62 56 49 44 40 36 42 42 37 33 31 26 23 19 16 13 9 7 6 7 4 3 7 8 4 7 6 7 6 6 4 3 4 3 6 10 13 14 15 14 15 18 22 25 27 29
85 85 77 71 69 64 66 64 64 64 60 53 48 44 41 41 47 40 39 35 32 28 23 22 20 19 15 13 13 11 11 13 12 13 14 13 13 10 11 12 11 10 14 15 17 19 22 24 25 29 32 31 31 34
101 94 89 84 73 68 71 69 68 68 67 64 58 51 50 47 44 42 48 46 42 40 35 35 35 29 26 25 22 18 19 18 19 20 20 23 21 21 22 25 24 20 24 26 29 31 33 35 38 40 37 36 38 41
106 103 100 93 91 82 71 74 73 69 71 71 67 62 57 56 50 48 43 43 45 41 42 44 42 37 32 32 33 32 30 27 28 28 27 28 26 26 32 35 33 32 32 33 36 39 42 41 40 42 43 45 48 56
115 111 105 102 98 88 81 77 79 77 76 75 72 71 68 62 60 55 52 51 48 42 39 39 40 44 44 43 41 42 43 40 35 34 36 34 31 33 39 41 37 39 40 35 42 43 44 46 48 50 55 60 64 68
125 121 115 110 105 102 96 87 80 79 79 75 77 78 76 72 67 65 59 59 57 54 51 46 45 49 49 49 48 46 45 45 43 42 44 43 41 40 44 42 40 40 42 46 49 52 57 58 59 61 65 69 74 77
127 126 122 118 118 108 102 91 86 81 79 79 79 82 81 77 76 75 71 65 62 59 55 53 55 56 55 55 53 52 51 50 48 48 48 46 48 50 47 44 46 50 54 55 58 62 64 67 68 72 77 81 83 85
135 136 133 126 119 115 111 105 100 94 89 87 86 80 77 85 85 84 80 78 72 66 60 59 60 59 61 61 61 61 60 57 52 53 54 51 52 57 55 57 60 61 63 66 69 71 74 78 81 84 86 88 90 92
112 115 115 116 116 117 114 107 106 102 104 100 92 82 80 86 86 90 90 81 78 73 69 67 71 74 73 70 69 68 64 63 61 61 63 60 61 67 68 69 70 71 73 77 79 82 86 87 90 92 94 96 98 99
107 108 109 109 109 113 115 113 111 109 107 100 95 95 93 94 89 95 91 86 78 78 76 80 83 82 81 81 79 76 75 74 70 69 69 67 71 74 77 77 79 81 83 84 85 87 90 92 94 97 100 102 103 106
100 105 106 108 109 111 111 110 111 111 109 107 107 105 101 102 99 87 87 84 84 81 83 88 88 87 87 88 87 86 85 83 82 78 75 77 81 83 84 84 86 88 88 90 92 94 96 99 102 105 106 109 111 114
97 98 100 105 108 110 109 110 111 110 111 110 111 111 108 101 92 79 77 79 88 89 94 94 96 95 93 93 91 92 91 90 88 86 85 87 88 88 88 90 93 93 94 95 97 101 103 104 106 109 113 116 119 124
96 94 95 97 100 103 107 108 109 110 111 113 115 115 103 96 88 84 86 89 92 96 96 100 104 103 103 104 100 99 98 96 93 95 97 97 95 96 98 99 96 96 98 102 104 105 107 111 114 116 120 126 128 125
95 93 92 95 98 101 106 109 108 107 110 112 115 111 96 94 92 89 90 96 104 106 107 107 105 107 110 107 105 105 104 103 104 102 100 100 99 100 101 102 105 108 110 110 112 114 117 120 123 127 129 126 127 124
89 90 97 98 100 103 108 108 106 106 106 107 103 94 91 86 88 92 96 98 106 108 109 111 110 108 111 111 111 109 109 112 113 113 112 108 107 108 110 110 111 114 116 117 119 122 127 126 126 124 124 118 115 117
84 92 98 102 102 103 103 102 103 102 102 97 94 88 90 88 89 92 94 96 99 102 106 110 113 113 112 111 111 116 120 121 119 117 116 114 116 117 115 117 118 117 119 122 125 125 120 121 122 115 114 115 113 113
83 86 94 99 100 99 100 100 99 98 96 91 87 85 83 84 85 88 93 94 94 96 100 102 105 103 106 110 111 114 117 117 117 116 118 120 117 117 114 114 115 116 116 117 115 115 116 114 112 110 108 107 106 105
78 83 91 96 97 96 98 97 95 96 95 91 86 84 83 84 84 88 93 95 94 96 99 100 100 99 101 104 105 106 106 110 112 111 111 111 108 108 110 109 110 110 111 110 107 105 104 103 103 101 102 103 104 104
77 82 88 88 89 89 91 91 94 94 92 90 85 86 87 88 89 88 90 92 93 95 95 96 98 99 100 100 98 100 100 102 103 101 101 101 100 102 103 105 104 104 103 100 98 96 96 95 95 99 100 102 105 106
74 77 79 82 84 86 87 86 88 89 88 85 86 89 91 92 92 89 91 93 92 94 96 96 98 101 101 99 99 100 99 97 97 97 97 98 100 99 99 98 96 94 92 92 89 86 88 93 96 97 99 100 102 102
71 73 75 79 79 81 80 82 84 84 84 83 85 88 90 91 91 92 94 95 95 95 97 99 100 98 97 95 94 95 94 91 91 92 93 91 90 91 91 89 89 88 85 85 86 87 88 93 97 97 98 99 100 100
67 70 72 75 76 78 78 78 78 80 79 79 82 84 86 87 90 92 94 95 96 99 100 99 98 96 90 88 90 89 87 87 85 85 85 84 84 84 84 84 83 83 83 82 86 88 91 93 95 95 96 96 96 94
62 65 69 72 73 74 73 75 75 78 79 79 81 84 86 88 90 93 95 97 98 98 95 93 91 87 84 86 86 85 84 81 79 76 78 79 78 77 76 76 78 83 88 82 84 86 89 92 92 92 91 92 88 83
59 62 64 67 69 70 71 72 73 74 77 80 81 83 86 88 91 94 95 93 90 87 86 86 84 84 84 82 80 80 78 74 73 72 74 75 75 73 74 75 75 80 91 84 84 84 86 89 86 84 83 83 80 70
55 57 60 63 64 65 67 69 71 73 74 75 77 79 81 84 89 90 85 83 83 84 84 83 81 78 76 75 76 75 73 73 71 68 70 74 76 77 76 74 76 79 83 84 85 86 83 79 77 76 71 70 68 59
51 54 56 58 60 62 63 66 69 72 73 74 75 77 78 82 83 80 78 76 76 76 75 75 74 73 72 71 69 70 72 71 70 70 71 73 76 78 76 76 76 76 79 82 81 77 73 67 62 59 58 58 58 52
48 50 52 54 56 59 60 63 65 68 70 71 73 75 77 76 75 75 73 73 72 71 71 69 68 66 64 66 67 69 70 71 69 70 70 70 75 79 77 74 74 75 73 71 70 64 57 54 53 49 50 50 47 43
44 44 45 47 48 50 53 56 59 61 61 63 65 67 69 69 68 69 70 70 70 69 68 65 66 65 67 65 67 69 70 68 67 65 66 69 71 72 72 72 70 69 65 61 56 54 50 45 44 42 40 39 38 37
41 41 42 42 44 45 47 49 51 51 53 55 58 59 61 62 62 63 64 65 64 61 61 61 64 63 61 62 62 62 64 62 59 61 63 64 64 65 63 62 61 58 53 49 47 45 44 43 39 35 32 31 29 30
40 41 42 42 42 41 42 43 44 45 46 48 51 53 54 54 56 58 59 57 55 57 57 56 57 58 56 57 56 55 56 58 59 61 60 58 55 53 52 50 49 47 44 43 43 42 39 36 32 30 27 26 26 26
35 37 37 38 39 38 37 38 40 43 44 45 46 46 47 48 51 55 56 50 49 50 51 52 53 53 51 50 50 52 53 54 55 52 48 46 45 43 43 43 43 41 39 38 38 36 33 30 29 26 23 23 22 21

GFSWCAN_250_spd_138.txt.gz
Wind_Speed
79 70 72 69 61 64 54 51 53 49 44 37 32 29 37 34 29 27 22 19 13 7 6 3 2 2 2 5 9 10 11 13 16 14 16 16 17 18 19 19 20 22 21 19 16 14 12 12 9 6 5 4 5 8
82 77 73 74 70 66 55 56 56 55 50 44 38 33 35 41 35 33 31 26 23 16 11 9 5 2 2 2 2 4 7 5 4 10 8 10 9 11 14 12 12 10 10 12 9 9 7 5 2 1 3 7 11 15
87 84 78 78 72 69 60 54 56 56 55 52 47 41 36 40 43 39 36 33 29 25 21 16 15 10 7 5 7 6 5 1 2 5 6 8 9 6 4 5 6 5 6 4 3 2 1 5 8 12 15 18 21 24
88 90 82 83 77 72 70 61 59 58 57 55 55 50 44 40 40 47 43 39 37 33 31 27 23 21 18 15 12 10 12 12 10 8 9 9 9 9 8 6 3 6 9 11 11 13 16 15 17 19 21 24 28 31
93 93 92 88 86 77 78 78 64 60 58 61 59 57 54 48 43 42 47 47 44 42 38 34 31 30 27 24 21 20 17 16 17 17 16 15 17 19 19 17 13 16 18 21 23 22 23 23 24 29 31 32 35 37
101 99 97 93 89 82 78 80 66 60 59 62 64 62 60 58 54 49 46 44 53 47 46 45 41 38 37 36 35 35 29 26 26 26 27 26 24 26 27 26 23 25 26 28 31 31 32 32 31 34 37 40 42 46
98 104 101 100 95 91 80 78 79 74 69 67 66 66 64 63 61 58 53 53 50 52 56 53 52 51 49 47 43 40 39 36 36 35 35 36 33 35 37 37 34 35 34 35 37 38 39 38 38 41 43 45 54 57
106 102 100 101 99 95 88 82 76 78 80 70 67 67 70 68 65 64 63 58 53 52 53 50 51 56 55 52 46 45 43 43 42 43 45 43 41 41 45 44 45 44 44 45 46 49 49 44 44 51 56 59 62 66
118 115 112 106 107 96 88 87 87 80 84 83 75 76 68 64 71 74 71 68 62 58 53 54 57 55 55 58 60 59 56 54 52 52 51 49 47 49 50 52 52 51 51 53 54 54 54 53 56 61 65 69 72 77
126 126 122 119 115 100 102 103 102 91 92 94 87 83 68 71 74 76 76 75 68 64 60 58 63 65 66 64 62 60 60 58 56 55 55 54 53 60 59 60 60 59 58 58 59 61 63 66 69 71 75 78 81 84
119 122 122 124 123 123 114 114 112 111 111 105 95 83 81 89 87 82 78 76 73 67 63 67 70 70 71 71 71 70 64 64 61 60 61 57 58 65 65 65 64 63 63 65 68 69 71 74 77 79 82 84 86 90
110 113 118 124 125 122 123 122 122 118 117 106 105 99 96 101 98 91 77 72 65 66 64 72 75 73 73 76 77 75 75 72 68 66 66 62 66 69 70 70 71 72 73 74 75 77 79 80 82 84 87 90 94 98
108 108 111 114 120 126 119 117 120 127 127 124 119 114 113 111 108 94 73 67 67 76 78 78 75 74 73 76 79 82 82 80 81 78 76 78 81 80 79 79 81 82 83 85 87 87 88 90 92 95 98 101 103 105
107 107 108 109 111 114 117 116 112 115 118 125 130 125 120 114 96 89 80 83 84 80 82 84 85 81 81 79 78 79 80 85 82 79 78 84 86 86 87 88 90 91 90 90 92 96 98 101 103 104 105 107 109 113
102 106 107 107 107 109 110 111 112 110 111 115 120 126 124 113 98 91 89 86 84 85 85 87 89 87 89 89 87 85 82 79 75 85 87 87 88 90 92 93 94 97 98 101 102 103 105 106 105 109 112 115 117 117
98 101 105 109 108 107 107 106 107 109 111 113 114 110 102 101 100 92 85 87 88 91 94 95 94 94 93 93 89 89 86 85 92 90 92 93 93 93 95 98 100 103 106 106 107 108 110 112 114 117 119 121 122 126
93 96 101 105 107 107 106 105 105 105 107 105 97 94 89 85 83 82 81 82 88 93 93 95 96 98 97 92 90 93 93 101 100 100 99 102 104 106 104 102 105 107 109 111 115 119 119 120 122 124 125 125 120 122
85 92 97 99 101 103 107 105 103 103 99 93 93 92 90 87 83 81 80 81 86 90 92 93 97 97 94 91 87 94 101 103 101 100 103 106 108 108 111 112 112 113 114 114 116 116 117 115 114 117 118 118 120 118
82 85 90 94 98 102 102 103 102 95 90 92 92 95 92 87 85 84 84 85 87 89 92 95 96 87 87 90 96 100 102 103 103 99 95 97 100 100 99 102 103 105 108 108 107 107 106 104 107 109 110 111 111 111
77 79 84 91 96 98 99 98 100 96 90 90 92 93 91 87 87 89 90 90 91 92 94 92 84 84 91 94 96 97 98 98 98 95 97 98 97 97 96 98 99 99 100 100 100 98 97 100 104 104 104 104 103 103
71 76 81 86 88 89 91 88 91 91 89 91 93 92 92 89 88 90 91 93 94 91 88 83 85 89 91 93 94 96 97 97 96 95 96 95 94 94 95 96 97 98 97 97 96 98 98 98 98 99 99 101 101 101
70 74 77 81 81 83 86 85 86 89 89 88 94 94 92 89 89 91 92 95 91 86 83 84 87 90 93 93 94 95 95 94 94 91 92 93 94 93 93 94 93 94 94 94 93 93 94 94 94 95 96 97 100 102
68 71 73 75 74 74 75 76 79 84 87 87 89 91 90 90 90 91 92 90 87 85 86 87 88 91 93 93 95 96 95 94 91 90 90 90 88 89 88 89 90 90 89 90 89 88 87 90 90 91 95 98 100 100
65 67 67 69 67 66 65 66 71 77 81 83 85 86 88 89 91 92 90 87 86 87 88 88 90 92 93 95 97 97 94 91 92 91 90 90 90 90 88 88 86 85 84 83 83 83 85 86 90 93 95 97 97 96
60 62 63 63 64 63 62 64 66 67 70 73 77 80 82 85 87 89 89 89 90 90 93 93 94 96 96 96 95 92 92 93 92 90 88 87 86 81 83 82 82 82 80 77 80 82 85 88 90 91 92 93 91 89
55 55 56 56 58 60 61 62 63 64 64 65 68 71 74 78 80 82 82 83 86 89 91 93 94 94 94 92 91 89 88 87 86 83 81 80 81 80 75 75 75 79 79 78 79 83 86 87 87 87 86 87 86 80
49 51 51 52 55 57 58 59 60 61 62 64 65 67 69 71 71 72 76 79 81 83 84 83 84 86 84 79 78 79 80 80 80 79 78 77 75 73 72 72 73 78 79 81 83 83 83 83 82 81 79 76 75 71
45 46 47 49 51 52 53 55 57 58 60 62 64 66 66 66 66 67 69 70 72 74 75 75 75 73 71 70 73 76 76 74 71 69 70 69 72 72 71 72 75 77 80 81 81 81 80 75 72 69 67 65 63 61
41 42 42 43 44 46 47 50 51 53 56 58 60 62 62 62 62 62 62 63 64 64 65 64 62 64 65 67 70 70 68 65 63 62 63 65 71 74 71 74 77 78 77 76 77 75 69 65 61 56 57 56 54 53
38 38 37 38 39 41 41 44 46 48 50 52 52 53 54 55 56 57 57 58 58 57 58 59 60 63 64 64 65 63 64 64 64 64 65 66 69 72 74 75 75 73 71 68 66 65 61 54 51 49 46 45 45 44
33 34 34 35 36 36 37 40 43 45 46 47 47 47 48 49 50 51 51 51 52 55 57 60 60 60 60 61 62 65 64 61 61 62 63 65 67 70 70 69 67 65 63 60 56 51 50 49 46 43 40 38 36 34
32 33 35 35 34 35 36 38 39 40 41 41 42 44 46 47 48 49 48 50 54 55 55 56 56 57 57 56 56 58 58 57 57 59 60 60 61 60 59 57 56 53 52 50 46 45 43 43 38 35 34 31 29 28
27 27 28 29 30 31 32 33 34 36 38 39 41 42 44 46 46 45 45 47 48 47 47 48 49 49 49 50 50 52 53 55 54 53 52 52 51 50 49 47 44 44 44 41 40 38 37 34 32 32 30 28 26 24